GFSSW_sfc_thetae_000.txt.gz
Theta_e
318 318 318 318 318 318 318 318 319 321 324 325 327 328 329 329 328 319 311 316 320 327 326 315 313 312 312 307 313 311 298 295 297 298 301 305 303 306 307 305 307 308 306 309 314
319 318 318 318 318 318 317 317 319 319 322 323 324 324 326 327 321 315 322 329 330 330 316 311 308 311 305 307 308 306 299 299 303 304 302 305 304 304 303 303 304 305 309 311 318
320 319 319 318 318 317 318 318 318 319 320 323 323 325 326 325 312 312 329 332 332 329 320 317 314 310 303 305 306 307 302 304 305 307 306 305 303 306 304 301 305 305 307 308 313
322 320 319 319 318 317 317 317 318 319 320 321 322 323 326 319 297 312 325 327 331 326 319 315 309 303 301 301 305 301 307 308 309 310 309 305 306 304 304 305 309 309 310 310 310
323 321 319 319 318 317 317 316 317 318 318 320 321 323 316 305 305 316 321 323 318 317 316 312 306 303 299 301 303 301 303 309 311 311 310 310 306 304 305 308 309 310 311 309 310
324 321 320 319 319 318 317 317 317 317 318 319 320 320 308 296 311 312 315 312 314 314 312 312 309 308 303 301 300 303 305 306 308 308 309 308 307 304 306 308 308 309 309 308 309
325 323 322 320 319 319 318 319 319 318 318 318 319 315 306 300 310 310 311 310 310 310 310 313 312 307 306 301 305 304 300 303 304 306 306 308 303 304 306 308 307 307 307 308 308
324 324 322 321 320 319 319 319 317 319 318 319 318 310 298 312 311 309 309 307 307 309 308 308 310 309 306 307 302 298 298 294 301 305 307 306 298 305 307 304 305 305 305 305 306
324 323 322 321 320 320 320 319 317 317 317 317 309 304 295 313 306 308 309 305 305 305 306 309 307 302 300 299 295 294 288 291 296 305 304 303 299 305 307 304 304 304 304 304 304
323 323 322 320 320 319 319 317 316 316 314 314 310 301 303 300 305 308 308 307 302 302 301 301 300 293 293 294 286 290 289 291 291 299 303 301 301 304 305 304 303 304 301 301 304
322 321 321 320 319 319 313 307 299 297 304 296 297 298 299 306 308 305 307 304 302 297 290 295 291 288 290 292 293 293 291 289 293 299 298 298 300 303 306 302 302 301 299 300 303
320 321 320 320 319 318 309 300 299 301 293 301 302 301 304 306 299 303 306 297 297 290 292 290 287 292 294 293 292 292 289 289 293 297 297 297 297 302 305 305 303 303 298 300 302
319 320 320 319 318 313 306 304 307 304 293 297 301 299 301 303 298 299 302 298 295 291 291 287 289 294 293 291 290 290 288 288 289 295 297 295 293 298 303 304 305 303 301 303 304
319 320 319 317 309 306 304 308 307 308 286 289 293 299 303 304 297 304 304 299 295 290 290 289 293 291 290 289 290 285 293 293 292 290 284 298 286 293 299 301 302 302 299 302 302
318 319 318 314 303 302 305 308 307 303 268 290 293 304 304 298 299 298 306 300 292 290 290 286 289 289 287 289 292 288 293 291 292 289 287 289 287 292 297 296 300 301 299 302 303
317 318 316 309 306 306 309 309 304 282 271 288 295 293 294 297 297 299 299 303 300 293 293 289 294 292 290 292 292 294 291 290 290 288 281 287 289 288 293 296 298 298 299 301 303
314 317 313 309 302 309 309 300 283 276 289 287 289 292 291 291 293 295 292 292 288 284 283 288 288 292 295 290 292 291 287 280 278 277 278 288 287 289 295 299 301 298 298 301 303
312 316 313 308 311 309 304 290 276 284 285 292 291 291 287 291 291 292 290 287 292 289 286 281 279 289 293 290 287 288 287 280 273 274 278 290 285 289 299 302 303 303 301 301 301
312 312 307 308 311 307 296 283 279 286 291 289 290 287 287 290 290 290 289 287 289 290 283 282 281 292 292 293 292 286 283 290 284 284 281 285 289 297 300 296 297 298 299 300 302
306 305 303 310 310 303 291 284 287 294 294 293 287 289 284 287 286 286 287 290 289 292 292 285 276 288 291 294 293 289 291 282 283 275 276 283 286 290 294 293 295 297 298 300 302
304 296 305 310 308 296 286 284 290 297 296 293 290 289 287 284 286 285 285 289 291 291 292 288 285 284 289 287 287 287 286 287 286 285 281 282 286 295 296 295 296 298 299 300 301
302 291 307 308 293 292 289 292 296 295 298 296 295 292 289 287 285 283 284 286 294 292 287 290 288 282 284 291 293 291 288 288 282 281 286 284 284 294 300 298 299 299 300 300 302
299 299 307 305 288 288 293 293 295 295 296 295 293 294 293 289 285 286 288 293 295 292 289 292 287 281 283 287 291 290 290 292 290 291 285 282 285 296 293 295 298 298 299 300 300
299 293 298 300 299 293 290 291 291 298 296 297 296 296 293 292 290 288 289 294 296 295 299 296 289 285 281 285 290 287 290 291 291 285 285 286 289 293 293 293 294 296 299 299 300
302 295 298 289 293 294 294 294 291 291 297 298 293 293 293 288 287 288 290 291 296 298 297 293 285 286 287 289 288 291 292 291 290 291 286 288 288 292 296 294 294 297 298 299 299
298 297 299 294 296 295 294 293 293 295 296 293 292 295 293 291 288 286 290 291 291 295 293 293 285 286 286 292 291 291 293 294 293 291 290 291 290 297 294 294 295 297 299 299 299
304 302 300 295 294 292 293 293 293 295 297 298 297 295 294 294 298 298 298 296 295 295 290 289 287 286 286 294 292 289 293 294 290 291 290 287 294 294 292 294 293 296 299 299 300

GFSSW_sfc_thetae_003.txt.gz
Theta_e
321 319 319 319 319 319 319 319 320 321 324 326 329 330 330 329 328 320 311 316 319 327 325 314 312 313 311 307 311 308 297 294 296 296 299 302 301 305 305 301 304 305 306 308 311
322 320 319 319 319 319 319 318 319 320 322 324 324 325 327 328 321 315 322 329 330 330 316 310 307 310 304 306 306 305 298 298 301 301 300 303 302 303 301 302 302 303 307 312 318
323 321 320 319 319 319 319 319 319 320 321 323 323 325 325 325 312 312 329 332 332 328 319 316 313 309 302 304 304 305 300 304 304 306 306 303 301 304 302 299 303 304 305 308 315
325 323 321 320 318 319 319 319 319 319 320 321 322 323 326 320 297 311 325 327 331 325 318 314 308 301 299 300 304 299 304 306 307 309 307 304 305 302 302 302 306 306 307 306 312
326 324 322 320 319 319 318 318 318 319 318 320 322 323 316 307 305 314 323 324 319 321 315 311 304 301 297 299 301 300 302 305 308 309 309 310 306 304 304 306 308 307 307 307 308
326 324 323 321 320 319 318 318 318 318 319 319 321 320 308 295 310 311 310 312 313 313 312 312 308 307 302 300 298 301 302 303 306 306 306 306 307 305 304 306 305 306 307 307 307
325 325 324 322 320 319 319 319 319 319 318 319 320 314 305 300 309 309 310 308 309 312 309 311 311 306 306 300 303 302 297 300 302 303 303 305 302 302 306 306 304 304 305 307 307
324 325 323 322 321 320 319 319 320 319 319 319 319 310 298 311 310 309 309 306 307 308 307 307 310 307 305 306 301 297 295 290 298 302 304 305 295 303 307 305 303 303 303 304 306
323 323 323 322 321 320 320 319 318 317 317 318 308 302 295 312 307 308 308 304 303 304 305 309 307 302 301 297 293 294 287 288 294 302 302 301 297 303 307 306 302 302 302 304 304
321 322 321 321 320 320 319 318 317 315 314 312 309 299 301 299 305 307 307 307 301 301 300 300 300 296 295 294 284 286 287 291 289 296 300 298 297 301 304 303 303 303 303 301 302
319 320 321 321 320 319 315 305 298 297 305 297 298 298 300 305 307 305 306 303 301 297 290 294 291 289 292 292 294 291 290 290 293 297 294 294 295 298 302 303 303 300 303 301 300
316 319 320 320 320 319 308 298 298 299 292 301 301 301 303 305 298 302 306 297 295 289 291 289 285 291 292 292 290 290 290 289 293 296 295 293 292 297 299 301 303 304 304 301 299
315 318 319 320 319 313 305 303 306 303 291 295 299 298 300 302 298 298 302 297 292 289 289 286 288 294 291 290 289 288 286 288 288 292 294 291 289 292 297 301 304 305 304 303 301
314 314 318 319 310 309 304 307 306 305 282 286 293 298 300 302 296 304 303 297 292 288 290 290 293 290 288 287 289 284 291 291 289 286 281 291 281 290 294 296 301 303 300 300 300
312 314 318 316 306 303 304 307 306 299 268 289 292 304 303 296 299 297 303 299 291 289 290 286 288 287 286 288 290 287 292 290 290 287 285 286 283 285 294 293 296 299 299 299 301
311 313 317 309 307 306 308 308 303 281 270 287 294 293 295 296 297 299 298 302 299 292 292 288 293 291 289 291 291 292 289 288 288 285 279 283 283 283 288 293 295 298 299 299 301
310 312 312 310 302 308 309 301 283 276 289 287 289 292 291 291 293 294 293 291 288 284 283 289 288 290 293 287 290 289 285 279 278 277 276 285 283 285 291 295 297 298 298 297 300
310 310 313 310 310 309 304 291 274 283 284 291 290 290 287 290 290 291 291 287 292 287 285 280 277 288 291 288 286 286 285 278 273 273 275 284 280 286 295 298 299 301 298 298 299
308 306 306 309 310 308 296 279 279 283 290 288 289 286 286 290 289 290 290 287 288 290 282 278 279 289 291 292 291 286 283 287 281 283 280 281 286 293 297 298 299 297 297 297 299
304 298 304 310 310 304 290 282 284 292 292 291 284 288 284 286 286 287 286 288 289 291 292 286 280 287 290 292 291 287 290 281 282 274 274 278 282 285 291 294 297 295 296 298 300
299 293 305 310 307 297 285 282 288 295 295 291 288 288 287 285 286 284 284 287 291 290 292 289 283 282 288 287 285 286 284 285 283 280 273 274 280 291 292 295 293 294 296 298 300
296 288 306 308 292 293 287 289 294 293 296 295 293 292 289 286 284 282 283 287 292 292 288 290 287 280 283 290 292 290 285 285 280 274 280 281 282 295 294 293 295 296 299 301 302
294 297 306 303 286 287 292 292 294 294 294 294 292 294 294 288 284 285 286 292 294 292 289 291 286 279 283 287 290 288 287 287 286 286 279 276 280 296 297 295 298 298 299 300 300
297 289 296 298 298 290 289 289 290 298 295 297 295 295 292 289 290 287 287 293 294 294 297 295 288 284 279 284 288 284 287 288 286 281 282 284 287 292 294 295 295 295 298 298 299
298 293 293 288 291 291 292 293 290 290 297 297 294 294 292 288 288 286 290 291 295 297 294 292 284 286 287 288 289 288 288 288 286 286 282 286 287 291 294 296 295 296 297 297 298
296 295 295 292 295 292 292 291 292 292 294 293 292 294 294 290 289 285 289 290 290 295 292 294 285 286 285 288 287 286 288 291 289 290 289 290 289 296 298 295 293 296 297 297 298
299 303 298 293 294 291 291 292 293 296 297 297 295 294 293 295 296 296 295 296 296 294 291 288 286 285 283 290 288 283 287 290 291 293 292 287 293 297 295 293 293 295 298 298 298

GFSSW_sfc_thetae_006.txt.gz
Theta_e
325 323 321 320 319 319 319 319 319 320 321 324 326 330 330 329 327 320 310 316 318 327 325 313 312 312 309 306 309 306 296 293 294 295 297 301 299 303 303 300 303 304 303 307 309
326 325 322 320 319 319 319 319 319 320 321 323 325 326 328 328 320 316 322 329 329 329 316 309 306 308 303 304 305 304 296 296 301 299 299 301 302 301 301 301 301 303 306 310 315
325 325 323 321 319 318 319 319 319 320 321 323 323 325 325 325 312 312 328 332 331 330 318 314 311 307 300 302 303 302 298 302 303 304 305 303 301 303 300 300 303 303 305 307 314
324 325 324 322 320 318 318 318 319 320 320 321 322 323 325 320 298 311 325 326 331 326 318 313 306 299 298 298 303 296 303 305 306 308 306 303 305 302 301 302 305 305 305 306 310
324 324 324 323 321 319 318 318 318 319 318 320 322 322 317 308 308 315 322 320 321 320 316 312 304 300 296 297 299 298 300 304 306 306 307 308 306 305 305 307 308 308 306 306 306
323 324 324 323 321 320 319 318 318 318 319 319 321 319 307 295 308 310 311 311 315 317 313 311 307 306 300 299 297 300 301 301 303 304 305 304 304 304 307 307 305 305 305 306 305
323 323 324 323 322 320 319 318 318 318 319 318 319 313 304 300 308 308 309 306 308 311 309 312 311 305 304 299 302 301 296 298 299 301 301 304 300 301 307 307 305 304 304 305 306
319 321 322 322 322 321 320 319 319 319 319 318 318 309 297 310 309 308 307 305 306 309 307 311 312 306 302 303 300 296 294 288 295 299 301 302 293 300 304 305 305 307 303 303 305
316 317 321 321 321 321 320 319 318 316 317 317 306 301 294 310 306 307 307 303 303 304 305 309 304 298 298 293 289 292 284 287 291 298 299 299 293 301 304 304 303 302 301 302 303
313 314 317 320 321 320 320 318 317 315 312 311 308 297 300 299 304 306 307 306 301 301 300 299 297 292 294 289 280 283 286 288 290 295 296 295 296 300 301 302 301 301 301 301 302
312 314 314 318 320 319 315 308 301 300 304 296 297 296 300 304 307 304 305 302 300 296 290 294 289 288 290 291 291 288 287 287 291 296 294 291 292 295 297 299 299 302 301 303 302
310 311 315 315 320 319 310 301 298 299 292 300 300 300 303 304 298 301 305 297 295 288 290 290 286 290 293 292 291 291 289 288 290 294 293 291 290 294 296 298 299 300 302 302 303
309 310 313 314 319 313 306 301 305 303 290 293 299 298 299 301 296 297 301 296 291 288 290 285 287 292 291 289 287 286 285 285 285 290 291 288 286 289 294 297 299 300 301 304 305
309 309 311 313 312 308 303 306 305 301 277 285 292 297 299 300 294 303 302 297 292 288 289 288 292 290 287 287 288 283 289 289 288 284 278 287 277 285 288 292 295 298 299 302 303
307 308 310 311 308 303 306 306 305 294 267 288 292 303 301 295 297 296 302 299 289 288 288 284 287 287 286 287 289 286 291 289 288 285 282 284 281 281 287 288 293 296 298 300 303
307 308 310 307 309 307 308 308 301 277 268 286 293 294 293 294 297 298 298 301 299 292 291 287 292 290 288 290 291 291 287 287 286 286 278 281 281 281 283 286 292 295 297 300 300
308 309 309 307 303 309 309 300 281 273 288 286 288 293 292 291 293 294 292 291 288 284 283 289 289 292 293 286 289 289 285 277 277 277 275 282 280 283 287 290 292 294 296 297 298
308 309 308 307 310 310 304 288 273 282 283 291 290 290 287 291 291 292 291 288 292 290 285 279 275 288 291 288 285 285 284 278 271 275 274 282 278 282 291 294 295 296 298 296 296
308 305 304 306 310 308 295 282 280 283 289 288 289 285 286 289 289 289 289 288 290 291 284 281 278 288 290 291 291 287 282 286 281 281 277 278 282 289 294 294 295 294 295 295 296
302 300 300 306 310 303 290 283 284 291 291 290 283 287 283 285 285 286 286 287 290 292 292 286 280 286 289 291 291 289 290 281 281 273 270 276 278 280 288 290 293 294 295 295 297
299 293 303 308 307 295 284 283 287 294 294 290 287 286 287 286 287 286 283 286 290 289 291 288 285 281 288 285 284 286 284 284 284 281 271 271 276 287 289 291 293 294 296 296 297
296 288 306 308 290 291 285 287 293 293 295 295 292 291 288 286 284 282 282 286 291 291 287 290 287 280 282 288 291 288 285 284 278 273 277 273 278 292 293 293 294 296 295 295 297
292 296 306 303 286 287 289 290 292 293 293 293 291 293 294 289 283 284 286 291 293 291 288 290 286 279 280 285 289 286 287 286 285 284 276 273 278 290 293 295 296 295 295 297 298
293 289 295 297 296 290 288 288 288 295 294 296 294 293 291 290 288 285 286 291 293 293 296 294 288 283 278 283 286 284 286 287 285 280 280 280 283 287 291 293 296 296 295 297 298
297 290 292 285 290 291 292 290 288 289 295 296 294 293 292 289 289 287 288 289 293 296 295 292 284 286 286 287 287 287 287 286 284 284 280 283 284 289 291 293 296 298 297 297 298
294 292 294 291 293 289 289 289 289 291 294 292 291 293 293 291 290 285 289 289 289 292 291 293 284 286 284 288 287 285 288 289 288 287 286 286 285 293 295 296 297 295 296 297 298
297 299 295 293 292 288 288 289 290 295 295 296 295 294 293 295 297 297 297 295 295 293 290 288 285 285 281 288 288 282 286 287 289 290 288 284 288 293 294 295 293 294 297 298 298

GFSSW_sfc_thetae_009.txt.gz
Theta_e
326 326 326 323 321 319 319 318 319 319 320 321 324 327 330 330 327 320 311 317 319 328 325 316 314 313 313 310 313 309 301 297 298 297 300 305 304 308 308 306 308 310 309 313 317
325 325 326 325 322 320 319 318 319 319 320 321 324 326 327 328 320 315 322 328 329 328 317 311 308 310 306 307 308 307 301 300 303 303 302 305 305 306 306 306 307 309 312 314 320
324 324 325 325 323 320 318 318 319 319 320 321 323 324 325 325 313 313 328 332 331 330 319 316 313 309 304 307 305 305 300 304 305 306 307 306 305 308 305 304 307 308 309 311 317
324 324 325 325 324 321 318 317 318 319 320 320 321 323 324 320 298 311 326 327 333 325 319 313 308 303 301 300 305 301 305 306 307 309 308 306 308 307 305 308 311 309 310 310 311
320 323 323 324 324 322 319 317 318 318 319 318 320 321 318 309 309 316 320 318 322 320 316 312 306 302 298 300 302 301 302 305 307 307 307 308 307 307 308 310 312 314 313 311 311
317 320 321 322 324 323 321 319 318 318 319 318 320 318 308 299 309 310 312 312 319 320 316 313 309 307 302 301 300 301 302 302 304 304 306 304 305 306 308 312 311 310 310 310 310
314 317 318 321 322 323 320 319 318 318 319 318 319 313 304 300 309 309 310 308 311 316 313 314 312 307 306 301 304 302 298 300 300 302 302 305 300 301 309 310 308 309 310 311 311
312 314 316 317 321 322 321 319 318 319 319 318 318 308 298 310 310 309 308 306 308 312 311 314 314 308 305 304 300 297 297 291 297 300 302 303 292 302 306 306 306 308 307 309 311
310 311 314 315 317 320 321 320 319 318 317 318 307 301 294 310 306 308 307 303 305 306 307 310 306 300 301 295 291 293 286 289 293 300 300 300 295 301 306 304 304 305 307 307 308
309 310 312 313 315 319 320 319 318 314 311 310 308 298 300 298 305 306 308 305 302 302 301 301 299 294 295 292 282 285 287 289 289 295 296 295 294 299 303 303 304 304 305 305 306
308 309 311 312 315 317 317 310 302 300 303 296 296 297 300 304 307 304 306 303 301 298 292 296 291 287 290 292 291 291 289 288 291 295 293 292 293 296 299 299 299 301 303 304 306
308 309 310 310 312 315 313 302 299 300 292 301 300 300 303 304 297 301 305 297 295 290 292 291 287 292 293 292 291 290 288 288 291 294 293 291 290 294 296 297 299 300 301 304 306
307 308 309 309 311 311 307 303 304 302 290 293 299 298 299 302 297 298 301 297 292 289 290 287 289 293 291 290 289 289 287 287 287 290 292 289 286 289 292 295 298 300 301 303 303
307 306 307 308 305 309 304 307 305 300 278 285 291 296 299 300 294 303 303 298 293 289 291 289 293 291 288 287 289 284 290 289 288 286 280 288 278 286 291 292 294 296 298 300 302
305 306 307 308 303 304 306 307 302 295 268 288 292 303 300 295 295 296 303 298 289 289 289 286 287 287 287 288 290 286 291 289 288 286 284 285 281 284 288 288 292 295 297 299 302
305 307 307 305 305 305 309 307 299 279 268 286 293 294 292 294 296 297 298 302 298 291 292 288 292 290 289 291 291 292 289 288 287 286 279 283 282 282 286 288 291 294 296 299 303
306 307 305 306 298 309 309 300 282 272 287 286 288 293 292 290 292 294 292 290 288 283 283 288 289 292 292 287 290 289 286 278 277 277 276 284 282 284 289 292 293 294 296 298 301
305 307 306 306 307 306 304 289 276 282 283 291 290 292 288 290 291 292 290 287 292 289 284 276 276 288 292 289 285 286 285 279 273 274 277 282 279 284 291 294 295 296 297 297 300
307 301 302 304 307 303 294 282 280 283 289 288 289 286 286 289 290 290 289 288 291 291 284 280 280 288 290 291 290 286 282 288 281 282 278 280 283 288 291 293 295 296 298 298 298
300 300 300 306 307 300 288 284 283 291 291 290 284 287 283 286 286 288 287 288 289 293 294 287 279 286 289 291 291 289 290 281 282 274 273 277 279 281 286 289 294 294 297 299 298
298 293 302 307 304 294 284 283 287 293 293 289 287 285 285 285 286 286 284 286 290 289 293 290 285 282 289 286 284 286 284 285 284 282 275 274 278 286 287 292 293 295 298 299 298
294 288 302 306 288 287 286 287 294 291 295 294 292 290 287 287 286 286 283 285 291 291 287 289 286 280 281 288 291 289 286 285 279 276 279 277 278 290 292 295 294 295 297 299 299
291 294 304 301 285 286 289 290 293 292 293 293 291 293 292 287 284 285 285 291 292 290 287 290 285 277 278 285 288 286 287 287 286 284 278 275 278 290 290 293 295 297 297 299 298
293 288 294 297 295 288 287 287 288 295 294 295 293 293 291 289 289 285 286 291 292 292 296 294 287 280 279 283 286 284 285 287 285 280 280 280 282 287 289 292 294 295 298 299 298
296 290 292 286 289 290 290 289 288 288 293 295 292 293 290 288 289 287 288 289 292 294 294 291 283 285 286 287 286 286 286 286 284 284 280 283 283 287 290 292 294 296 297 298 298
290 292 292 290 293 290 288 286 287 290 292 291 289 293 294 290 290 286 288 288 288 291 292 293 285 286 284 288 287 284 287 287 287 286 285 285 285 292 293 294 295 296 298 298 298
296 298 294 292 290 287 285 290 289 293 294 296 294 294 293 294 297 297 298 297 294 291 290 289 286 284 281 288 287 284 286 287 288 289 287 283 288 293 292 293 295 297 296 297 299

GFSSW_sfc_thetae_012.txt.gz
Theta_e
324 325 326 326 325 322 320 319 318 319 320 321 322 325 328 330 328 323 315 319 322 328 326 320 317 316 317 314 317 317 304 299 301 302 303 309 307 312 313 311 313 314 314 317 322
322 325 325 325 325 323 321 320 318 319 320 320 322 324 327 328 322 316 323 327 329 329 321 315 312 313 310 311 312 310 303 302 307 308 306 308 309 310 310 310 311 314 317 318 321
319 321 323 325 325 324 322 320 319 320 320 321 321 323 325 326 314 314 327 330 332 330 322 318 315 312 307 310 309 308 303 307 308 310 310 308 309 312 309 307 312 312 315 317 318
315 318 321 322 324 324 322 320 318 319 319 320 320 322 323 320 300 317 326 329 333 328 321 317 312 307 304 303 308 302 307 308 308 311 311 309 312 310 310 310 315 316 316 318 319
312 314 318 320 321 323 323 321 318 319 319 318 320 321 319 311 309 318 319 321 326 325 318 314 309 307 303 304 305 304 305 307 309 310 310 310 308 309 310 314 317 318 318 319 319
310 313 314 317 318 322 323 322 319 319 319 319 319 318 311 303 313 315 314 319 322 322 317 315 311 310 304 303 303 304 305 306 307 307 307 305 306 308 309 313 313 314 315 317 319
309 311 312 313 316 318 321 321 320 319 319 319 319 315 307 304 313 314 313 311 317 321 315 316 314 310 309 303 307 305 300 303 304 304 304 307 302 303 309 311 310 311 313 314 316
307 310 310 311 315 317 320 321 320 320 319 319 318 312 302 312 316 312 313 312 315 317 319 319 318 310 305 307 303 299 300 295 301 303 304 303 295 303 310 310 309 310 311 312 314
308 308 309 310 313 314 317 321 320 319 319 319 310 305 299 311 307 311 312 310 311 311 316 317 311 304 304 297 295 296 291 293 296 302 302 302 298 304 308 309 308 309 311 312 313
307 308 308 310 311 313 314 321 319 317 315 312 309 301 304 301 307 309 311 310 307 308 305 304 304 298 298 295 288 290 291 293 292 298 299 298 298 303 306 305 305 307 310 312 312
307 307 308 309 310 311 311 313 302 302 306 300 300 299 302 306 309 306 308 306 306 304 297 300 295 291 294 296 296 293 292 292 295 299 296 295 296 299 302 303 303 304 306 308 310
306 307 308 308 309 310 308 303 303 306 297 303 303 303 305 306 299 303 308 300 299 294 298 294 290 296 296 296 294 293 291 291 295 297 295 295 294 297 299 300 301 303 304 306 308
306 306 307 308 308 306 303 304 308 306 296 298 302 300 301 304 299 300 304 301 297 294 294 292 292 295 294 293 291 292 291 291 290 294 295 293 291 295 298 300 300 301 303 304 305
306 306 306 307 303 304 301 310 308 304 289 289 295 299 301 303 297 305 306 301 296 293 294 293 297 292 292 291 292 288 293 292 290 288 284 291 284 292 296 296 298 300 302 303 305
306 306 306 306 302 299 304 309 304 301 278 291 293 305 302 297 298 298 306 300 293 293 293 290 291 291 288 290 293 289 293 291 291 289 286 288 282 289 294 293 296 299 302 304 305
305 306 306 304 304 304 310 307 301 284 278 287 294 294 293 295 297 299 299 302 300 294 294 293 295 294 293 294 294 294 291 290 289 287 280 286 285 286 290 294 296 298 301 303 304
306 306 304 305 298 309 308 298 283 282 289 286 288 292 291 290 293 295 293 291 290 285 285 290 291 294 294 290 293 292 287 282 278 278 279 288 285 287 293 295 297 298 300 302 304
306 307 306 306 307 308 301 288 281 286 287 292 292 291 289 291 292 292 291 288 293 291 286 284 283 291 294 291 289 288 288 282 275 278 281 287 282 287 295 298 299 300 301 305 306
307 303 303 305 308 304 292 284 285 287 291 289 291 287 288 290 291 290 289 289 291 292 286 283 283 292 293 294 293 287 283 291 283 285 280 283 288 292 295 295 297 298 302 303 305
301 298 301 306 306 300 288 287 287 293 293 293 286 289 285 287 288 288 289 293 292 295 295 289 283 289 291 294 294 291 292 283 284 275 275 281 283 284 290 292 295 299 300 301 304
298 293 303 306 303 291 286 287 291 295 295 291 289 288 289 288 289 288 289 291 294 294 296 292 287 286 289 287 287 287 285 286 286 284 277 276 282 292 291 293 294 298 299 301 304
295 287 303 305 288 289 288 289 295 294 298 295 294 292 290 290 288 288 288 290 295 295 290 293 288 282 285 292 294 292 288 287 281 279 283 281 282 294 294 296 299 298 299 302 304
291 293 303 303 287 288 290 292 295 294 295 294 293 294 294 290 287 290 290 294 295 294 292 293 286 281 285 288 291 287 289 289 288 286 281 279 282 293 294 294 296 298 299 301 303
292 288 293 296 297 291 290 290 291 298 296 296 294 296 293 290 292 289 289 293 295 295 296 295 289 285 282 286 290 286 287 288 286 282 283 283 285 290 293 293 295 297 298 300 302
296 291 293 288 291 293 293 293 291 291 296 298 293 293 292 289 289 289 291 291 293 295 295 293 284 287 288 289 288 287 287 288 284 286 282 286 286 290 293 294 296 298 298 299 301
291 292 296 293 294 293 293 290 290 293 294 292 293 294 294 291 292 289 292 292 291 294 293 294 286 287 284 289 289 286 289 288 288 288 288 288 287 295 296 297 297 298 297 298 301
297 298 297 294 292 291 292 291 292 295 296 297 296 294 293 294 298 299 299 297 295 293 292 290 287 285 282 289 289 285 288 289 289 290 289 285 290 294 292 293 294 295 297 300 301

GFSSW_sfc_thetae_015.txt.gz
Theta_e
318 321 323 324 325 325 324 322 321 319 319 320 321 322 325 328 329 323 314 321 324 329 327 321 319 318 318 315 316 318 305 300 302 302 304 310 308 313 314 311 313 315 315 319 324
315 317 319 322 324 324 324 323 322 320 319 320 321 322 325 327 320 315 323 325 327 329 321 316 312 314 311 311 312 309 302 302 307 307 307 309 309 310 310 310 310 313 318 319 322
312 313 316 319 322 323 324 323 322 320 320 320 321 322 324 325 313 314 331 329 330 329 323 318 316 312 307 310 309 308 302 306 307 310 311 309 309 312 309 308 311 311 315 318 319
311 311 313 315 318 320 322 324 322 320 320 320 320 321 323 321 301 320 326 329 332 328 321 317 313 308 305 304 308 303 306 307 309 310 310 308 310 308 310 310 315 316 318 318 318
310 310 311 313 315 317 320 322 323 320 320 320 319 321 318 311 310 321 321 323 328 325 318 314 310 309 304 306 307 304 306 307 308 309 309 310 308 309 310 315 316 316 317 317 318
310 309 309 312 312 314 317 321 323 320 320 320 319 321 313 304 318 319 318 321 321 322 318 316 312 311 307 306 305 307 306 307 308 308 308 306 306 307 309 313 313 314 315 316 318
310 310 308 309 310 312 315 318 321 320 319 320 319 317 309 307 315 317 318 318 322 322 317 318 316 310 309 304 308 307 302 305 305 306 305 307 302 303 309 311 309 311 312 314 315
309 309 309 309 310 310 313 315 317 320 319 320 319 313 304 314 317 312 315 317 321 323 320 318 316 311 307 308 305 301 302 297 303 304 305 304 296 305 309 310 309 310 311 312 313
308 308 308 308 309 310 312 313 315 320 319 319 312 309 301 313 308 313 314 313 316 317 319 319 314 306 305 299 296 298 293 296 299 304 303 302 299 306 309 308 308 309 311 312 313
308 307 307 308 309 310 311 312 313 318 316 314 311 302 306 303 309 311 313 314 310 311 309 307 304 299 300 297 290 293 293 295 295 299 301 299 299 303 306 306 307 308 309 310 312
307 306 307 307 308 308 309 304 305 303 307 302 302 301 304 309 311 308 311 310 309 305 297 301 295 293 297 298 298 296 294 293 297 300 298 296 297 300 303 304 304 305 307 308 309
307 307 307 307 308 308 307 296 299 305 297 305 304 304 307 308 301 305 310 303 301 296 299 295 291 298 300 298 296 295 293 292 296 298 296 295 295 299 301 302 303 303 304 305 307
307 306 307 307 307 306 303 298 305 306 297 299 303 302 303 306 301 301 305 302 299 296 295 293 295 297 297 295 293 294 292 292 292 296 296 294 292 296 301 303 303 304 305 305 305
306 306 306 306 302 304 301 305 307 306 289 291 296 300 303 304 298 307 307 302 298 293 295 295 298 294 294 292 294 290 296 294 292 290 286 293 285 292 296 298 300 302 303 304 304
305 306 306 306 300 298 303 308 306 301 280 293 295 306 303 298 300 300 307 302 295 295 295 292 292 293 291 292 295 291 294 292 292 289 288 288 285 290 295 294 297 300 303 304 306
305 306 305 303 303 303 307 307 302 285 280 288 294 294 294 297 297 300 300 303 301 295 295 294 297 295 295 295 296 295 292 290 290 286 280 287 287 288 291 294 296 299 301 303 305
306 307 306 306 295 307 307 301 284 283 291 286 288 293 292 290 293 294 293 292 290 285 286 291 292 295 296 291 294 292 287 283 281 279 280 289 286 289 295 297 297 298 300 302 304
308 307 306 304 306 309 300 291 280 289 288 292 292 291 288 291 291 292 291 289 293 292 289 284 285 292 295 292 290 288 288 283 277 279 283 289 283 288 297 299 299 300 301 302 304
307 305 302 305 308 305 295 282 286 289 292 290 290 287 288 290 292 292 290 290 293 294 287 287 285 294 295 295 294 289 284 291 284 285 281 284 288 293 296 296 297 298 299 300 303
301 299 299 307 306 301 291 286 288 294 295 293 286 289 285 287 289 289 289 294 292 296 297 291 284 291 293 295 295 292 293 283 284 276 277 283 285 286 291 293 296 297 298 300 304
300 292 301 307 306 295 286 288 292 297 297 292 290 289 289 288 290 289 290 294 296 295 296 293 289 287 290 288 288 288 286 287 287 285 279 278 283 293 292 294 295 296 299 301 302
294 287 303 306 291 292 289 291 296 294 298 295 295 293 292 292 290 291 291 292 297 297 291 294 289 284 287 293 295 293 289 288 282 281 283 283 282 295 295 296 297 297 300 300 301
292 292 303 302 288 289 290 293 295 294 296 295 293 295 295 292 288 292 292 296 296 296 293 294 288 282 285 290 293 289 291 291 289 288 282 280 283 294 295 295 296 296 298 300 301
294 287 293 298 299 293 291 292 292 299 297 297 295 296 294 292 294 291 291 294 296 296 297 297 290 286 283 288 291 286 289 290 288 283 284 284 286 291 293 294 296 297 299 299 300
297 292 295 289 293 294 295 294 292 291 297 298 294 294 293 289 290 290 293 294 295 297 295 293 286 288 289 290 290 289 288 289 285 287 283 286 287 291 294 295 296 298 299 299 300
292 292 297 295 296 293 293 293 292 294 295 293 293 295 295 292 293 290 293 293 292 295 293 294 287 288 284 289 290 288 291 291 290 290 288 288 287 295 297 297 297 298 299 299 299
299 299 296 294 295 293 293 294 293 296 297 298 297 296 294 295 298 299 300 298 297 294 292 291 287 285 283 290 289 286 290 291 291 292 290 286 291 296 294 295 295 295 298 297 299

GFSSW_sfc_thetae_018.txt.gz
Theta_e
314 314 316 319 321 323 324 325 324 323 321 319 321 321 323 325 327 323 315 318 324 329 327 324 318 316 316 312 314 314 301 297 299 300 302 307 304 308 309 306 308 308 308 316 326
312 313 313 315 317 320 322 324 325 323 322 320 321 321 323 326 320 316 325 327 327 331 318 315 311 313 308 309 310 305 300 301 306 305 303 307 305 305 304 306 305 306 312 317 319
312 312 311 312 314 317 319 321 324 324 322 320 321 322 323 323 313 310 329 328 329 328 321 318 315 311 306 307 307 305 299 304 304 306 308 307 307 308 305 303 306 305 309 313 314
312 312 311 311 312 314 316 320 322 323 322 321 320 321 323 319 298 319 329 331 330 326 320 315 311 306 303 301 306 300 305 305 306 308 307 305 309 305 306 305 310 310 312 311 313
312 311 311 311 310 311 314 316 319 323 322 320 320 320 317 309 310 323 326 327 326 324 317 312 307 306 301 303 303 301 303 305 306 306 306 308 305 305 306 310 311 312 312 311 311
312 311 311 310 310 310 311 314 317 321 321 320 320 320 311 302 319 319 319 320 321 321 317 314 309 310 306 304 303 305 305 305 306 305 306 304 304 305 305 309 309 310 310 310 311
312 311 309 309 310 310 310 312 316 318 321 320 320 316 307 305 317 319 318 317 320 321 315 317 316 311 309 304 308 305 300 303 303 304 303 305 300 301 307 308 307 307 308 310 311
310 310 310 309 308 309 310 311 314 314 319 320 320 313 302 315 316 312 316 316 319 322 320 319 317 311 307 307 304 300 299 293 301 303 304 302 293 302 306 306 305 306 306 307 309
309 309 308 308 308 308 310 311 313 313 318 319 312 308 300 313 309 313 313 312 316 318 319 319 314 307 305 298 294 295 289 292 296 303 301 299 294 302 306 304 303 304 304 307 307
308 308 308 308 308 308 309 310 311 312 317 315 311 302 304 302 308 310 312 314 312 312 310 310 305 298 298 294 285 289 290 293 292 297 298 296 296 300 302 302 301 302 304 304 306
308 308 308 308 308 308 307 304 301 302 306 300 300 301 302 309 311 308 310 310 308 307 298 302 295 291 295 296 297 295 292 290 294 298 294 293 294 296 299 299 299 301 302 304 305
308 307 307 307 307 308 305 297 297 300 296 305 304 304 307 308 301 305 310 303 301 296 299 295 290 297 299 299 296 294 291 290 294 297 294 292 291 295 297 298 299 299 300 301 303
307 306 306 307 307 305 301 299 304 303 296 298 303 302 303 305 301 301 305 303 298 295 295 292 294 299 296 295 292 291 290 290 290 294 294 291 289 291 297 298 300 301 302 302 301
306 306 306 306 301 301 298 305 305 304 287 292 295 301 303 305 298 306 307 303 299 294 296 294 298 295 293 293 294 288 294 293 292 287 281 291 279 288 291 293 297 297 297 298 299
306 305 306 304 299 296 301 306 305 298 279 293 295 307 304 299 299 300 307 302 295 295 295 292 293 292 290 292 294 290 294 291 291 286 283 284 280 284 291 289 292 293 296 298 299
307 307 308 304 301 301 305 306 298 282 278 289 294 294 295 297 298 300 300 303 302 295 296 295 297 295 294 295 295 295 292 290 287 284 273 282 282 282 286 290 291 291 294 295 297
307 308 306 306 297 305 306 298 282 279 290 286 289 293 292 292 294 295 293 292 289 285 286 291 291 294 296 290 293 293 287 277 275 277 274 286 282 284 290 293 293 291 292 295 296
308 308 306 304 305 306 301 288 277 286 287 292 292 292 288 292 292 292 291 288 293 290 286 281 283 291 294 291 289 289 287 278 273 273 277 285 279 284 292 293 295 295 295 295 296
309 305 303 305 307 304 295 281 282 288 291 289 291 287 287 290 291 290 289 289 291 293 285 284 284 294 294 294 293 288 282 288 282 281 274 279 283 290 293 293 294 294 295 294 295
303 300 300 307 307 301 291 285 287 294 294 292 285 289 284 286 288 289 288 292 291 294 295 291 283 291 293 294 293 290 291 282 283 269 272 278 280 282 288 289 292 292 292 294 296
301 293 301 307 306 296 285 286 292 296 296 293 289 288 288 287 289 288 288 293 294 294 295 292 286 286 289 287 286 287 285 286 284 282 274 274 278 288 290 291 290 291 294 296 297
297 287 302 306 290 291 288 290 296 294 299 296 296 293 289 289 288 288 289 292 296 296 290 293 289 279 284 291 293 291 287 286 280 276 280 278 280 293 293 291 293 292 293 294 296
293 293 303 301 286 288 291 293 295 295 296 295 293 295 294 290 288 291 292 294 296 294 291 293 285 277 280 287 290 287 289 289 288 286 280 277 280 293 295 295 294 295 296 297 297
295 287 295 297 297 290 290 291 292 299 297 297 295 296 293 291 293 290 290 294 295 296 299 297 290 281 277 281 287 284 287 289 287 282 282 283 284 290 293 294 295 296 297 298 299
298 292 295 290 292 293 295 294 291 291 297 298 294 294 292 289 290 289 292 292 294 297 295 292 284 284 287 288 288 286 286 288 286 287 283 285 286 290 293 295 296 297 298 298 297
293 292 295 295 295 294 294 293 292 294 295 293 293 294 294 291 292 289 292 292 291 293 291 293 285 287 284 287 287 285 288 289 290 290 290 290 289 296 298 296 295 295 295 295 297
299 300 295 295 293 291 292 293 294 297 297 298 297 295 294 295 298 297 297 297 296 293 291 290 287 284 280 288 287 283 288 292 292 293 292 288 292 296 295 295 295 296 296 297 298

GFSSW_sfc_thetae_021.txt.gz
Theta_e
313 313 313 313 314 317 320 322 323 325 324 323 321 320 321 322 324 321 312 318 321 331 327 322 317 315 313 308 310 308 296 293 296 297 299 304 302 305 306 304 305 305 305 319 328
313 313 313 313 312 313 316 319 321 323 325 323 321 321 321 324 318 314 323 329 330 329 320 313 311 311 304 305 306 301 296 297 303 302 300 304 304 303 302 303 301 302 312 318 324
313 313 313 312 312 312 312 316 318 321 324 323 321 321 322 322 311 311 330 330 332 329 320 316 313 309 303 304 302 301 296 303 305 305 304 305 304 307 302 299 303 303 306 312 316
313 313 313 313 311 311 310 311 315 318 322 323 321 321 322 317 297 318 328 332 330 325 318 314 310 303 300 299 303 298 302 304 305 306 304 302 306 304 303 302 308 307 308 309 309
313 313 312 312 311 311 310 311 311 316 320 323 321 321 316 308 307 323 328 329 325 322 315 312 306 302 298 299 300 298 300 304 304 304 303 305 303 302 303 307 308 309 310 307 309
311 311 311 311 311 310 310 309 310 314 318 321 321 321 311 300 317 321 321 323 322 320 316 313 307 306 302 301 299 301 302 302 304 303 303 302 301 301 303 306 305 306 306 306 308
310 311 310 310 310 309 309 310 310 313 315 319 321 315 306 304 316 316 318 317 320 319 314 316 315 309 305 301 304 303 298 300 301 303 301 303 298 299 304 305 304 304 303 306 307
310 309 309 309 309 308 309 310 310 312 314 317 320 312 301 314 312 314 316 315 316 320 318 319 316 310 305 304 302 298 297 291 299 302 303 301 291 301 304 302 303 305 305 304 307
309 309 309 308 308 308 308 309 310 312 314 315 313 308 298 314 308 310 310 312 315 319 318 319 315 307 305 297 293 293 286 289 294 301 300 298 293 301 303 302 300 302 303 304 306
308 308 308 308 308 308 308 309 309 310 310 315 312 301 304 302 309 311 310 311 312 313 311 310 306 299 298 294 284 286 286 289 289 296 297 295 293 298 300 299 297 298 300 300 303
308 308 308 308 308 308 305 300 295 299 305 300 299 300 303 308 311 308 309 310 310 306 299 304 295 292 295 293 294 292 289 288 291 296 293 291 291 294 297 296 297 298 298 300 302
307 307 307 307 307 308 303 294 297 297 289 305 303 304 307 308 301 305 309 302 302 297 298 295 291 295 298 298 296 292 289 287 291 295 292 290 290 294 296 297 298 298 297 297 299
306 307 307 307 306 302 299 298 304 301 288 299 304 302 303 306 300 300 305 302 297 296 295 290 293 298 296 294 291 288 287 287 288 291 290 288 286 289 293 296 297 298 300 299 299
306 306 306 305 299 299 296 304 304 301 283 291 297 301 303 304 298 306 307 302 299 294 295 294 297 295 293 292 292 285 292 291 290 285 280 288 277 284 289 291 294 295 296 298 299
307 308 308 308 298 294 300 304 303 296 276 291 295 307 303 299 299 300 307 302 294 295 295 291 294 293 289 291 293 289 293 290 289 284 280 281 278 281 287 287 290 291 293 295 296
308 308 309 305 301 300 301 304 298 281 276 289 295 295 295 297 298 300 301 304 301 296 295 293 295 294 293 294 293 294 289 288 286 281 271 279 280 278 283 287 288 290 291 293 295
308 309 306 305 297 303 304 297 280 275 290 287 290 293 293 292 293 296 294 292 288 284 286 292 290 293 294 289 291 289 283 271 271 274 272 283 280 282 288 291 291 291 292 293 294
309 308 305 305 305 302 299 286 275 287 285 292 292 292 288 291 291 293 291 288 291 288 281 278 277 289 292 289 286 286 284 274 272 271 276 284 278 283 291 293 293 294 292 293 294
308 300 301 303 305 302 293 279 280 287 291 290 290 286 287 291 290 290 290 288 289 290 281 278 282 292 292 293 292 286 281 286 278 278 271 277 282 287 290 291 291 291 291 291 292
296 294 298 305 305 300 290 283 285 293 294 293 284 288 284 287 286 288 288 290 290 292 292 290 282 290 292 293 292 288 289 277 275 267 271 276 277 281 285 287 290 290 290 293 294
295 291 300 306 304 293 284 285 291 295 296 292 287 287 287 286 287 286 286 290 292 292 292 291 285 284 291 286 285 285 282 284 282 278 271 272 277 285 287 288 288 289 291 291 295
295 286 300 304 287 289 285 287 295 295 298 296 294 290 287 288 287 286 285 290 294 295 289 293 287 278 282 289 291 288 285 284 278 273 277 274 279 292 292 290 292 295 297 299 298
289 293 301 297 283 287 291 293 296 294 295 295 292 293 292 287 285 288 290 292 295 294 289 292 283 274 280 286 288 286 287 288 287 285 278 276 279 291 292 293 296 296 298 299 298
294 282 289 293 292 291 290 291 291 297 296 296 294 293 290 290 291 288 288 293 294 295 299 296 287 278 276 279 286 282 286 287 286 281 280 281 283 288 291 294 297 299 299 299 299
295 287 292 282 287 289 292 292 290 291 296 296 292 292 291 287 288 287 289 290 293 297 293 292 280 282 285 287 286 285 285 287 284 286 282 285 286 290 294 296 298 298 297 297 298
292 291 293 289 292 289 291 289 291 292 294 291 291 293 293 290 291 288 290 289 288 290 289 291 278 285 278 286 286 283 286 288 288 288 288 288 288 296 299 298 297 297 296 296 297
298 299 295 291 288 286 287 291 293 295 295 297 295 293 293 295 296 295 297 296 294 290 288 289 284 280 275 286 284 281 285 288 292 293 292 287 292 298 297 296 293 293 295 297 298

GFSSW_sfc_thetae_024.txt.gz
Theta_e
314 313 314 313 313 313 313 315 318 320 323 324 324 322 321 321 322 318 310 316 320 330 328 321 316 314 312 306 308 305 294 292 295 295 297 302 301 305 305 301 302 303 310 320 327
314 314 314 313 314 312 312 311 314 317 320 322 324 322 321 322 316 310 320 327 329 329 321 314 311 310 303 304 304 300 293 296 301 301 299 302 302 303 302 301 300 302 313 324 325
314 314 313 314 313 312 312 311 311 313 316 319 323 322 322 321 310 308 326 330 332 329 320 318 313 308 302 302 301 299 295 301 303 305 303 302 303 305 301 299 301 300 313 317 317
314 313 313 313 312 312 310 311 311 312 313 317 320 322 322 316 294 314 327 332 332 325 318 313 309 303 300 299 303 296 301 303 304 305 303 301 305 302 302 303 306 306 306 307 311
312 311 312 312 311 311 311 310 311 310 312 315 318 322 315 305 305 318 328 331 325 320 314 310 305 302 297 299 300 296 298 302 304 304 302 303 301 302 302 306 307 307 308 307 307
312 311 311 311 310 310 310 309 310 310 310 314 317 321 309 298 315 320 322 322 321 317 313 312 308 306 300 299 298 300 300 300 302 302 302 301 301 300 301 305 304 305 305 305 307
310 310 310 309 309 309 309 309 310 310 311 313 316 316 305 302 314 318 322 319 321 319 313 314 313 306 303 300 304 302 297 299 300 301 300 302 298 297 303 304 302 303 303 305 305
309 309 309 309 309 308 309 309 309 310 311 313 316 313 300 313 313 314 316 314 320 320 317 317 315 308 304 303 300 297 296 290 298 300 301 300 292 299 303 301 301 302 302 303 306
309 308 309 308 308 308 308 309 309 310 311 312 309 307 296 315 309 311 312 311 314 317 318 318 314 306 301 295 291 292 285 289 293 299 299 297 292 300 304 301 298 299 300 302 304
308 308 308 308 308 308 308 309 309 308 307 309 311 300 302 302 309 309 311 312 312 313 311 310 306 300 296 292 283 286 286 288 288 294 295 292 294 298 299 299 298 297 298 298 301
307 307 308 308 307 308 304 298 293 295 301 298 300 299 301 308 311 308 309 311 310 307 298 303 296 293 296 295 292 293 291 287 290 295 292 290 290 293 296 294 294 297 297 297 300
306 306 306 307 307 307 301 292 295 296 290 297 303 304 306 308 301 305 309 304 303 296 298 296 292 297 300 299 295 292 287 286 290 293 291 289 289 293 295 296 297 298 299 298 299
307 307 307 307 305 302 297 296 304 301 288 295 304 302 303 306 300 301 305 302 300 296 295 292 294 299 297 294 291 287 286 286 287 290 289 287 287 288 292 294 296 299 299 300 299
308 308 308 308 300 300 295 303 304 301 282 291 296 301 303 304 297 305 308 302 299 294 295 294 295 294 292 291 291 285 290 290 288 285 279 286 277 283 288 290 292 292 293 295 297
308 308 308 309 299 295 299 303 301 296 274 291 296 307 303 298 299 300 307 303 294 295 295 291 292 291 290 291 293 288 292 289 287 282 279 280 277 281 285 286 288 290 291 294 295
310 309 308 302 301 301 302 302 296 282 274 288 295 295 295 297 297 301 300 303 302 296 295 291 295 294 292 293 293 293 288 286 284 280 271 278 279 278 281 285 287 289 290 292 294
309 308 305 305 297 302 302 295 280 275 288 287 290 293 293 291 294 296 294 292 289 287 287 291 290 292 294 288 291 288 282 271 270 268 272 280 278 280 286 289 288 290 291 291 291
308 307 306 305 302 301 300 284 274 286 287 293 292 292 289 291 293 293 292 288 292 287 285 280 277 288 292 289 286 285 283 273 271 270 274 281 277 282 289 291 290 290 290 291 292
305 300 301 302 303 303 292 279 279 285 292 290 291 286 286 289 291 291 290 289 289 289 282 278 281 291 291 292 290 285 278 285 277 276 269 276 280 286 288 288 290 290 290 291 293
294 296 298 306 305 299 288 284 285 291 294 292 283 287 283 285 286 288 288 290 289 291 290 286 279 289 290 292 291 287 288 276 272 265 269 275 276 280 284 285 289 289 289 291 293
295 290 298 305 303 293 283 284 291 296 296 292 286 286 287 287 286 285 286 289 291 291 291 288 283 283 289 285 284 284 280 281 280 277 271 273 276 284 285 286 288 289 291 292 296
291 281 297 301 287 290 286 288 294 294 296 294 291 288 286 287 285 284 284 287 293 293 288 290 285 274 282 288 289 287 284 283 274 272 275 274 277 289 287 288 291 294 295 297 298
287 288 298 295 280 288 289 292 295 293 293 293 290 291 290 287 284 286 288 292 294 293 289 290 281 272 279 285 287 285 286 286 284 284 274 275 278 289 289 293 295 297 300 301 301
289 281 288 292 292 289 287 289 289 296 294 294 291 292 289 287 289 288 287 292 294 295 298 295 284 277 275 277 283 280 284 286 284 277 278 279 283 288 290 293 296 299 300 299 296
290 286 290 282 286 286 289 290 289 290 295 294 291 291 289 287 287 286 288 289 292 297 295 291 278 279 284 285 285 284 284 285 280 284 279 283 285 288 292 295 297 297 297 298 298
289 290 293 289 289 288 289 288 290 291 292 291 290 293 292 289 289 287 289 287 287 289 290 289 277 285 282 284 285 282 285 286 286 287 287 286 285 293 296 299 298 295 295 294 297
296 298 294 289 287 285 286 289 291 293 294 295 293 293 292 294 295 294 293 293 291 288 286 286 282 281 276 284 283 279 283 286 288 290 287 286 291 296 295 295 294 294 291 290 294

GFSSW_sfc_thetae_027.txt.gz
Theta_e
316 316 316 315 315 313 313 312 312 313 316 318 321 324 323 321 321 315 309 314 318 328 328 320 318 315 311 306 307 303 293 291 292 293 295 300 299 303 303 300 302 302 311 317 324
315 316 316 315 314 314 313 311 313 311 313 315 318 321 322 322 314 307 316 325 327 328 321 314 309 310 304 304 303 299 293 295 300 299 297 300 300 301 302 300 299 302 314 322 324
314 314 314 314 313 313 312 312 310 310 312 314 316 319 322 320 306 305 323 326 329 328 321 318 312 308 302 301 301 299 294 300 302 304 303 301 301 303 300 299 299 299 306 313 320
312 313 312 313 313 312 312 311 311 310 310 311 314 317 319 315 293 312 326 328 330 324 317 313 309 302 299 298 302 296 300 302 303 305 302 299 302 300 302 302 305 305 306 306 310
312 311 311 311 311 310 311 310 311 310 310 311 312 315 315 304 303 316 326 329 324 322 315 310 304 302 298 299 300 296 298 302 303 303 301 302 300 300 300 305 306 305 307 306 306
311 311 310 310 310 309 309 310 310 310 310 310 311 315 310 296 312 316 320 322 321 317 312 310 306 305 300 298 298 299 300 300 301 301 301 300 300 300 300 304 304 303 304 304 304
310 310 309 309 309 309 309 309 310 310 310 310 311 311 306 301 313 314 322 320 320 317 311 312 311 304 302 299 302 301 296 297 299 300 299 300 297 296 302 303 302 302 302 303 304
310 309 309 309 309 309 309 309 309 310 309 310 312 309 300 313 312 310 318 318 320 319 316 316 315 308 302 302 299 296 295 290 296 299 300 299 291 298 302 299 300 301 302 302 303
309 308 309 309 309 308 308 309 309 310 310 310 306 306 298 316 307 310 313 312 316 317 317 318 311 304 300 294 290 291 285 288 292 298 298 296 291 298 302 300 299 300 300 300 301
309 308 307 307 308 308 308 308 309 307 305 306 307 299 303 301 308 309 311 315 312 312 310 308 304 296 294 290 284 286 286 287 288 292 294 291 291 297 300 298 297 297 298 298 300
308 307 306 306 307 307 303 297 291 292 298 294 298 299 301 308 311 308 309 311 311 306 300 304 297 293 293 293 291 291 288 287 289 294 291 289 289 292 295 293 293 294 296 298 299
308 307 308 307 307 306 300 291 293 295 288 298 299 303 305 308 300 305 312 304 302 297 299 297 292 299 300 299 297 294 288 286 289 292 290 288 288 292 294 295 297 297 298 299 298
308 308 308 308 306 302 296 294 303 299 289 293 301 301 302 305 299 301 306 303 300 296 295 293 295 300 299 296 294 289 286 285 286 289 287 286 285 287 291 292 294 297 298 299 298
310 309 308 308 301 300 295 303 304 298 282 290 295 301 303 303 297 306 308 302 299 294 295 294 296 297 295 293 291 284 289 290 287 284 279 286 277 283 288 288 289 290 291 293 295
310 309 309 307 298 295 298 302 301 294 274 290 296 307 303 296 298 300 307 303 296 295 294 291 292 293 291 291 294 290 291 288 286 281 278 279 277 281 283 285 287 288 289 290 292
309 308 307 301 300 301 302 301 295 280 275 287 295 295 294 296 297 301 300 303 303 296 294 292 294 294 291 292 292 293 287 284 282 279 271 277 278 279 281 283 285 287 289 289 290
308 308 304 303 296 303 301 293 280 275 287 286 290 293 293 292 295 296 294 292 290 287 286 291 289 293 294 289 291 288 282 272 270 269 272 279 278 281 285 287 287 288 288 290 291
307 305 304 301 301 301 297 286 276 284 287 293 293 292 288 292 293 293 290 288 290 289 287 284 281 288 291 288 286 284 283 274 270 270 274 280 277 282 287 287 288 289 288 291 292
305 298 299 301 303 301 291 279 279 284 292 290 291 286 287 291 292 291 290 288 289 287 282 281 280 290 291 291 290 284 277 283 276 274 270 276 279 284 287 288 288 289 290 291 292
294 294 296 304 302 295 285 285 287 291 294 290 282 287 284 286 287 288 288 291 290 291 290 286 279 288 290 291 290 286 287 277 272 266 269 273 275 278 282 284 288 288 289 290 292
292 289 298 302 300 289 283 285 291 295 294 289 285 285 286 285 286 285 286 288 291 290 290 287 283 284 288 285 284 284 280 280 279 276 270 271 276 283 283 285 287 289 293 294 295
289 281 296 298 285 290 287 290 294 293 294 293 290 287 285 286 285 283 284 287 292 291 286 289 283 275 282 287 289 286 284 282 274 271 273 273 277 288 287 287 289 293 293 299 301
287 287 296 295 282 287 289 290 292 292 292 291 288 289 289 286 283 285 286 291 293 291 288 289 279 271 278 283 286 283 285 284 282 278 271 272 277 288 287 291 293 295 299 300 300
288 282 288 291 289 288 287 288 288 294 292 292 289 290 288 286 287 285 286 291 293 293 298 294 283 277 274 277 281 278 283 285 282 275 277 278 280 287 289 291 295 297 298 298 298
288 287 290 284 286 286 287 289 288 289 294 292 289 289 288 285 286 285 287 288 292 298 293 289 278 279 283 285 284 283 284 284 279 282 278 281 282 287 291 293 294 298 297 296 293
288 290 293 288 288 286 288 287 289 290 291 290 288 290 289 287 288 286 288 286 287 289 290 288 279 284 278 284 284 282 284 285 285 285 284 285 284 292 293 293 297 296 294 291 290
293 297 293 289 286 284 285 288 290 292 293 294 292 291 291 293 293 292 291 291 290 288 286 285 283 281 277 282 283 279 283 284 285 287 286 282 288 292 294 296 294 294 291 288 290

GFSSW_sfc_thetae_030.txt.gz
Theta_e
315 315 316 316 316 316 315 315 312 312 313 313 316 317 321 324 322 315 308 314 318 327 329 320 320 316 311 305 305 302 293 288 291 292 294 299 297 302 302 299 301 301 305 314 325
314 314 314 314 314 315 314 314 313 312 311 312 313 316 318 321 314 309 316 323 326 326 320 315 312 310 304 303 303 299 292 294 297 297 296 299 299 299 301 300 298 299 314 320 329
313 313 313 313 313 313 313 313 312 312 311 311 312 313 316 318 307 303 322 323 326 326 322 317 312 308 302 301 300 299 294 299 301 302 303 300 300 301 298 297 299 298 302 311 317
312 312 312 312 312 311 311 312 312 312 311 311 311 312 314 313 293 309 321 325 326 322 319 315 308 302 299 297 301 295 300 301 303 305 302 299 300 298 300 300 303 304 304 305 309
310 311 311 311 310 310 310 310 310 310 311 311 311 311 310 305 301 315 324 326 319 319 315 312 306 301 297 299 299 297 298 301 303 303 301 302 299 298 299 303 305 305 306 304 304
310 310 309 310 310 309 309 309 310 310 310 309 310 311 305 297 312 314 315 321 317 317 313 311 307 304 300 299 297 300 300 300 300 300 300 299 298 298 299 302 302 302 303 303 303
311 310 309 309 309 309 309 309 309 309 309 310 310 307 303 302 312 311 318 320 320 318 311 311 309 304 301 297 301 300 295 296 298 299 299 300 295 295 301 303 301 300 300 303 304
310 309 309 308 309 309 309 309 309 309 308 309 309 306 299 313 315 311 313 317 319 317 315 313 313 306 301 301 299 296 294 289 296 299 299 298 289 297 301 299 299 300 299 300 303
310 310 309 308 308 308 308 308 309 309 309 308 303 302 298 313 308 311 311 314 315 316 315 316 311 303 299 293 291 290 285 287 292 298 297 296 290 297 299 297 297 298 298 299 300
309 309 308 307 307 307 308 308 308 306 305 305 303 297 303 301 307 310 313 316 311 311 309 307 305 296 292 293 283 287 284 286 287 291 293 291 290 294 296 296 296 297 297 297 298
309 308 308 308 307 307 303 296 290 290 296 292 296 298 301 307 311 308 311 312 311 307 297 302 296 292 293 293 291 290 288 286 288 293 290 289 288 292 295 293 293 294 295 297 298
310 308 308 308 308 306 299 292 292 294 285 296 299 302 305 308 301 305 312 304 303 295 299 296 292 296 297 295 294 292 287 285 289 291 289 288 287 291 294 293 295 296 297 298 298
310 310 305 307 307 302 296 294 300 298 287 292 298 300 303 305 300 301 307 304 299 297 296 293 294 301 298 296 294 290 288 285 286 288 287 285 285 286 290 291 292 293 294 295 296
309 309 308 306 300 300 293 301 301 297 281 286 294 300 304 304 297 306 308 303 299 295 296 293 299 297 296 294 293 287 289 289 287 284 280 285 278 284 287 287 288 287 288 289 290
309 309 308 306 298 295 296 302 300 293 273 290 295 307 302 296 297 300 307 303 296 294 295 290 294 294 293 293 294 289 290 287 285 281 278 280 277 282 282 283 285 287 288 289 289
308 308 306 302 300 301 300 299 294 275 273 287 295 295 294 296 296 300 300 304 303 295 294 291 295 295 294 293 294 292 287 284 281 279 271 276 277 279 280 281 285 286 286 289 291
308 307 303 302 292 300 298 292 277 276 288 287 290 292 291 293 294 296 294 292 291 286 286 290 289 292 294 288 290 288 285 273 271 269 271 279 277 279 284 286 286 286 287 290 291
308 305 303 301 302 301 297 285 275 285 287 293 291 291 288 291 292 293 291 288 290 289 285 282 282 289 291 288 286 283 282 274 270 268 273 279 276 281 286 286 287 287 288 291 293
304 296 297 302 304 302 290 280 279 285 292 290 290 287 287 290 292 291 288 287 288 287 281 278 280 289 290 290 289 283 277 282 275 273 270 274 279 283 286 286 286 287 290 291 291
293 292 294 302 302 294 284 285 286 291 291 289 282 286 281 287 287 288 286 289 288 290 288 284 279 288 289 291 289 286 287 278 274 266 269 273 274 277 281 284 287 288 288 292 293
291 288 295 300 297 289 282 286 292 295 294 288 284 283 284 284 285 285 285 287 290 289 290 286 283 284 287 284 283 284 280 280 278 276 270 271 275 282 283 284 286 288 290 292 292
288 283 295 297 287 291 288 290 294 292 294 291 288 287 284 284 282 283 284 286 291 291 286 288 282 274 282 286 288 285 283 281 273 271 273 272 276 286 286 287 288 292 291 294 299
286 286 295 294 282 286 289 290 292 291 291 289 287 288 288 285 283 284 286 290 292 290 287 288 279 272 278 283 285 283 284 283 281 277 270 271 277 287 286 288 292 293 294 298 299
287 282 288 290 288 289 288 287 288 293 291 291 288 289 287 285 287 284 285 291 291 292 297 292 282 278 274 277 282 279 283 283 281 271 276 277 279 285 288 289 292 295 294 297 296
287 287 291 285 285 283 285 287 287 288 292 290 287 288 287 283 285 284 287 288 292 297 292 289 277 278 282 284 283 282 283 283 279 280 276 279 280 285 289 290 293 293 297 295 291
288 289 293 289 286 283 285 286 288 289 290 287 286 289 288 285 286 285 287 286 286 289 288 287 281 284 276 283 283 281 283 284 284 284 284 284 284 291 292 293 296 297 293 291 291
295 296 293 288 284 282 284 286 289 291 291 293 291 290 289 291 292 290 291 291 289 288 286 286 282 276 273 281 282 278 282 284 285 286 285 281 287 290 291 295 295 293 289 288 289

GFSSW_sfc_thetae_033.txt.gz
Theta_e
315 315 315 314 314 315 315 315 315 315 312 312 312 314 316 319 320 317 308 314 318 327 327 318 321 320 312 308 307 305 297 293 296 294 297 301 300 306 307 305 305 307 310 318 329
313 313 314 314 314 313 313 314 314 314 313 312 312 312 314 316 312 310 316 323 325 326 318 313 313 312 306 305 305 302 296 295 299 300 299 302 303 304 305 304 304 306 311 326 332
312 312 312 312 312 312 312 312 312 312 312 312 312 312 312 314 307 307 324 325 325 325 319 318 316 310 304 303 302 301 296 300 302 302 304 303 303 305 303 302 305 304 308 318 327
312 312 311 311 311 311 311 311 311 311 311 311 311 311 311 309 294 311 323 327 326 321 319 313 310 305 301 299 303 298 301 302 304 306 304 302 304 302 304 305 307 308 309 310 322
312 312 311 310 310 310 310 310 310 310 310 310 310 311 307 301 303 314 320 321 319 318 315 311 307 304 301 300 301 299 300 303 304 304 304 304 302 302 302 306 307 307 309 309 310
312 311 311 310 309 309 309 309 309 309 309 309 309 310 301 294 313 315 313 316 315 317 315 312 308 306 302 301 300 302 301 301 302 302 303 301 301 301 303 305 305 305 307 308 308
311 310 310 310 309 309 309 309 309 309 309 309 309 305 298 297 312 314 312 317 316 318 312 313 311 305 302 299 303 300 297 299 299 301 300 302 297 297 304 305 304 304 305 306 307
310 310 310 309 309 308 309 309 309 309 309 308 308 304 293 309 314 312 312 316 318 320 316 315 312 306 303 303 300 297 297 292 298 299 300 300 291 299 303 302 302 303 303 303 305
311 311 309 309 308 307 307 309 309 309 309 308 302 299 293 313 307 311 310 312 315 316 315 316 312 305 302 295 293 294 287 290 294 299 299 298 293 299 302 301 300 301 302 302 303
311 311 309 308 307 306 307 308 307 306 305 305 303 295 300 300 307 309 314 314 311 311 308 307 304 298 295 293 284 288 288 290 290 294 295 294 293 297 299 297 298 299 300 300 302
310 310 309 306 307 307 302 296 291 290 296 290 293 296 301 307 311 308 313 312 310 306 297 302 294 291 295 294 292 291 290 289 291 294 293 291 291 293 297 296 296 297 298 300 300
309 310 308 305 307 307 298 291 291 294 285 295 297 299 305 307 300 305 312 304 301 295 299 296 291 296 297 295 293 292 289 288 292 293 292 289 289 293 296 295 296 297 297 298 299
310 310 308 305 306 301 297 293 299 299 288 291 296 298 302 306 300 301 308 303 296 294 295 291 295 299 297 294 293 291 289 288 289 290 289 287 287 289 293 293 294 292 292 293 294
309 309 307 305 301 300 293 300 299 297 283 287 292 299 302 304 298 307 308 304 299 290 295 294 299 297 295 293 294 289 292 290 288 287 283 287 282 287 288 289 290 290 292 293 294
308 307 307 306 296 293 296 300 298 294 275 288 293 306 303 297 300 299 308 303 295 295 295 290 295 295 293 295 296 290 291 288 287 284 283 283 282 285 286 287 288 289 291 293 294
308 307 305 300 298 299 300 300 295 276 275 287 295 295 294 297 298 301 301 305 302 295 294 292 298 296 294 295 294 291 287 285 284 282 277 280 281 282 284 286 289 290 291 293 294
308 306 302 301 292 299 298 291 276 274 288 288 289 293 292 292 294 296 294 292 291 285 286 290 290 293 295 289 291 290 288 278 275 275 277 281 279 282 286 288 290 290 292 293 294
309 305 302 301 302 302 298 281 277 287 288 293 291 291 289 291 292 293 291 287 290 291 286 284 282 289 292 290 287 287 286 278 274 273 276 280 278 283 288 290 291 292 292 293 295
304 295 296 299 303 300 287 282 276 286 292 290 288 286 286 290 291 290 288 287 289 289 284 281 282 291 291 291 290 286 282 284 277 275 274 277 280 285 288 288 290 292 293 293 296
292 291 293 300 300 297 286 286 287 291 291 288 282 286 282 286 286 287 287 289 288 290 290 285 280 288 289 291 290 287 287 280 277 271 272 275 277 280 284 287 289 290 292 293 295
290 288 295 299 296 289 284 286 290 294 293 287 284 283 284 284 285 285 285 288 291 290 290 287 284 285 288 286 284 285 282 281 281 278 274 274 277 284 286 288 289 290 292 293 296
288 283 295 296 287 290 287 290 294 291 293 289 288 286 284 285 283 283 284 286 291 291 287 288 284 279 283 287 289 287 284 282 277 274 276 276 278 288 288 288 289 291 293 296 300
286 286 294 294 286 287 290 291 292 291 290 289 286 288 287 284 283 284 286 290 292 290 288 288 281 274 279 283 287 285 285 283 281 280 275 275 279 288 288 290 291 292 294 297 298
286 281 288 289 287 285 285 285 287 292 291 290 288 289 286 284 286 284 285 291 291 291 297 292 283 279 275 278 282 280 283 283 282 276 277 278 280 286 288 289 292 293 294 297 294
287 287 291 283 284 283 284 286 286 287 291 289 286 287 286 282 284 283 286 288 291 296 291 288 279 280 283 284 284 284 284 283 280 281 279 281 281 286 289 290 292 294 296 294 292
287 288 292 289 285 282 285 284 286 288 289 286 286 288 287 285 285 284 286 285 286 289 288 287 281 283 277 284 284 282 284 284 284 284 283 284 284 292 293 292 294 295 292 291 290
294 296 292 288 283 281 283 285 288 290 290 292 289 289 288 290 292 291 290 290 289 287 286 287 282 277 274 282 282 279 282 284 285 285 286 282 287 290 290 293 294 293 290 288 289

GFSSW_sfc_thetae_036.txt.gz
Theta_e
314 314 314 314 314 314 314 314 315 315 315 313 312 312 313 314 316 313 312 316 319 324 327 317 320 322 316 313 313 313 305 301 303 303 304 307 306 309 310 309 311 312 314 324 330
314 314 314 313 313 313 312 313 313 313 313 314 312 312 312 313 308 307 319 326 325 325 321 312 313 317 309 309 310 307 303 303 308 308 306 306 306 308 308 308 309 310 316 331 334
314 314 313 313 312 312 312 312 312 311 312 312 312 311 311 312 302 305 324 326 327 324 321 317 318 314 307 308 307 306 301 306 305 307 307 307 307 310 307 305 309 309 312 325 331
313 313 313 312 311 311 311 310 311 310 309 311 311 311 309 308 291 312 322 327 326 322 318 315 314 308 305 302 307 301 304 305 306 307 307 305 309 307 308 307 312 314 313 315 328
312 312 312 311 310 310 310 310 309 309 309 309 310 309 305 299 299 316 320 318 322 319 315 313 309 308 304 305 305 302 304 305 306 308 308 308 306 306 307 311 313 313 313 314 315
312 311 311 310 310 309 310 309 309 308 308 309 308 309 302 292 308 317 314 315 318 316 314 314 309 312 306 305 303 305 304 305 306 306 306 305 306 306 308 311 310 311 311 313 314
313 312 311 310 310 310 309 309 309 309 309 309 308 306 299 296 313 317 315 313 318 316 312 316 314 309 308 303 307 305 300 303 304 305 304 306 301 302 308 310 308 309 310 311 313
312 311 311 310 309 309 308 308 309 309 309 309 308 304 294 306 308 310 314 312 318 318 316 318 316 310 307 307 304 301 300 295 301 304 304 303 295 302 307 307 306 307 309 310 311
311 311 310 309 307 306 307 307 309 309 309 308 303 300 293 311 305 311 312 309 314 316 317 317 313 306 305 299 296 298 291 293 295 303 302 301 296 302 305 305 305 306 308 309 310
311 311 310 308 307 306 306 307 306 307 307 306 304 295 299 299 308 310 313 312 310 312 308 307 306 302 300 296 287 290 291 293 292 298 300 298 297 302 305 304 304 305 306 308 308
311 311 310 307 307 307 305 303 297 295 299 291 292 294 300 308 311 308 312 312 311 306 297 302 297 293 297 298 296 295 293 291 295 297 297 296 297 299 303 303 303 304 305 306 308
311 310 309 308 308 306 304 296 296 298 288 296 296 297 300 307 301 306 313 304 303 296 300 297 292 299 301 299 296 295 292 292 295 296 296 296 295 299 301 302 303 302 303 304 305
309 308 307 307 307 304 299 298 303 302 291 293 297 297 302 306 301 302 306 300 300 296 297 293 296 300 298 297 295 295 292 292 292 294 295 293 293 295 295 297 296 297 298 299 301
308 308 308 306 302 301 297 304 304 302 286 288 293 299 303 305 299 307 308 300 296 294 296 295 301 297 296 295 296 291 296 294 292 292 288 292 289 293 293 293 296 298 299 301 303
308 307 306 306 302 298 300 305 304 300 279 290 293 305 304 298 300 300 309 304 293 293 295 292 296 296 294 296 298 292 296 293 291 291 289 288 288 290 292 291 294 297 299 301 302
310 307 305 304 303 302 305 304 300 286 279 288 296 294 295 298 299 302 301 304 301 294 295 293 298 297 296 295 298 294 292 291 290 289 285 287 286 287 289 292 294 296 298 301 302
309 307 304 304 299 305 304 299 287 282 289 288 291 295 294 293 294 296 295 293 291 285 286 288 289 295 296 291 293 293 292 285 283 284 284 285 284 289 291 293 295 296 298 301 303
309 306 305 304 306 305 302 292 283 287 288 294 294 294 290 293 292 293 292 291 295 293 289 287 283 290 293 291 289 291 292 287 280 280 282 284 283 288 293 295 295 297 298 300 302
305 304 304 306 306 306 296 286 285 287 292 291 292 289 289 292 294 293 292 291 294 295 289 287 285 292 293 294 294 288 288 288 284 282 283 285 286 290 292 292 294 297 298 300 302
302 301 301 304 306 302 296 287 289 293 294 292 287 290 286 290 290 291 291 293 291 293 295 289 284 290 291 293 293 292 292 285 286 279 279 282 282 286 289 292 295 296 298 300 303
301 299 301 304 305 301 287 288 292 297 296 291 289 288 289 289 290 290 289 292 294 292 294 292 290 287 291 289 289 288 288 287 287 284 281 280 284 292 293 294 294 297 299 300 303
298 296 303 303 298 297 291 292 295 295 297 293 293 291 290 290 289 289 288 291 296 295 291 292 290 284 286 290 292 291 289 288 285 281 283 284 285 293 294 295 295 298 299 301 304
296 296 303 302 292 293 294 293 295 294 294 293 290 292 292 290 287 289 290 293 295 294 292 293 288 282 282 287 290 288 290 288 286 286 282 283 285 293 294 295 298 298 300 302 301
296 293 298 299 296 294 292 292 292 296 294 293 292 293 291 289 291 288 289 293 294 294 296 295 287 285 282 285 289 285 287 288 288 283 284 285 286 291 293 295 298 300 302 302 300
295 289 292 291 292 292 292 292 291 291 295 294 291 291 290 287 288 288 291 291 293 296 294 293 286 285 287 287 287 287 287 287 284 287 284 286 286 291 294 296 297 300 301 299 297
292 290 293 291 290 290 290 292 291 293 293 291 290 292 293 290 290 288 291 291 291 294 292 292 285 286 284 286 287 285 287 288 288 288 288 288 288 295 298 298 297 299 298 297 295
295 297 293 290 290 290 291 291 292 293 295 296 293 294 293 294 297 297 297 296 295 292 291 291 286 285 282 285 285 283 286 288 289 290 289 285 291 296 295 296 297 299 297 294 293

GFSSW_sfc_thetae_039.txt.gz
Theta_e
316 316 315 315 314 314 314 314 314 314 314 315 316 312 312 313 314 311 306 317 321 322 325 315 319 322 319 315 316 316 304 301 304 304 305 311 309 313 314 311 311 313 315 325 335
316 316 315 314 314 313 313 313 313 312 312 312 313 312 312 312 307 303 313 325 327 323 320 311 314 318 311 310 311 308 305 305 310 310 308 310 309 310 308 308 309 311 318 329 334
314 314 313 313 313 312 312 312 311 311 310 311 312 313 310 310 302 301 318 325 327 326 322 314 317 315 307 309 308 306 302 308 309 309 311 309 308 310 308 305 309 309 313 324 330
313 313 313 313 312 312 311 311 311 310 309 310 311 310 309 307 289 309 323 327 329 323 319 313 312 310 305 303 308 302 305 307 309 308 307 307 310 307 308 308 312 314 315 317 326
314 314 313 312 311 311 310 310 309 309 308 309 309 309 306 299 299 318 321 326 323 319 312 312 307 308 303 305 305 303 304 306 307 307 307 309 307 307 307 312 314 315 314 314 316
314 313 312 312 311 310 310 310 308 308 308 309 308 309 302 292 307 315 316 316 320 316 314 312 308 311 306 305 303 306 305 305 306 306 307 305 306 307 308 312 312 312 312 313 314
312 312 311 311 311 310 309 309 308 309 309 309 308 305 299 297 309 317 314 313 316 319 310 313 312 310 309 304 308 306 301 303 303 305 304 307 302 304 310 311 310 310 311 311 312
312 312 311 310 309 308 308 308 308 308 308 308 308 304 295 306 309 309 314 312 316 319 314 315 315 309 306 308 305 301 301 295 302 303 305 304 296 305 310 309 308 309 310 311 311
312 312 310 309 307 306 307 307 308 308 309 308 304 301 293 309 301 306 313 309 313 316 315 317 314 307 306 300 297 299 291 294 296 303 303 301 298 305 307 306 306 307 308 309 310
312 311 310 309 308 307 307 306 307 308 308 307 304 295 298 297 304 309 315 312 310 310 309 308 307 301 299 297 288 291 291 294 294 299 300 299 299 303 304 304 305 306 307 308 308
311 310 309 308 307 307 306 304 299 296 299 293 294 293 299 305 311 307 311 309 310 306 298 303 297 294 297 298 297 295 294 292 296 299 298 297 298 300 303 304 304 305 306 306 307
309 308 309 309 308 306 306 298 297 298 290 296 297 296 300 302 299 303 311 303 302 296 299 297 291 299 300 299 297 296 293 292 296 298 297 295 296 300 302 302 303 304 305 306 307
309 309 308 307 306 305 301 299 305 304 291 293 296 296 300 304 299 301 304 301 299 296 296 293 295 301 298 296 295 294 293 292 292 296 297 295 293 296 300 301 301 300 301 302 303
311 308 307 307 304 303 299 304 306 304 287 288 292 298 303 304 297 307 307 301 297 295 297 295 300 298 297 295 296 291 297 296 294 292 287 295 285 294 296 295 297 299 301 303 304
310 310 307 308 304 300 301 306 306 301 279 291 295 307 305 300 300 299 309 301 294 295 295 292 296 295 294 296 298 294 299 296 294 292 291 291 288 293 295 292 295 299 301 303 305
309 310 308 306 307 303 307 306 302 285 278 289 297 296 296 300 298 301 301 303 300 295 295 293 299 298 297 297 299 299 295 294 294 292 285 291 289 290 291 293 295 298 301 303 304
309 310 307 306 302 307 307 299 286 284 291 289 292 295 294 294 295 297 295 292 288 285 285 290 289 296 297 294 297 296 292 285 283 284 284 288 286 292 295 297 298 298 300 303 305
309 308 308 306 309 307 302 294 284 287 289 296 295 294 291 294 293 294 293 291 295 293 289 287 282 289 293 293 291 293 293 288 280 282 285 286 283 290 296 298 298 300 301 303 304
308 307 306 309 309 305 297 287 286 288 293 292 293 290 290 294 294 294 293 292 294 296 289 288 286 292 293 294 296 290 288 292 286 285 284 286 289 292 294 295 296 298 300 302 304
304 304 305 308 309 302 298 288 291 295 295 294 288 292 289 291 292 293 293 295 294 296 296 293 285 291 292 294 293 292 294 286 288 281 280 284 286 287 289 292 295 297 299 302 304
303 299 306 307 308 302 289 288 294 298 298 293 291 290 291 290 292 292 291 294 296 294 297 295 292 288 292 290 288 288 287 289 289 287 283 282 284 294 293 295 296 298 300 302 304
303 298 306 307 300 300 294 295 296 296 298 295 295 293 292 292 291 291 290 294 298 297 292 294 292 285 288 292 294 293 291 292 286 284 285 284 285 295 297 297 297 298 301 303 305
298 299 308 307 294 295 296 295 297 296 295 294 292 294 295 292 289 292 292 296 297 296 293 295 290 282 284 289 292 289 292 292 289 288 285 283 285 296 297 297 299 300 302 304 304
298 293 302 304 301 297 294 293 293 298 296 296 294 295 293 291 293 291 292 294 296 296 296 297 290 287 284 287 290 286 290 291 289 285 286 286 288 292 294 296 300 301 303 303 303
298 293 294 295 296 296 296 295 292 292 297 296 293 293 292 289 290 290 293 293 294 296 296 295 287 287 289 289 290 289 288 289 287 288 286 289 288 292 295 297 300 300 302 301 300
292 290 294 294 294 294 292 294 293 294 295 293 292 294 293 291 292 290 292 293 291 295 294 294 286 288 285 289 289 286 289 290 289 289 289 290 289 296 298 299 298 300 301 299 298
295 297 293 292 293 293 294 294 294 296 297 297 295 294 293 295 298 298 298 297 296 293 292 292 288 286 284 287 287 283 287 289 290 291 291 287 292 297 296 297 298 299 300 298 297

GFSSW_sfc_thetae_042.txt.gz
Theta_e
316 316 316 316 315 315 315 314 314 314 314 314 314 316 313 312 313 311 305 315 321 325 323 315 317 320 322 316 316 315 302 298 301 302 305 309 306 309 309 306 306 307 318 327 337
314 315 315 315 314 314 314 313 313 313 312 312 312 313 314 312 307 302 312 321 327 327 317 309 311 317 311 311 311 307 301 301 307 309 307 309 307 306 304 304 303 305 320 329 334
316 316 316 315 314 313 313 312 312 311 310 309 311 312 313 311 300 300 316 324 326 327 317 312 315 315 309 308 307 306 301 307 309 311 309 309 307 308 304 302 304 304 312 323 328
316 315 314 314 314 313 312 311 310 310 310 308 308 310 311 307 289 309 319 323 326 324 318 313 307 307 304 302 307 300 305 306 308 309 307 306 309 305 305 304 308 310 311 316 322
314 314 313 313 313 312 310 310 310 309 309 308 310 310 306 297 298 314 321 322 321 320 313 311 305 306 301 303 303 302 303 305 306 306 305 308 306 303 304 307 310 311 311 309 309
314 314 313 312 312 311 309 309 308 308 308 308 308 309 301 290 306 313 316 318 319 317 311 313 306 310 305 303 301 303 304 304 304 305 306 304 303 303 304 308 308 309 307 307 309
314 314 313 312 311 309 309 308 309 308 308 308 308 306 299 295 307 315 314 310 319 317 309 311 310 307 307 303 307 305 299 302 302 304 303 305 300 300 305 306 306 306 307 309 309
313 313 312 310 310 308 307 308 308 308 308 308 308 304 294 305 306 306 312 310 312 317 314 315 313 308 306 307 304 300 299 293 300 302 303 302 293 302 306 304 304 305 305 306 308
312 312 311 309 308 307 307 307 307 308 308 308 303 300 292 310 300 303 308 307 311 316 316 315 314 305 305 298 295 297 289 292 296 302 301 300 295 302 305 305 303 303 305 305 305
310 310 310 309 309 309 308 306 307 307 307 306 303 295 297 295 302 303 309 311 309 311 309 307 304 299 298 295 286 290 290 292 292 298 300 297 296 301 302 301 299 300 300 301 303
310 310 309 309 309 308 307 305 299 296 299 293 293 293 295 301 308 306 311 308 309 306 297 302 295 291 294 296 296 294 292 291 295 299 297 296 297 299 301 300 298 299 300 301 302
312 309 309 309 308 309 306 298 297 298 290 296 296 296 299 301 297 303 310 303 302 296 299 296 292 297 299 298 295 294 289 290 293 298 296 294 294 298 298 299 300 300 299 300 300
311 311 309 309 309 306 300 299 305 303 289 293 296 296 299 302 298 298 305 302 298 295 296 292 295 301 298 295 293 291 290 290 290 294 295 293 290 292 297 299 301 297 297 298 298
309 310 311 308 303 303 299 304 306 305 285 288 294 298 302 302 297 306 305 301 298 294 295 295 299 297 296 294 295 289 294 294 292 289 284 293 279 290 294 295 295 293 294 295 299
308 309 310 308 303 300 302 306 307 300 278 291 295 307 302 297 299 300 307 300 295 296 296 292 295 294 294 295 297 293 297 294 293 289 287 288 283 287 292 289 292 294 296 298 299
307 309 310 308 306 305 307 307 301 284 277 289 296 296 297 298 298 301 299 302 300 295 296 294 299 298 297 299 299 299 294 293 291 288 279 287 285 285 289 291 292 295 297 299 300
307 309 307 307 301 308 307 299 284 281 291 289 292 295 295 293 295 296 293 292 289 285 285 289 289 295 297 294 297 295 289 280 278 278 277 287 285 287 291 293 294 295 297 299 301
308 309 308 306 309 308 302 291 280 287 289 295 295 295 291 294 293 294 292 289 293 292 288 285 281 290 294 293 290 291 289 281 276 276 278 284 280 286 292 295 297 297 298 299 299
309 308 306 309 310 305 294 285 284 289 293 292 294 290 290 294 293 293 292 291 294 296 288 286 284 292 293 295 294 290 284 289 282 281 277 280 284 289 292 292 293 294 296 297 299
303 304 305 309 309 301 294 287 290 296 296 294 288 291 288 291 291 292 291 294 293 296 297 291 283 290 292 295 294 291 292 285 281 274 275 279 281 282 287 289 292 293 295 298 299
303 299 304 309 307 299 288 288 294 298 297 292 291 290 291 290 292 291 291 294 296 294 296 295 289 287 290 288 288 288 286 287 286 282 277 276 279 288 289 290 291 294 297 298 299
300 295 306 307 298 299 292 295 297 296 299 295 295 293 291 291 290 289 289 293 297 296 291 293 288 284 287 292 295 293 290 290 281 279 279 279 280 291 291 293 295 295 298 299 302
295 297 306 306 292 292 296 295 297 295 296 295 293 294 294 291 287 291 291 295 297 295 291 292 285 280 282 287 290 288 291 292 290 287 283 280 279 292 292 292 295 296 298 301 301
296 291 300 302 299 295 293 293 293 299 296 296 294 295 292 290 292 289 291 295 295 296 298 295 288 282 278 281 287 284 288 290 286 280 283 282 283 287 290 292 296 298 299 299 299
297 291 293 290 293 293 295 295 293 292 297 297 293 293 291 288 289 289 292 292 294 296 294 292 283 282 286 289 288 287 287 288 283 286 280 285 285 288 291 293 296 297 299 299 298
290 288 292 291 293 292 292 294 293 295 295 293 291 294 292 290 291 288 291 290 289 292 291 293 284 285 280 288 287 283 287 288 288 288 287 287 286 291 292 294 295 296 298 298 296
292 295 292 290 291 291 291 292 293 296 297 297 295 293 292 295 297 296 295 294 293 291 290 289 284 280 277 286 284 279 285 287 288 289 289 284 288 293 293 295 295 295 298 297 295

GFSSW_sfc_thetae_045.txt.gz
Theta_e
317 317 317 317 317 315 315 315 314 314 313 314 314 315 316 313 314 312 303 312 320 324 324 313 312 315 318 315 316 316 301 297 298 300 303 310 307 306 306 304 305 311 320 330 335
317 316 316 315 315 315 314 314 313 313 312 312 313 313 314 315 307 302 311 320 326 327 313 308 307 313 310 311 311 307 301 300 306 306 305 308 309 306 302 302 302 314 330 333 333
315 315 315 315 314 314 313 312 312 311 310 309 310 312 312 312 300 299 316 319 325 327 315 311 313 312 306 307 307 306 300 305 306 308 310 309 308 310 302 299 301 308 323 328 329
314 316 315 314 313 313 312 311 310 310 309 309 309 310 310 306 289 302 321 320 325 324 318 310 310 305 303 301 307 300 306 307 309 311 310 307 309 305 303 302 307 306 320 324 325
315 314 314 314 313 312 310 310 309 309 309 309 309 308 305 296 297 308 319 319 319 319 313 310 305 305 299 302 303 301 303 307 308 307 308 310 307 305 303 306 309 309 309 313 320
314 313 313 313 312 311 309 309 308 308 308 308 309 310 301 290 306 315 315 313 316 315 312 311 302 306 302 302 300 303 304 304 304 304 305 303 304 303 303 306 307 307 306 306 306
313 313 312 311 311 310 309 308 309 308 309 308 308 306 298 294 306 313 314 311 315 315 310 312 310 306 304 300 304 302 299 301 302 302 302 303 300 301 303 304 305 303 304 306 306
311 311 311 310 309 309 308 309 308 308 308 308 308 304 294 305 303 303 310 310 311 316 315 314 311 306 305 306 302 298 297 292 299 301 303 300 293 300 304 300 302 302 302 304 306
311 311 311 310 310 309 308 308 308 308 308 309 303 299 291 309 300 301 307 304 309 312 315 315 311 304 302 296 293 295 288 290 295 301 300 298 293 301 303 301 301 301 302 303 303
313 310 310 310 309 309 309 309 308 306 306 306 303 292 297 295 301 303 308 305 306 308 306 306 302 297 297 292 286 288 288 291 291 297 298 296 294 300 300 300 300 300 299 299 302
311 312 310 310 310 310 306 301 295 293 297 293 293 293 295 300 307 304 307 306 306 304 295 301 293 290 293 294 294 293 291 289 293 298 296 295 295 299 299 296 297 297 298 299 300
309 311 311 309 310 310 304 295 297 297 289 297 297 296 298 301 296 302 309 299 301 295 297 294 289 294 297 296 294 292 289 288 292 297 296 293 293 297 299 297 298 298 298 299 298
308 309 310 309 309 303 298 299 304 302 290 293 296 295 299 301 296 298 303 302 298 291 294 291 293 298 297 294 292 290 287 286 288 293 294 290 288 292 296 297 299 299 297 297 298
308 308 310 310 302 300 297 303 305 302 285 289 294 298 302 301 294 304 306 301 298 292 296 294 298 296 294 292 293 286 292 292 291 288 283 291 279 285 293 295 296 294 293 294 297
308 308 310 309 298 298 301 304 303 299 274 293 295 305 301 295 297 299 307 301 294 295 295 291 294 294 292 293 295 290 295 292 290 286 286 286 280 285 290 289 290 292 292 294 297
307 308 309 305 301 304 306 303 299 282 276 288 294 294 293 295 298 299 299 303 300 296 294 293 298 296 295 298 298 296 292 290 288 285 276 285 283 282 286 290 290 292 294 296 298
308 308 306 306 299 304 305 298 281 276 290 289 291 295 293 293 295 295 293 292 290 286 286 290 290 295 298 293 296 295 288 280 277 273 275 283 283 286 290 291 292 293 294 296 297
308 309 306 306 304 306 301 290 276 285 287 295 295 294 290 293 293 293 292 289 293 291 288 284 283 291 294 294 291 291 287 280 273 273 277 283 279 285 290 294 296 296 296 297 298
307 301 300 303 306 303 294 278 279 289 293 292 294 290 290 293 293 292 291 289 293 293 287 284 283 292 294 295 294 290 286 290 282 280 275 279 282 288 290 292 295 294 295 296 297
296 296 299 306 304 300 289 283 286 295 295 293 287 291 288 290 291 291 290 295 294 297 295 290 283 290 293 295 295 292 293 283 280 275 273 277 278 281 285 288 292 293 294 296 299
295 292 300 305 304 297 284 285 292 297 296 291 288 287 289 288 291 290 289 294 296 295 295 292 286 287 290 288 289 289 287 286 285 281 275 273 278 286 288 289 289 292 295 296 298
291 288 300 303 291 294 283 291 296 294 296 294 292 291 288 288 287 287 287 291 296 295 291 293 288 283 286 294 295 293 289 287 279 279 278 276 278 289 289 290 291 293 297 298 300
287 290 300 299 290 286 291 294 295 294 293 293 291 292 291 288 285 288 289 294 295 293 290 292 284 280 282 287 291 289 290 291 288 284 279 276 278 290 290 292 294 295 296 299 299
289 285 291 294 293 293 289 290 291 296 295 294 292 292 289 288 289 287 288 293 294 294 299 295 286 280 276 280 286 283 288 291 288 278 282 281 282 285 289 291 292 294 297 298 298
289 288 288 286 287 289 291 294 290 291 294 294 290 291 289 285 286 287 289 289 292 296 292 290 279 279 285 288 287 286 286 288 284 286 282 285 283 286 290 290 292 296 297 297 296
284 283 287 287 288 288 290 291 291 294 292 293 289 292 290 288 288 286 289 287 287 289 289 290 279 281 277 286 286 283 286 287 288 287 286 286 285 291 291 293 294 295 297 296 295
287 289 288 287 286 286 289 290 291 294 295 295 293 291 289 293 294 292 291 292 291 289 287 287 280 275 274 284 282 278 283 285 286 289 289 284 289 291 292 293 294 294 297 296 294

GFSSW_sfc_thetae_048.txt.gz
Theta_e
317 315 316 316 316 315 316 316 314 314 314 314 314 314 315 316 317 312 305 309 315 328 327 313 312 313 316 314 317 315 300 295 297 299 301 310 306 310 308 305 312 318 321 328 333
315 316 316 316 315 314 314 314 313 312 312 311 312 313 314 313 308 303 313 318 322 327 311 307 304 311 311 310 312 307 299 299 304 305 304 308 308 308 305 303 312 321 329 332 332
315 315 315 315 314 314 313 311 311 311 309 310 310 311 312 311 299 301 316 319 321 326 316 310 308 312 307 306 307 307 299 304 306 308 309 308 308 311 305 300 307 319 324 327 326
315 314 314 314 313 313 312 311 310 309 309 309 310 310 310 306 289 302 316 319 321 320 316 309 309 307 303 302 306 301 306 307 308 310 310 307 310 307 306 304 307 319 327 325 324
314 313 313 314 313 312 310 310 309 309 308 310 309 308 304 296 296 308 315 319 315 317 312 306 306 304 299 301 304 300 304 307 310 311 310 310 307 307 306 310 307 318 322 323 323
313 312 312 311 311 311 310 309 309 309 309 309 310 308 300 290 305 309 309 312 311 315 312 310 305 307 300 301 302 303 304 305 306 306 309 305 306 307 308 308 306 307 307 310 319
312 312 312 311 310 310 309 309 309 308 309 308 308 306 298 293 306 309 311 310 314 316 310 313 308 306 302 299 302 302 299 301 301 303 302 305 301 303 309 307 304 302 304 306 306
314 311 311 311 310 309 308 309 308 308 308 308 308 303 293 306 306 303 309 309 312 315 315 315 311 306 301 302 300 295 297 292 299 301 302 301 294 304 310 303 301 301 301 303 305
312 312 311 310 310 309 309 309 308 308 308 308 302 298 291 307 300 302 306 305 309 312 314 315 309 301 299 295 291 292 287 290 294 301 300 298 293 300 304 301 299 299 300 302 303
311 312 312 310 310 310 310 309 308 307 305 306 304 292 296 294 300 304 307 308 306 308 308 306 303 296 294 293 285 288 287 292 291 297 298 296 294 299 300 298 298 298 300 300 301
309 310 311 312 310 310 305 299 293 291 295 292 292 292 295 299 304 302 307 304 304 302 294 301 294 290 292 292 293 292 288 289 292 297 296 295 295 298 300 296 295 297 298 298 299
309 309 309 311 310 310 301 294 296 296 288 297 296 296 298 299 296 301 308 296 295 293 294 296 290 294 296 296 293 292 289 286 291 296 296 294 294 297 299 297 297 296 296 298 297
309 308 308 310 311 301 296 298 303 302 290 293 296 295 297 301 296 297 303 299 295 291 292 292 294 298 297 293 291 288 287 286 287 292 293 290 288 292 296 297 297 297 297 297 298
308 308 308 310 301 299 296 301 303 302 284 289 293 297 301 301 294 303 305 301 295 292 293 294 296 295 294 292 291 285 291 290 290 288 283 290 280 286 292 293 295 297 293 295 295
309 308 308 308 296 296 300 303 302 297 275 291 294 305 300 295 296 299 307 302 295 291 295 291 293 292 291 292 293 289 293 291 289 285 284 284 280 284 287 287 292 294 292 293 295
308 307 309 304 301 302 306 304 299 277 271 287 293 293 291 294 297 300 300 303 301 295 294 293 298 295 293 296 296 295 291 289 287 284 276 283 282 282 285 288 289 290 292 293 296
308 308 307 305 296 304 305 297 276 275 288 288 291 293 293 293 294 294 294 293 290 285 284 290 291 295 296 291 296 291 286 275 276 275 276 282 281 287 290 291 291 290 292 295 297
308 308 306 305 303 304 301 284 272 283 289 296 294 292 290 293 293 292 292 288 293 289 285 284 282 291 295 293 289 290 285 277 273 273 276 282 278 284 290 292 294 294 295 295 296
305 299 299 302 304 304 293 274 277 283 292 292 293 290 290 293 292 291 290 289 291 289 285 284 282 293 295 295 292 290 284 287 279 277 272 278 282 287 287 288 293 293 294 295 296
293 295 297 304 304 300 287 281 283 294 294 292 285 290 287 290 290 290 289 293 293 295 293 287 282 291 293 296 293 289 292 283 278 273 272 276 277 280 283 287 292 293 294 295 298
294 292 299 304 304 296 277 280 290 296 295 290 287 286 287 288 290 289 288 293 295 294 294 289 285 287 291 289 289 289 287 288 286 282 275 273 277 284 286 289 291 293 295 295 298
289 290 299 303 292 292 281 290 295 293 294 293 290 289 287 287 285 285 287 290 296 296 290 290 286 282 286 293 295 293 289 288 282 277 278 276 278 287 288 290 293 293 295 297 300
287 288 299 301 289 284 290 292 294 292 292 292 289 291 290 287 284 287 288 292 295 292 291 291 283 279 280 285 291 290 291 291 287 284 276 275 279 290 287 289 292 293 295 298 298
289 282 290 296 295 289 289 288 289 294 293 292 291 291 288 286 288 286 286 292 293 292 298 294 284 280 278 280 284 284 289 290 287 278 282 279 282 286 288 289 292 294 296 298 297
286 285 285 286 289 289 291 293 289 290 293 292 289 289 287 284 285 285 287 288 291 295 291 289 279 279 283 286 285 284 285 288 286 288 283 287 284 287 290 291 292 294 296 297 296
282 281 285 283 287 288 290 289 290 294 291 292 287 291 288 287 286 285 288 286 286 288 287 288 277 280 276 284 285 283 285 287 289 289 287 285 284 290 292 291 293 295 296 295 295
286 287 286 285 281 285 285 286 288 292 295 294 291 289 289 291 292 292 291 290 289 288 286 286 279 274 272 282 282 278 283 284 286 289 288 283 289 289 289 291 294 295 296 296 294

GFSSW_sfc_thetae_051.txt.gz
Theta_e
316 317 316 316 317 317 316 315 315 314 314 313 313 313 314 315 316 312 306 309 313 324 326 315 312 312 317 312 316 315 300 296 297 298 300 306 306 309 310 305 310 323 318 325 331
316 316 315 315 316 315 315 314 313 313 312 311 311 312 313 313 307 305 314 319 321 323 312 310 305 310 311 308 311 306 299 298 302 304 303 306 307 307 305 305 310 318 327 330 330
315 314 315 315 314 314 313 312 312 311 310 310 309 311 311 310 300 299 317 321 321 320 316 310 307 307 304 307 307 306 299 303 304 306 309 307 307 310 305 302 301 302 322 326 327
314 313 312 313 314 313 312 311 310 309 309 309 309 310 311 305 286 301 315 320 322 316 315 309 306 301 301 303 306 301 305 306 307 310 309 306 309 307 306 306 310 310 312 324 324
313 313 312 311 312 312 311 310 309 309 309 309 308 308 304 296 295 308 314 312 312 312 309 307 302 300 299 302 304 298 304 306 310 310 309 310 307 307 306 310 312 310 321 322 322
315 312 312 311 310 311 310 310 309 309 309 309 309 308 300 289 304 308 308 307 308 310 308 309 304 305 301 301 302 302 305 306 308 308 309 306 306 307 308 310 309 307 321 320 321
314 313 312 311 311 310 310 310 309 309 309 308 308 306 298 293 304 306 306 308 312 311 306 312 310 306 302 298 303 302 299 301 305 307 306 308 302 302 308 308 307 306 306 315 319
313 313 312 311 310 310 310 310 309 309 309 308 308 302 293 304 307 305 304 309 313 313 313 315 312 306 301 301 298 295 295 291 300 304 304 305 295 304 309 307 306 305 301 303 305
310 311 311 311 310 310 311 310 309 309 309 309 301 298 291 307 301 304 305 304 309 313 313 315 310 302 299 294 289 290 285 288 293 303 301 301 294 304 309 307 306 306 299 301 302
311 309 309 310 311 311 311 309 309 307 305 305 303 291 296 293 300 304 308 307 305 307 306 305 302 296 292 291 284 287 285 291 290 297 298 297 294 300 306 306 306 307 300 299 301
310 310 308 309 311 311 305 297 293 290 294 291 291 291 294 298 302 302 307 303 304 302 297 300 293 289 292 292 291 290 288 288 290 297 297 295 295 297 300 297 297 296 296 298 300
309 310 308 308 310 311 300 292 294 293 286 295 296 295 298 298 295 301 307 296 294 290 297 294 290 293 296 295 293 291 287 286 290 296 296 294 293 297 299 299 298 299 295 296 296
309 309 308 308 311 301 295 296 302 301 289 292 295 294 296 300 296 297 302 298 292 290 292 290 292 297 296 293 291 287 287 285 287 292 293 292 290 293 297 298 299 298 297 296 297
309 308 308 308 301 298 295 299 302 300 277 289 292 297 300 300 293 303 304 299 293 290 291 293 296 295 293 291 291 285 290 290 289 287 283 291 282 288 293 294 296 299 296 296 295
308 308 307 308 296 295 299 302 301 297 266 289 294 304 300 295 295 297 303 301 291 293 293 290 294 293 291 292 292 288 291 289 288 284 283 284 283 286 287 286 293 296 298 294 294
308 308 307 303 303 301 305 304 299 275 272 288 294 292 292 295 296 299 300 303 300 295 295 294 297 295 293 295 294 294 289 288 286 283 275 283 283 283 285 288 287 291 294 293 293
308 308 306 304 295 303 305 298 276 269 287 287 290 292 291 292 293 294 294 293 287 285 286 292 291 294 296 291 293 291 286 279 278 279 275 281 282 287 289 290 290 291 291 291 294
308 306 307 304 302 305 300 286 271 280 288 295 293 293 290 293 291 293 291 289 293 290 287 285 282 292 294 290 288 287 285 277 273 274 275 281 279 285 290 293 293 293 292 292 295
304 298 299 301 305 304 293 272 275 281 291 291 293 289 289 293 292 291 290 290 290 290 284 281 283 293 295 293 291 287 281 285 278 275 271 277 280 286 288 289 290 290 292 293 294
293 294 296 303 305 300 289 281 282 292 293 292 284 288 287 290 289 289 288 291 291 293 291 286 282 290 293 296 293 288 290 282 276 270 272 275 276 280 283 286 289 290 292 294 295
293 292 298 304 304 296 281 278 288 294 293 289 285 285 287 289 291 288 289 291 294 293 292 287 285 286 292 289 289 288 286 286 284 279 274 273 277 284 284 286 288 290 294 295 297
289 287 300 301 292 293 279 288 295 292 293 292 289 288 285 287 286 284 287 289 295 294 289 289 286 282 285 292 295 292 289 287 282 278 276 274 277 286 286 286 290 292 294 295 299
287 289 301 301 288 283 288 291 293 292 291 290 288 290 289 285 284 285 286 292 296 293 289 291 284 280 282 286 291 290 291 290 288 282 277 274 279 289 286 286 292 292 294 296 298
287 282 290 296 295 287 286 288 288 293 292 291 289 290 287 285 287 285 286 291 292 293 298 295 284 280 277 279 284 286 289 291 288 281 282 280 282 288 288 287 289 292 295 297 297
284 282 284 285 287 287 288 289 288 289 292 292 289 289 286 283 284 284 287 287 290 295 290 288 279 280 282 285 284 284 285 288 287 288 283 286 284 288 289 289 289 291 295 295 295
281 280 284 282 284 286 288 288 287 288 292 290 287 290 287 286 285 284 287 285 286 287 286 287 277 279 277 283 284 283 284 286 288 289 288 288 286 291 293 289 290 292 295 296 295
285 286 284 282 279 283 280 284 286 288 294 293 290 288 288 290 291 291 290 289 289 287 285 284 279 274 272 281 281 278 282 283 285 288 289 286 290 290 290 290 292 293 295 295 296

GFSSW_sfc_thetae_054.txt.gz
Theta_e
316 315 315 316 315 316 316 315 315 314 313 311 312 313 314 314 315 310 305 311 314 323 322 316 313 311 316 311 316 312 300 295 296 298 300 306 303 308 309 306 308 321 321 325 329
314 315 314 314 315 315 314 313 313 313 312 311 311 312 312 313 307 303 312 319 323 321 314 310 306 308 306 306 311 306 299 299 302 303 302 307 306 306 305 305 302 308 313 326 328
314 314 314 313 313 313 313 312 312 311 311 310 310 310 312 310 299 297 315 320 322 319 315 312 309 306 300 304 304 306 299 304 303 305 308 307 307 309 304 302 303 305 309 315 325
316 313 313 312 312 313 312 311 311 310 309 309 310 310 311 305 285 302 316 319 322 318 313 310 306 300 297 299 305 299 303 306 306 308 308 305 308 304 305 306 309 309 310 311 322
316 315 312 313 311 311 311 311 310 310 310 309 309 309 304 296 295 307 314 311 310 313 308 307 303 299 296 300 303 299 302 305 309 308 307 309 307 307 306 310 311 309 309 316 322
314 315 314 311 311 310 311 311 311 310 310 309 309 308 300 289 302 305 306 305 307 306 306 307 304 303 299 298 300 304 305 304 307 307 308 306 306 307 308 310 308 308 308 310 320
311 313 313 312 311 311 310 310 310 309 310 310 309 306 297 292 303 305 305 303 308 307 304 309 310 304 301 297 304 303 300 303 304 306 305 306 301 302 308 310 307 306 307 305 310
313 310 311 312 311 311 311 311 310 309 309 309 309 301 292 304 307 305 305 304 309 311 310 312 312 305 301 301 300 297 297 294 300 304 305 303 295 303 309 307 305 305 306 305 304
312 311 309 309 311 311 311 311 310 309 309 309 300 296 290 307 301 304 305 302 308 310 311 311 310 302 300 294 291 293 287 287 293 304 303 300 295 304 309 307 304 305 305 305 302
311 311 310 308 309 311 311 310 309 306 304 305 303 292 295 293 300 303 308 308 305 307 304 305 302 296 293 291 284 287 284 286 288 298 301 298 293 302 306 304 304 305 306 303 301
311 311 310 308 309 310 304 296 292 289 293 291 290 290 293 298 302 302 306 304 303 302 293 299 292 287 290 289 289 289 287 287 289 296 295 297 297 297 305 303 302 303 305 300 300
310 310 309 308 308 311 299 291 293 293 286 294 295 294 297 298 294 300 305 296 295 291 295 293 288 292 295 294 291 289 286 284 289 294 295 293 294 298 298 302 304 304 304 301 298
309 310 309 307 308 300 294 294 301 300 288 292 295 294 296 300 295 296 300 298 292 290 289 289 291 295 294 292 289 286 286 285 287 291 291 291 290 293 298 298 299 302 304 299 297
309 308 308 307 300 297 294 299 301 299 278 288 292 296 300 300 292 302 303 296 291 289 290 292 296 294 292 291 290 284 290 289 288 287 281 289 281 289 295 296 297 299 300 298 296
308 308 307 307 296 294 298 301 299 295 269 290 294 304 299 295 294 297 304 299 289 291 290 290 293 293 291 291 293 287 291 289 287 283 282 281 281 286 288 290 297 299 298 298 297
307 308 307 304 303 300 305 304 297 275 272 288 294 292 292 294 295 298 299 302 299 293 293 294 297 295 293 294 292 292 288 287 284 283 274 281 282 284 286 288 290 292 297 298 296
307 308 305 303 295 303 305 297 274 271 287 286 289 291 292 291 293 294 292 291 287 284 285 291 292 293 295 290 291 289 286 276 277 275 274 280 280 286 288 290 290 292 293 293 293
307 306 306 303 304 305 300 285 271 279 287 294 293 293 288 291 292 292 291 288 293 290 286 285 283 290 293 290 287 288 286 277 273 273 275 280 278 283 289 290 292 294 293 292 292
303 297 298 302 305 303 293 271 274 283 292 291 291 288 289 292 290 291 290 290 291 291 285 284 284 294 295 293 290 286 284 284 277 273 271 277 280 285 287 288 290 290 290 290 293
293 293 296 304 305 300 290 281 281 289 292 294 286 290 287 289 289 289 289 290 291 294 290 284 283 290 293 294 292 287 289 280 276 269 271 274 275 279 284 286 288 289 290 291 294
293 292 299 305 303 295 284 278 287 293 292 288 285 286 289 289 290 288 287 290 293 293 291 287 285 286 291 289 289 287 284 285 283 278 272 272 277 283 284 286 285 287 290 292 294
289 289 301 303 291 293 286 287 294 291 293 291 288 288 285 290 289 287 286 289 294 294 287 288 285 283 286 292 295 293 287 285 277 276 275 274 279 287 285 286 286 288 290 293 296
286 290 301 301 287 285 287 290 292 291 290 290 288 289 288 285 285 287 288 292 295 291 288 289 281 280 281 286 290 289 291 290 286 282 274 276 280 288 288 287 289 289 290 293 295
286 282 290 296 293 287 284 286 287 293 291 290 288 289 286 285 287 285 286 292 294 292 299 293 283 279 276 279 284 285 289 290 288 283 282 282 284 289 289 288 288 290 291 294 295
283 281 283 279 285 287 287 288 286 288 292 291 287 288 285 282 284 283 286 287 291 296 292 291 280 280 282 283 284 284 285 288 287 287 283 286 286 289 291 292 288 290 292 294 294
281 280 283 280 281 284 286 287 285 287 289 288 287 289 287 285 284 283 285 284 285 287 286 286 278 280 279 283 283 282 284 285 287 288 289 289 287 295 291 289 288 290 292 294 295
283 284 283 280 279 283 279 284 286 289 292 291 290 287 287 289 290 289 289 288 287 286 284 285 279 274 272 280 280 277 282 283 284 287 288 284 289 291 292 293 291 290 292 295 296

GFSSW_sfc_thetae_057.txt.gz
Theta_e
315 315 315 314 313 315 314 314 314 314 313 313 312 313 313 314 315 309 304 311 315 323 321 317 316 314 317 314 316 314 301 296 298 299 301 308 306 310 311 310 311 316 316 322 332
317 315 314 314 313 314 313 313 313 312 313 312 312 312 312 312 307 303 311 318 322 322 314 311 309 310 310 309 312 308 299 300 304 304 304 307 307 308 307 306 306 310 314 315 330
317 317 314 313 313 312 313 312 312 311 311 311 311 311 312 310 300 298 317 317 320 320 315 313 311 308 305 307 307 306 300 304 305 307 309 307 307 310 306 304 307 307 310 313 319
315 316 315 313 313 311 312 312 311 311 311 310 310 311 310 305 285 303 316 317 318 316 313 310 308 301 300 301 306 302 305 306 307 308 308 305 309 306 307 308 311 312 310 313 316
312 313 314 314 311 311 311 312 311 311 310 310 310 309 305 296 295 305 312 310 309 312 308 307 304 301 297 302 305 302 304 306 308 308 308 309 307 307 307 311 313 311 311 311 315
313 312 311 313 313 310 311 311 311 310 310 310 309 309 300 288 302 304 305 305 307 309 307 308 305 304 300 302 301 304 305 304 307 307 308 306 306 307 308 311 310 310 310 311 310
313 312 311 310 312 312 311 312 311 310 309 310 309 305 297 293 303 305 306 304 307 307 304 308 310 304 303 299 304 303 300 303 304 306 306 308 302 303 309 311 308 309 309 310 310
313 312 310 311 309 311 312 311 311 311 309 309 309 301 291 304 307 304 305 303 306 306 309 311 311 305 302 304 301 298 299 294 302 305 306 305 295 304 309 309 307 308 309 309 310
313 312 311 310 309 310 311 311 311 310 310 309 301 297 290 307 300 302 304 302 305 307 309 311 309 302 301 297 293 294 290 291 295 305 304 302 297 304 309 308 307 308 308 308 309
312 311 311 310 309 309 311 311 309 306 304 304 302 292 295 293 299 301 307 306 303 304 303 302 301 297 295 294 284 288 288 290 292 301 302 299 296 303 307 307 306 307 308 309 308
311 310 310 309 308 309 304 295 292 290 294 290 289 290 293 298 302 301 305 304 304 301 293 297 289 289 293 292 292 291 290 290 293 300 300 299 298 299 306 305 304 306 306 306 307
310 310 310 308 308 309 298 290 292 293 287 293 294 294 296 298 294 299 305 296 297 291 293 289 287 293 296 295 292 293 288 289 292 297 298 297 297 301 302 304 304 304 307 309 306
310 309 309 308 307 301 293 294 301 300 286 292 295 294 296 299 295 295 301 297 294 291 288 288 291 295 295 292 290 289 289 287 289 293 295 293 292 295 300 303 305 305 307 307 306
309 308 308 306 299 296 293 299 300 298 276 287 292 296 299 299 292 302 303 296 293 289 290 292 295 293 293 291 291 287 291 291 290 289 286 292 284 290 296 296 299 303 305 305 305
307 308 308 305 296 294 297 301 299 294 269 289 293 304 300 294 294 296 303 297 290 290 291 290 291 291 291 292 293 289 292 290 289 286 286 286 286 288 292 294 297 300 301 302 304
308 308 307 302 303 298 304 304 295 276 272 287 294 292 291 292 295 297 298 300 298 293 293 292 298 296 294 294 293 292 289 288 286 285 280 284 285 285 288 290 293 298 302 302 303
308 308 304 302 294 304 304 297 275 270 287 287 288 292 291 291 293 294 292 289 287 284 285 292 293 295 296 291 293 291 287 281 280 280 278 282 282 287 290 292 293 294 295 297 300
306 306 305 302 304 304 300 286 273 282 287 294 293 292 289 291 291 292 289 286 291 290 286 285 282 292 294 291 289 289 288 279 274 275 278 282 280 286 291 293 293 294 295 295 295
305 299 297 303 305 303 293 271 280 285 292 290 291 287 288 291 291 291 290 290 292 291 286 285 285 294 294 293 292 289 285 285 278 277 276 280 282 287 288 290 291 292 293 293 294
293 293 295 304 305 300 290 281 285 289 293 294 286 289 285 287 288 289 288 292 291 294 292 287 284 291 293 294 293 289 290 283 280 272 274 277 278 282 286 289 290 290 290 293 294
293 292 298 305 303 295 285 283 288 294 293 288 286 286 289 289 288 287 287 291 294 293 291 288 285 287 292 290 288 287 285 285 284 280 276 275 279 285 287 289 288 289 289 292 294
290 290 301 303 291 293 287 289 295 292 292 290 290 289 288 290 289 286 285 289 295 294 288 288 286 283 286 292 294 292 287 286 280 277 277 277 279 289 288 289 288 290 292 294 296
286 293 301 301 286 287 289 291 293 290 289 288 288 289 288 285 284 286 287 293 294 291 289 289 283 280 282 287 290 289 291 289 285 282 276 278 281 289 289 290 291 292 293 294 297
286 281 290 297 294 288 287 287 287 292 290 290 288 288 286 285 287 285 287 292 293 294 297 293 284 280 277 280 285 285 288 291 289 284 284 282 285 290 292 293 293 292 294 295 296
283 281 283 279 283 287 288 287 286 287 291 290 287 287 284 282 283 284 286 288 292 296 293 290 280 280 283 284 286 285 286 288 286 287 283 286 285 290 292 292 293 292 292 294 295
281 281 281 279 280 282 286 287 285 286 288 287 286 288 287 285 284 283 285 285 285 288 290 287 280 281 278 283 284 283 284 285 287 288 288 288 287 294 296 294 294 293 291 293 295
282 284 282 280 278 283 281 284 287 289 292 291 288 287 287 288 289 289 289 287 287 286 284 284 280 276 275 281 281 278 283 284 285 287 288 285 290 293 292 293 294 295 294 292 295

GFSSW_sfc_thetae_060.txt.gz
Theta_e
319 317 315 315 315 313 314 313 313 313 313 313 313 313 313 313 313 310 304 309 315 322 322 317 317 318 319 314 320 318 303 299 301 301 303 311 309 312 315 315 316 318 316 318 333
316 318 316 314 314 312 313 312 312 312 312 312 312 312 312 312 305 301 310 317 319 320 315 312 310 314 312 311 313 310 301 302 307 307 306 309 310 310 310 311 313 315 318 321 333
313 315 316 314 312 312 313 312 312 311 311 311 311 312 312 311 300 299 315 317 318 318 314 314 314 311 307 311 308 309 302 308 308 309 310 309 309 312 309 308 312 312 315 318 320
315 313 313 315 314 312 311 312 312 311 311 310 310 311 311 307 288 305 313 315 317 316 310 310 310 306 303 303 308 304 309 308 309 310 309 307 310 308 309 311 314 315 316 318 318
314 314 313 312 314 312 310 311 312 311 311 310 310 310 306 298 297 307 311 309 311 311 306 306 305 305 300 304 307 305 308 310 310 310 310 311 307 307 309 313 316 315 316 316 317
315 314 312 311 311 313 311 312 311 311 310 311 310 310 301 291 305 307 307 307 307 309 306 307 306 307 303 303 305 308 307 308 310 309 310 307 308 309 310 314 314 314 314 315 316
314 313 312 311 311 310 312 311 312 311 310 310 309 307 299 294 305 307 307 305 308 309 304 308 310 305 306 302 307 306 303 305 306 307 305 310 305 305 311 314 312 313 314 314 316
314 313 312 311 310 309 310 312 311 311 311 310 309 305 294 305 308 305 306 305 306 311 307 311 310 307 305 307 305 301 302 296 303 307 307 307 299 307 311 311 311 312 314 314 315
314 312 311 311 309 308 309 312 312 311 310 310 304 300 292 307 300 304 305 302 305 306 309 311 306 305 304 299 296 298 292 295 298 307 307 305 300 306 310 310 309 311 313 314 315
312 311 311 310 309 308 309 311 308 309 306 306 304 295 298 293 300 302 306 307 303 304 301 301 296 298 299 296 287 291 293 295 296 303 304 303 302 304 309 309 308 310 312 313 314
311 311 310 310 309 308 309 304 299 296 299 293 292 293 295 300 305 301 305 303 303 300 293 297 289 290 295 296 295 295 294 294 298 304 302 301 301 304 306 308 308 309 310 312 314
310 310 310 309 308 309 307 297 296 298 292 296 295 296 299 300 294 298 306 297 296 291 295 292 288 291 298 297 295 295 292 293 297 303 302 301 300 304 306 307 308 309 309 312 313
310 309 309 308 307 306 302 298 305 303 293 294 298 297 298 301 295 294 301 298 294 292 293 289 292 295 297 295 294 294 292 293 294 300 301 299 297 301 306 307 308 310 310 310 312
309 308 308 308 302 303 299 303 306 304 288 289 293 297 299 301 293 303 303 297 294 290 293 291 296 293 296 293 295 291 297 296 296 294 289 299 287 296 300 302 304 307 309 309 311
308 308 308 306 303 300 301 305 305 301 279 291 293 305 301 295 296 296 304 299 292 292 293 290 292 293 294 294 296 292 297 296 295 292 291 291 289 293 297 297 300 304 306 309 311
308 308 306 303 305 304 305 305 302 286 278 288 294 292 292 294 295 298 298 302 300 294 293 294 298 297 296 298 297 297 295 294 294 292 285 290 289 290 293 296 299 303 305 308 309
308 308 305 306 301 306 306 301 286 282 289 288 290 291 290 290 292 294 293 291 289 285 285 292 293 298 298 294 296 296 293 285 283 283 283 288 288 291 296 298 300 300 301 304 308
306 306 306 306 307 306 303 292 282 285 288 295 293 293 289 291 291 292 289 289 293 292 288 285 283 293 297 296 292 293 292 286 278 280 283 287 285 291 298 300 302 300 301 302 303
305 306 305 306 307 306 297 287 285 287 293 291 293 288 289 292 291 291 290 290 292 293 289 286 284 295 296 296 296 292 289 290 285 284 285 287 289 295 298 297 299 299 299 300 301
304 303 303 307 307 302 294 285 288 291 294 294 287 290 286 289 288 289 289 293 291 295 295 291 285 293 294 297 296 294 295 286 289 280 278 283 285 288 292 295 297 298 298 299 300
303 298 304 306 306 296 288 287 290 296 296 291 289 288 288 289 291 289 289 292 295 294 295 292 291 288 295 292 291 291 290 290 291 288 282 281 285 294 294 295 296 297 299 300 301
301 293 305 305 294 294 290 291 295 295 296 294 295 292 290 291 289 288 289 292 298 295 289 293 292 286 288 294 297 295 293 293 286 284 286 285 286 296 295 295 295 298 300 301 301
297 295 303 303 290 290 291 292 294 294 293 292 292 292 292 291 288 290 291 296 297 295 292 294 289 283 284 289 293 292 294 293 291 290 285 283 287 294 295 295 297 299 301 302 302
296 289 294 298 296 290 290 290 291 296 294 293 292 293 291 290 291 289 290 294 297 297 297 297 289 287 284 287 291 288 291 293 291 286 286 287 289 294 296 297 300 301 302 302 302
293 291 292 288 290 292 292 291 290 290 295 295 292 291 290 288 289 289 291 292 295 296 296 295 287 286 287 289 290 289 290 291 289 290 286 289 290 294 297 298 299 301 301 300 300
289 290 289 287 287 290 291 289 288 289 292 291 291 292 292 289 289 288 291 292 292 294 294 293 286 286 284 287 287 286 289 291 291 291 291 291 290 297 299 300 299 300 300 300 300
291 292 292 284 287 290 287 287 287 290 294 295 293 292 292 292 293 295 295 293 294 293 291 291 288 286 283 284 285 282 286 288 289 292 292 287 292 297 296 296 298 299 299 299 301

GFSSW_sfc_thetae_063.txt.gz
Theta_e
315 317 318 315 314 314 313 313 313 313 313 313 313 313 313 313 313 310 304 310 313 320 321 318 316 317 318 315 320 318 301 300 302 302 304 311 309 313 317 317 320 320 319 322 336
315 314 315 317 314 313 312 313 313 312 312 312 312 313 313 313 306 303 312 314 317 319 312 312 308 312 309 312 314 309 301 301 308 309 307 310 310 312 313 314 315 316 321 333 336
316 316 314 314 316 313 312 313 313 312 311 311 311 312 312 311 301 300 314 315 319 318 312 313 311 310 305 310 308 310 303 308 308 310 311 310 310 313 311 310 315 313 317 322 333
316 315 314 313 313 315 312 311 312 312 312 311 311 311 311 307 288 306 313 314 316 316 310 307 309 304 303 302 309 303 309 309 309 311 311 309 312 310 311 312 316 316 317 320 325
316 316 314 313 312 312 314 311 313 312 311 311 311 311 307 299 298 308 309 310 310 313 304 301 304 304 301 304 307 305 307 309 310 311 310 311 308 308 309 313 316 316 316 317 319
315 315 314 313 312 311 312 314 312 313 311 311 311 310 302 292 306 307 307 306 307 308 305 305 304 308 304 302 304 308 306 307 310 309 309 307 307 309 310 314 314 314 314 316 317
315 315 313 313 312 311 310 312 314 312 312 311 310 307 300 296 305 307 307 306 307 308 303 307 309 305 306 301 307 307 301 304 308 308 308 310 303 304 310 312 312 313 314 315 317
314 314 313 312 312 311 309 310 312 312 312 311 309 305 295 305 309 306 306 305 307 309 306 309 309 303 304 306 304 302 302 293 305 307 308 307 298 307 312 311 309 312 313 314 316
313 313 312 311 311 311 308 310 312 312 311 311 305 301 293 307 302 304 306 301 304 307 308 309 305 300 304 298 295 298 293 293 297 306 305 304 299 307 311 310 309 311 313 314 315
312 312 311 311 310 310 309 310 310 309 308 306 304 295 299 295 301 303 307 306 302 303 301 300 295 294 300 296 288 291 292 295 295 302 303 301 299 306 309 310 309 310 311 313 314
311 310 311 310 309 309 307 307 302 299 301 296 295 295 296 302 305 302 305 303 302 299 290 293 286 291 296 298 297 296 293 293 297 303 300 299 300 304 307 309 309 309 309 311 313
311 310 310 309 309 308 307 301 298 301 294 298 298 298 301 302 295 299 306 296 295 290 294 291 287 296 298 298 295 295 294 294 297 303 301 300 299 303 307 308 309 310 310 311 313
310 310 309 309 309 305 303 300 306 305 295 296 300 298 299 302 295 296 300 298 293 290 292 289 291 296 296 295 293 294 293 295 295 299 302 299 297 300 306 308 309 311 312 311 311
309 308 308 309 302 305 301 305 308 306 289 291 294 298 301 301 294 302 302 298 292 292 294 293 296 293 294 294 295 289 296 296 295 295 289 299 288 296 301 303 306 308 309 309 311
308 308 309 307 303 301 304 307 307 303 280 292 294 305 302 295 295 296 303 301 293 293 294 290 292 290 293 294 297 293 298 296 297 294 293 293 290 294 299 298 302 305 308 309 311
308 309 308 305 305 306 307 307 304 286 278 289 295 292 293 295 296 298 299 303 301 293 293 293 299 295 297 298 298 299 297 296 296 292 285 290 290 290 295 297 299 303 305 307 309
308 306 307 308 302 309 308 301 287 282 292 288 290 291 291 291 293 295 294 293 289 285 284 291 291 296 300 295 298 296 292 284 283 284 283 291 289 292 297 299 301 301 303 305 308
307 307 306 308 310 308 305 293 282 287 289 295 294 292 289 292 292 292 291 288 293 291 287 286 284 294 298 296 293 294 292 286 278 281 284 290 285 291 299 301 302 303 303 304 305
306 308 307 309 309 309 297 286 287 289 294 291 293 289 286 290 291 290 290 290 293 295 287 287 285 296 298 298 298 294 290 293 287 288 286 288 291 296 299 298 300 300 301 302 303
307 305 304 309 310 304 294 287 290 293 295 295 288 290 288 288 289 290 290 294 293 296 298 292 285 294 296 299 298 296 297 287 289 280 278 284 286 288 293 295 298 299 301 302 304
306 298 305 310 308 298 290 289 292 298 297 292 291 289 289 288 291 290 289 293 296 295 297 296 291 289 295 293 292 292 291 292 291 289 283 281 285 295 295 297 297 299 301 303 304
303 293 306 308 295 296 293 293 296 296 298 295 296 294 291 292 289 290 289 292 299 297 293 295 292 285 288 295 298 296 293 293 286 285 287 286 287 297 298 298 298 300 302 304 304
299 296 307 305 290 292 294 294 296 295 294 294 294 295 294 292 289 291 293 296 299 296 293 295 290 284 285 291 295 293 295 295 294 292 287 284 287 298 297 297 298 300 303 304 304
299 289 297 299 298 293 293 292 292 297 295 295 294 295 293 292 294 291 292 296 298 298 297 297 292 289 285 288 293 289 292 294 293 287 287 288 289 295 297 298 300 302 303 303 303
299 295 297 288 293 294 295 294 292 291 296 296 293 293 292 290 291 291 293 294 297 297 298 297 289 288 289 291 292 291 291 292 290 291 287 290 290 294 297 299 300 301 301 301 302
293 293 295 295 294 294 293 293 292 292 294 292 292 294 294 291 292 290 293 293 293 297 296 295 287 289 286 289 289 287 291 292 292 292 292 292 291 298 300 300 299 299 300 300 301
296 297 296 290 292 292 292 293 292 294 296 297 295 295 293 293 296 296 297 296 297 295 294 293 289 287 285 287 286 283 288 289 291 293 292 288 293 297 296 297 299 301 301 300 301

GFSSW_sfc_thetae_066.txt.gz
Theta_e
318 317 316 316 318 315 314 314 314 313 313 313 313 313 314 314 313 309 303 309 312 320 319 315 314 313 316 312 316 316 301 297 300 301 303 309 307 312 315 314 316 317 317 329 335
316 316 316 316 315 316 314 313 314 313 313 312 312 312 313 313 306 301 311 317 315 318 310 308 307 310 307 308 311 306 299 300 306 307 305 308 308 309 310 312 311 316 329 333 334
317 317 317 315 314 314 316 313 313 315 313 312 312 312 312 311 301 301 315 315 315 317 311 310 309 308 304 307 307 307 300 305 306 309 310 308 308 312 310 308 312 311 319 330 331
317 317 316 315 314 314 314 315 312 313 313 312 312 313 312 307 288 306 312 312 314 314 311 306 303 302 300 300 307 301 306 307 308 311 311 307 310 308 310 310 313 313 316 327 328
316 316 316 315 314 313 312 313 314 314 313 312 312 312 306 298 297 309 309 308 308 311 306 302 298 301 298 301 303 302 306 308 310 310 310 311 308 307 308 312 314 314 316 316 325
316 316 315 314 313 313 312 311 313 315 313 312 311 311 302 291 305 306 307 306 305 307 304 303 299 303 301 301 301 305 306 307 309 308 309 306 306 307 308 311 311 313 312 313 316
316 315 314 314 313 312 312 310 311 313 313 313 311 306 299 295 305 306 306 305 306 306 302 303 303 300 303 299 304 306 301 303 305 308 306 308 302 303 308 310 309 311 311 313 314
315 314 313 313 312 312 312 309 310 312 313 312 312 304 294 306 307 304 305 304 306 308 306 307 306 303 301 305 301 299 301 294 300 305 307 305 296 305 308 307 307 308 309 311 313
314 313 312 312 311 311 311 309 310 312 312 312 306 301 292 307 301 303 304 300 303 306 306 307 305 299 298 296 293 296 291 293 293 301 304 302 298 305 308 308 306 307 308 310 311
313 312 311 311 311 310 310 309 311 309 309 307 304 294 298 295 301 303 306 305 301 302 299 297 295 291 292 294 284 289 290 294 292 297 300 299 299 304 306 308 306 307 308 309 310
312 311 311 310 310 309 307 305 300 297 301 296 295 295 296 301 305 302 305 302 301 298 289 292 288 286 289 295 295 294 293 291 295 301 298 299 299 300 304 306 306 306 307 308 310
311 311 310 309 309 309 305 299 299 301 292 300 298 298 300 302 295 299 305 296 294 288 292 289 285 291 295 296 295 294 292 291 296 301 300 297 296 300 302 303 305 305 305 306 309
310 310 308 309 309 305 301 302 306 305 293 296 300 298 299 300 295 296 301 298 293 288 289 289 290 294 296 295 293 292 290 291 293 298 300 297 293 297 301 304 305 306 307 307 307
309 308 308 309 304 304 300 306 308 306 287 291 294 298 300 301 293 301 302 298 292 288 292 291 294 294 294 292 294 289 296 296 295 292 287 296 283 293 298 300 304 304 304 305 306
308 307 308 309 303 300 304 308 308 302 277 293 294 304 302 295 295 296 303 299 290 292 293 289 291 292 293 293 295 291 296 294 294 291 289 290 284 288 296 294 299 302 304 305 305
308 308 308 304 304 306 308 307 303 285 274 289 295 293 293 296 296 297 299 302 301 295 295 293 297 295 295 298 298 298 295 294 293 290 278 286 286 285 289 293 297 303 304 305 305
307 306 306 307 302 309 308 301 285 280 291 288 289 291 292 291 293 294 293 292 289 285 284 291 290 296 298 294 297 295 289 279 278 276 277 287 284 286 293 295 296 296 297 299 302
307 306 306 308 309 309 304 292 281 287 289 295 293 292 289 292 291 292 290 288 293 292 287 285 281 292 298 295 290 292 289 281 275 274 279 287 280 287 294 297 298 298 297 297 297
307 306 306 307 309 308 296 284 284 289 293 291 292 286 285 290 291 290 290 289 291 294 287 285 285 296 298 298 296 290 285 290 284 283 280 283 286 291 295 295 296 296 297 296 297
305 304 303 309 310 304 292 287 290 294 295 295 288 290 286 287 288 289 290 293 292 295 297 291 283 293 295 297 296 294 294 284 283 276 276 280 282 283 289 292 295 295 295 297 299
304 298 305 309 308 297 288 289 292 297 297 293 291 289 288 287 289 289 289 292 295 294 296 294 288 288 293 290 289 290 289 290 288 283 278 277 280 289 291 293 293 295 296 296 297
302 292 306 308 292 294 290 292 296 296 298 296 296 293 291 292 289 290 288 292 298 296 291 293 290 285 288 294 296 295 290 290 282 281 282 280 281 292 293 294 294 296 296 297 299
297 296 305 304 289 290 294 294 296 295 295 294 294 295 295 292 287 292 292 297 297 295 291 292 288 282 284 290 293 291 293 293 290 288 282 278 281 294 294 293 294 294 295 298 299
297 288 296 298 296 292 292 292 292 298 295 296 294 295 293 291 294 291 290 296 298 298 298 297 290 285 282 283 289 286 291 293 290 281 284 284 286 289 291 292 293 294 295 295 297
297 292 294 287 290 293 295 294 291 291 296 296 293 293 292 288 290 289 292 294 296 297 295 294 285 282 287 290 290 289 289 290 286 288 282 286 287 290 292 293 293 295 296 297 297
292 292 294 293 294 292 293 292 291 293 294 292 292 293 293 290 290 289 291 292 290 294 293 293 284 284 280 287 287 283 288 289 290 290 291 291 289 294 295 294 295 296 297 297 298
295 296 294 293 291 290 291 293 293 295 296 296 295 294 291 292 294 294 295 294 294 292 292 291 284 280 280 284 283 278 285 287 289 290 289 286 289 292 294 296 296 296 297 295 295

GFSSW_sfc_thetae_069.txt.gz
Theta_e
317 317 318 316 315 315 316 315 314 315 314 313 313 313 313 314 313 307 302 307 310 320 318 312 311 313 312 310 314 314 298 295 296 298 300 307 306 309 312 312 316 318 321 329 334
317 318 318 317 315 314 314 316 314 313 315 314 313 313 313 313 306 301 309 315 317 317 309 306 303 307 303 305 309 306 298 298 302 304 303 305 306 308 308 309 316 323 330 334 334
317 317 317 317 316 314 313 314 315 313 313 314 313 313 313 311 300 298 313 314 313 316 309 309 308 305 301 304 304 306 298 304 305 308 311 307 305 310 308 305 310 320 325 330 331
318 317 317 317 316 315 314 313 313 315 314 313 312 312 313 306 286 304 313 312 313 313 309 305 303 299 299 298 304 300 305 305 307 310 310 306 308 306 309 307 311 322 329 329 330
318 318 316 316 315 314 314 313 311 313 315 314 312 311 306 297 297 310 310 308 308 310 304 302 299 298 296 300 300 300 303 307 308 311 309 310 306 305 306 309 312 314 327 327 329
317 317 315 315 314 314 312 313 311 311 313 314 312 311 301 290 303 308 306 305 305 306 303 304 299 301 299 299 299 302 303 305 308 308 309 307 305 306 307 310 310 311 313 321 327
316 316 315 314 314 313 313 312 311 310 312 314 312 307 298 295 304 304 305 303 306 305 301 304 302 298 299 298 303 302 299 303 306 307 305 307 302 301 306 309 308 308 310 312 315
316 315 314 312 312 312 312 311 311 309 311 313 311 304 293 306 303 303 303 303 306 306 306 306 305 300 298 300 300 296 299 294 301 306 306 303 295 304 307 305 305 306 307 310 312
315 314 313 311 311 311 311 311 310 310 312 311 304 301 292 307 301 303 303 300 303 305 305 306 303 299 300 293 292 293 289 292 294 304 303 303 295 304 307 305 303 304 305 307 310
314 313 312 311 311 310 310 309 310 309 307 307 305 296 296 295 302 303 304 304 300 300 298 297 294 292 292 291 284 287 289 293 292 296 301 298 297 302 306 304 303 303 304 305 307
313 312 311 310 309 308 306 301 297 294 298 294 295 294 297 302 305 302 304 302 300 296 289 292 287 286 288 291 292 292 291 291 295 298 296 296 296 300 303 303 302 302 303 304 306
311 311 309 308 308 309 302 296 298 297 289 299 298 298 300 302 294 299 305 295 293 288 291 288 284 291 294 293 292 294 291 291 296 299 296 295 294 299 302 301 302 303 303 304 306
310 309 308 308 309 305 298 300 304 302 289 296 299 298 299 300 295 296 300 297 291 288 289 287 289 294 293 292 292 292 291 292 292 296 298 296 292 296 301 301 303 303 304 305 305
309 308 307 308 303 303 300 304 304 302 285 290 294 298 300 298 293 301 302 297 292 288 287 289 294 294 292 292 294 286 294 295 295 292 286 296 284 293 298 298 300 300 301 304 305
308 307 307 308 300 300 304 304 303 298 270 292 293 304 302 295 295 295 303 296 289 290 292 288 290 293 291 293 296 292 297 296 295 291 289 290 283 288 296 294 297 299 301 302 305
308 308 308 303 301 305 304 303 299 283 266 289 294 292 293 295 295 296 298 299 297 294 293 291 297 295 295 298 297 298 294 293 292 289 278 288 286 284 287 294 295 300 301 302 303
307 308 306 305 301 304 303 297 285 277 289 288 289 291 292 291 293 294 292 290 287 282 285 289 291 295 298 293 295 294 288 280 278 277 278 286 285 285 289 292 294 297 296 299 301
308 307 306 307 305 304 301 288 279 285 288 294 292 292 288 291 291 292 289 285 292 290 286 279 279 291 297 292 288 288 287 279 274 273 278 285 281 285 291 294 295 296 296 295 294
308 301 302 305 306 303 294 283 281 288 293 291 291 285 285 289 290 290 288 287 291 293 286 285 284 294 296 296 293 290 281 287 281 280 276 280 284 289 291 292 293 295 295 294 295
299 299 301 306 305 301 290 285 288 294 295 295 287 290 285 286 286 286 288 291 291 294 295 289 283 293 295 296 295 291 291 281 279 272 274 278 279 282 287 289 293 294 294 296 297
300 295 302 306 302 295 286 287 291 297 296 293 289 287 287 287 287 287 286 291 293 292 294 291 287 286 291 289 288 289 288 288 286 282 277 275 278 286 288 291 291 293 295 295 296
298 288 304 303 290 292 288 292 296 295 296 295 296 293 289 290 288 287 286 290 295 294 289 291 287 282 283 293 293 292 290 290 282 281 281 278 280 290 291 292 294 294 295 295 296
294 294 304 301 282 288 293 293 296 294 293 294 293 293 296 290 287 290 289 297 296 295 289 291 282 280 280 286 290 289 291 292 288 286 280 277 280 291 291 291 292 293 294 295 296
292 287 295 296 292 287 288 290 291 295 293 294 292 292 290 289 293 289 290 295 296 296 299 295 287 280 276 280 287 285 290 291 287 277 282 283 283 287 290 291 293 293 293 294 296
293 287 290 286 286 288 289 291 291 289 294 293 290 291 291 288 290 289 291 293 295 297 294 292 281 281 286 288 288 287 288 289 285 286 281 285 285 288 289 290 291 293 296 296 295
290 288 290 287 289 288 289 289 291 291 292 289 289 291 291 289 287 287 291 292 290 292 291 291 281 282 279 287 286 283 287 287 289 289 289 288 287 291 292 294 294 294 295 294 294
292 291 290 289 286 286 287 289 293 293 294 294 293 290 289 290 290 290 292 293 292 291 290 288 281 277 276 282 281 277 283 286 287 288 288 285 288 291 292 294 293 293 295 294 295

GFSSW_sfc_thetae_072.txt.gz
Theta_e
317 318 319 319 317 315 314 315 316 314 314 314 314 313 313 313 313 306 300 306 309 319 319 311 308 310 312 306 311 311 298 294 296 295 297 305 304 308 312 313 322 324 324 327 331
318 318 318 318 317 316 314 313 314 316 313 314 314 313 313 313 304 300 309 315 316 317 308 305 301 305 302 303 306 304 297 296 302 303 302 305 303 306 308 312 318 323 330 330 331
318 318 318 318 317 317 316 314 312 313 315 314 314 313 313 310 299 298 314 313 313 313 309 306 306 303 298 302 302 304 298 302 303 306 308 306 304 308 307 305 316 319 326 329 331
318 318 319 317 316 316 315 315 314 312 313 315 314 312 312 305 283 303 314 311 311 313 308 304 301 297 296 295 301 297 304 304 307 309 310 306 307 306 306 306 317 325 329 330 329
318 318 318 316 315 315 314 313 313 312 312 314 314 311 305 296 295 309 312 308 306 309 304 300 297 296 293 296 299 297 301 305 307 310 309 311 307 306 304 308 319 327 328 325 329
318 317 317 316 314 314 314 313 312 312 310 313 313 310 300 288 302 308 306 304 304 305 303 302 298 299 296 296 297 299 301 303 307 307 309 307 306 306 306 308 313 323 324 325 327
318 317 316 315 313 313 313 313 312 310 310 312 313 308 298 293 303 304 304 302 304 303 301 301 301 299 298 296 301 300 297 301 303 305 306 308 303 301 306 309 307 311 317 322 325
318 316 315 314 312 311 312 312 311 310 309 311 312 303 292 305 302 302 302 301 304 305 305 304 303 299 296 298 298 296 297 292 300 304 305 305 296 303 305 306 305 305 308 312 319
317 315 314 313 311 311 311 310 310 310 310 312 303 298 291 306 301 302 301 299 302 304 304 305 302 297 297 292 291 292 288 291 295 305 304 301 297 304 308 304 302 303 303 306 308
316 314 313 312 311 310 309 310 309 308 307 307 305 295 296 294 301 302 304 304 300 299 298 297 293 291 291 289 282 287 287 291 291 298 299 299 297 300 305 304 301 302 303 303 306
314 313 311 311 310 309 305 299 295 293 297 292 294 293 296 301 305 301 304 301 300 295 288 293 287 283 288 292 291 290 290 290 293 299 297 297 296 300 302 302 300 300 302 302 304
313 312 310 309 308 308 301 294 296 296 288 297 298 297 300 301 294 299 305 293 292 286 290 287 284 288 293 293 291 291 290 291 295 298 297 296 295 299 301 301 301 302 302 303 304
313 311 310 308 308 304 297 298 303 301 288 294 298 297 298 300 294 296 300 296 290 287 288 285 289 293 292 291 290 291 290 290 291 296 298 294 292 295 299 302 302 303 304 303 304
312 310 309 307 301 300 297 303 303 300 277 289 293 297 299 300 293 300 302 296 292 287 288 288 294 292 291 289 291 286 295 294 292 292 286 294 284 292 296 298 300 300 300 301 302
311 309 308 307 299 297 302 303 302 295 267 291 292 303 301 295 295 295 303 297 289 288 288 287 291 291 289 291 295 289 296 295 293 288 288 288 285 287 296 294 297 298 299 300 302
310 309 308 304 300 303 303 302 298 277 267 287 293 291 293 295 294 296 296 298 296 291 292 291 296 296 294 296 296 296 294 293 292 289 282 286 286 284 288 294 296 297 298 300 302
309 309 306 303 297 303 302 295 277 270 286 287 288 290 290 290 292 292 292 291 288 282 282 288 291 296 298 293 295 293 287 282 280 279 277 288 285 286 290 292 296 297 298 298 299
309 309 306 305 305 303 298 290 269 281 286 293 291 291 287 290 289 291 290 285 292 290 286 283 282 291 297 292 290 290 285 279 276 276 278 285 281 286 291 292 294 294 292 292 293
309 302 302 303 305 302 292 280 276 282 292 290 290 285 284 287 288 287 286 287 290 292 284 282 285 294 296 294 292 289 285 286 280 279 279 281 285 289 291 291 293 294 294 294 295
301 299 299 305 304 298 289 282 285 293 294 293 286 289 281 283 283 286 286 290 290 293 293 286 282 291 293 294 294 290 291 280 278 273 275 278 279 283 287 289 292 292 293 294 295
300 295 301 305 302 294 280 281 290 296 295 293 287 287 285 284 286 285 284 289 292 291 292 289 285 284 289 287 286 287 285 286 283 280 275 274 277 285 287 291 290 291 293 294 295
298 289 303 303 291 292 286 292 295 295 295 295 295 291 285 287 286 284 284 288 294 292 287 290 285 281 283 291 292 291 288 286 277 277 278 277 279 288 290 291 292 292 293 293 294
294 294 304 301 285 287 292 291 295 293 293 294 294 294 294 289 285 286 288 294 295 292 288 289 281 273 278 284 289 288 290 290 287 283 278 276 279 290 289 289 291 292 292 293 294
293 287 295 297 293 289 290 289 291 296 292 294 292 293 290 289 290 286 287 295 295 294 298 295 285 279 276 279 285 283 288 289 286 277 281 282 282 284 288 290 291 292 293 294 294
293 287 291 285 287 288 289 290 289 288 292 292 289 290 290 287 289 288 291 292 294 296 293 290 280 279 284 286 287 286 286 288 283 284 279 284 284 286 288 290 291 293 294 293 293
291 287 288 285 287 288 290 288 289 290 290 288 288 290 290 287 287 286 291 291 287 289 289 289 278 281 278 285 284 283 285 286 288 287 286 287 286 289 290 293 292 292 294 293 293
293 291 290 287 284 287 287 288 292 292 292 292 291 289 288 288 289 290 293 291 291 290 288 286 281 277 275 281 281 278 282 284 286 287 288 285 288 291 290 292 292 290 291 291 292

GFSSW_sfc_thetae_075.txt.gz
Theta_e
319 319 319 318 318 318 316 315 314 315 315 314 315 314 313 313 313 305 298 303 308 318 319 309 307 306 308 305 308 308 297 293 296 295 298 302 301 307 312 313 321 321 323 325 328
319 320 320 319 318 318 318 317 314 313 315 315 314 314 313 313 303 299 308 314 317 316 308 303 300 302 298 300 303 299 295 295 301 302 298 303 302 305 310 314 317 322 328 329 329
320 320 319 320 318 317 316 317 316 313 313 314 315 314 312 309 297 296 314 316 313 313 307 305 304 301 295 298 298 298 294 299 302 305 307 307 305 307 307 308 316 318 322 327 329
321 320 319 320 317 316 315 315 314 314 313 313 315 313 312 303 280 301 315 313 311 311 307 302 300 294 293 291 297 294 299 302 303 306 308 305 308 304 306 308 317 325 325 325 327
322 321 318 318 317 315 315 315 313 313 312 311 314 312 303 294 294 305 314 310 307 308 302 298 295 294 290 293 295 295 297 302 305 308 309 310 307 305 304 309 324 327 326 324 327
323 320 318 317 317 314 313 314 313 313 310 310 313 311 299 287 299 304 308 303 303 304 301 300 297 298 294 292 293 296 297 299 304 305 308 305 306 306 306 309 321 325 324 325 327
324 320 318 316 316 314 312 312 312 311 310 310 312 308 298 293 301 303 303 301 303 302 299 301 301 296 296 292 296 296 294 297 300 303 304 307 302 302 306 309 315 319 321 324 326
324 320 317 316 314 312 311 311 311 311 310 310 312 303 290 303 302 301 302 300 302 303 303 303 303 297 295 297 295 292 295 288 298 302 305 304 294 305 307 306 306 311 313 318 323
321 319 316 315 313 311 311 310 310 309 309 309 304 297 290 306 300 302 300 298 300 303 303 304 300 296 294 288 288 290 286 287 294 302 302 301 296 305 308 305 304 304 304 307 314
320 318 315 314 312 310 309 309 309 308 306 306 304 294 296 293 299 301 302 303 299 298 297 296 293 288 290 287 281 284 285 288 291 298 300 298 296 302 305 303 301 301 304 304 306
320 316 314 312 310 309 305 298 296 293 297 292 293 293 295 300 303 299 303 300 298 295 287 292 286 283 286 289 291 289 287 288 293 299 297 297 296 300 303 303 301 300 301 302 303
319 314 313 311 309 308 301 293 295 295 287 296 297 297 299 300 294 298 303 292 291 284 289 287 283 288 292 291 291 290 287 289 292 297 297 294 295 299 302 302 302 301 302 301 302
317 314 312 310 308 305 297 296 302 299 286 292 297 296 297 299 295 294 299 295 288 286 287 284 287 291 291 290 289 290 287 290 290 292 295 293 291 295 300 302 303 302 302 303 303
316 313 311 309 301 300 296 301 302 298 276 287 292 296 299 300 293 300 300 295 292 286 287 287 291 290 290 288 290 286 293 294 292 289 286 293 283 292 296 298 299 300 299 301 302
315 312 310 308 299 297 301 302 301 293 266 288 291 302 300 295 294 295 302 296 288 289 289 286 290 290 287 289 294 288 295 292 291 288 288 289 284 288 295 294 297 299 298 299 301
313 311 309 305 301 302 302 301 296 276 266 286 292 290 292 294 294 296 295 298 295 289 288 290 296 293 292 295 295 296 294 292 291 287 281 286 285 283 289 293 296 298 297 299 300
312 310 307 305 296 302 302 294 278 268 284 286 287 289 289 289 291 292 292 290 288 283 284 290 292 297 296 292 295 293 289 282 280 279 279 287 285 286 289 292 294 296 297 298 298
311 309 307 303 303 303 297 287 269 279 284 292 289 289 285 288 288 290 288 287 292 290 286 283 281 291 296 290 288 288 286 281 276 276 278 285 282 285 289 291 293 296 293 292 293
309 304 302 303 304 301 290 281 275 281 291 289 289 281 279 286 287 287 288 288 291 292 285 284 284 293 294 293 291 286 282 287 281 280 279 280 284 289 291 291 292 291 293 292 293
302 300 300 305 304 296 286 281 283 290 293 292 284 285 279 281 282 283 284 289 290 293 293 288 283 290 292 294 293 289 289 281 280 276 275 278 278 283 287 289 291 292 292 293 294
301 295 301 304 302 292 283 280 288 295 295 291 286 285 283 282 284 284 283 287 292 291 292 288 284 285 288 287 285 286 286 285 283 280 275 275 279 285 287 290 291 290 292 293 294
299 289 302 302 290 287 280 288 294 293 293 293 292 288 284 285 286 282 283 286 293 291 286 288 284 282 284 289 291 289 286 283 277 277 277 275 277 287 288 290 291 291 292 293 293
294 294 303 301 283 282 289 289 294 293 293 292 291 292 290 287 283 285 286 293 294 291 286 287 281 272 278 283 287 286 288 287 284 281 276 274 278 288 288 289 290 290 291 293 293
294 286 295 297 290 284 287 289 291 296 293 292 290 291 290 287 288 285 286 292 294 292 298 293 283 279 275 279 283 283 286 287 284 275 279 279 281 286 286 288 290 292 292 291 292
294 288 291 286 287 286 290 291 290 289 293 291 288 289 288 286 286 285 288 289 292 295 291 288 280 279 283 285 285 284 285 286 281 282 279 282 282 285 287 288 290 291 292 293 293
291 288 289 284 287 287 290 289 289 290 288 287 287 289 289 286 285 285 289 287 285 289 287 287 277 280 277 283 283 283 284 286 286 285 285 285 284 288 290 291 291 291 292 290 290
295 294 288 288 283 288 288 288 290 290 290 291 290 288 287 287 288 288 292 291 289 287 287 285 280 276 275 280 280 277 280 283 285 287 287 283 287 289 290 291 289 287 287 287 288

GFSSW_sfc_thetae_078.txt.gz
Theta_e
322 322 320 320 320 319 319 319 317 314 314 316 314 315 315 314 313 303 296 301 307 316 316 309 305 305 305 303 307 305 295 290 293 295 297 301 301 306 311 309 315 319 319 322 325
323 322 321 321 320 320 318 318 318 315 313 313 315 315 314 313 303 298 306 312 313 316 306 302 298 300 296 298 301 297 290 291 297 299 297 302 303 303 309 311 313 319 325 323 326
326 323 321 321 320 320 317 316 316 316 314 313 313 316 313 309 294 291 314 315 314 313 305 304 303 300 293 296 297 296 291 295 297 302 303 303 305 307 307 305 313 316 320 321 323
328 325 323 321 320 319 317 316 316 315 314 313 313 315 311 303 281 298 314 314 313 309 305 300 298 293 291 290 295 291 296 297 299 303 303 302 307 305 307 307 310 320 324 321 323
327 328 324 321 319 317 317 315 315 314 314 311 311 313 304 293 292 303 314 311 309 307 301 297 294 292 289 290 293 291 294 298 300 301 303 305 304 306 305 308 314 324 325 319 324
325 327 324 320 319 317 315 314 313 314 313 310 310 311 299 287 299 302 303 303 302 303 300 299 295 297 292 291 291 293 294 295 299 300 302 303 304 306 307 308 310 321 323 321 326
322 324 324 320 318 316 314 312 312 312 311 309 309 308 298 293 300 301 302 300 302 302 298 300 299 295 295 291 293 293 289 294 296 298 301 304 300 302 306 307 307 318 320 323 326
319 322 321 319 316 315 312 311 311 310 310 309 309 305 292 302 301 301 301 300 302 301 302 302 302 297 294 296 292 289 289 285 294 298 302 301 293 303 306 305 305 308 314 320 325
315 319 320 318 315 313 311 311 310 310 310 309 304 298 288 305 300 302 300 298 300 302 302 303 300 294 294 287 285 286 280 283 289 298 299 299 295 304 306 303 303 305 307 309 317
315 318 320 316 314 312 310 308 309 308 306 307 304 293 295 293 298 300 302 302 298 297 296 296 293 288 288 286 277 280 281 288 287 295 297 297 296 304 305 304 301 302 303 305 307
314 316 319 315 313 311 306 300 297 294 297 290 291 292 294 299 302 299 302 299 297 293 286 291 286 282 283 287 288 285 284 284 290 297 295 295 295 299 304 304 302 303 303 303 305
313 315 316 313 312 310 302 294 297 296 289 296 296 296 298 299 293 297 302 292 290 284 287 286 281 287 290 290 288 286 285 286 292 297 296 294 294 299 302 302 304 303 302 303 304
311 313 314 312 310 306 299 297 302 300 287 291 295 294 296 298 294 293 297 293 287 284 285 282 285 291 289 287 287 286 286 287 289 293 293 291 289 292 299 302 305 304 303 303 303
311 311 313 311 302 301 297 302 302 298 277 286 290 295 298 299 293 299 300 294 291 285 286 286 290 289 288 286 290 285 291 292 290 288 284 292 282 290 295 298 300 303 303 301 304
309 309 313 308 300 297 302 303 301 293 266 287 290 301 299 294 294 296 302 296 287 288 288 285 286 287 286 289 291 289 294 292 290 286 288 287 284 288 295 293 297 301 304 301 303
309 309 311 304 302 303 303 302 296 277 266 285 291 290 291 293 294 296 295 297 295 288 287 288 294 294 291 294 294 295 291 291 290 288 280 285 286 284 289 293 297 300 302 302 304
307 309 308 306 298 304 302 295 279 270 283 285 285 288 288 288 291 292 292 289 286 282 283 288 290 295 294 290 295 294 288 280 278 279 279 286 285 286 288 290 294 299 300 300 300
306 308 307 305 304 303 298 285 273 277 283 290 288 288 284 287 287 290 288 287 290 289 287 282 280 290 293 291 289 290 288 282 276 276 279 285 281 285 288 290 292 294 296 294 295
309 305 303 303 304 302 291 276 274 280 289 287 287 280 278 285 286 286 286 288 291 292 283 283 284 294 294 293 291 288 284 288 281 281 279 282 284 288 291 291 292 292 293 292 292
302 300 299 306 304 299 288 282 282 289 292 290 281 283 279 281 281 282 283 288 290 293 294 286 284 289 291 293 291 287 289 281 281 276 275 279 278 282 287 288 290 290 290 291 293
299 293 301 305 303 294 284 279 286 293 294 289 284 284 280 281 283 282 282 287 291 291 290 286 284 287 289 286 284 285 284 283 283 280 277 276 279 285 286 289 288 289 291 291 292
298 287 302 304 290 291 284 285 293 291 293 292 290 287 283 284 284 281 281 285 292 290 285 287 283 283 284 288 289 287 285 282 278 277 276 275 278 287 287 290 291 290 290 291 291
292 293 302 301 285 286 286 288 292 291 291 291 290 289 288 285 282 283 285 292 293 290 285 287 280 272 277 282 287 285 287 285 282 280 276 273 278 287 288 289 289 290 290 290 291
293 286 293 296 292 283 283 286 289 293 291 292 289 291 288 285 287 283 285 292 293 292 297 291 282 279 274 278 283 283 284 285 282 274 278 278 279 283 285 287 289 289 289 291 291
293 288 291 285 288 283 286 288 288 287 291 290 287 288 287 284 284 283 286 289 292 294 289 287 279 278 281 284 285 284 284 284 280 281 278 281 282 285 286 288 289 289 291 290 289
291 289 290 286 288 285 289 289 289 288 288 286 287 288 288 285 283 284 287 285 284 289 286 286 277 279 277 282 282 283 284 284 284 284 283 283 281 287 287 289 289 288 288 287 287
294 295 290 288 286 284 288 290 291 290 290 289 289 287 286 287 288 288 289 289 288 285 285 283 279 276 274 279 280 277 280 283 284 284 284 282 285 288 288 290 287 285 286 286 286

GFSSW_sfc_thetae_081.txt.gz
Theta_e
329 327 325 323 322 321 320 319 318 319 316 314 315 316 315 315 313 304 297 300 308 314 315 310 308 306 306 305 308 309 295 290 293 295 298 303 302 307 310 306 315 319 317 322 329
328 328 327 325 322 322 321 319 317 317 317 315 314 315 316 313 304 299 306 311 313 314 305 303 301 302 298 300 302 299 292 291 297 300 299 303 303 304 305 306 309 318 323 325 331
326 328 328 326 323 322 321 318 317 316 315 315 314 314 315 309 293 291 313 314 315 312 306 305 304 301 295 298 298 298 292 296 297 299 303 303 305 307 306 303 307 312 318 324 326
323 324 326 327 324 322 321 318 316 315 315 314 313 312 312 303 286 298 314 315 316 310 305 301 300 295 292 291 296 292 296 297 298 300 301 301 305 304 307 307 310 313 321 323 321
321 322 324 323 324 320 319 318 315 314 314 312 311 312 304 294 293 302 312 311 310 307 301 298 295 294 290 291 293 292 294 296 298 300 300 301 300 302 305 311 312 313 321 322 319
318 318 320 321 324 319 318 316 314 313 313 311 309 311 299 290 301 302 302 304 304 303 301 300 296 297 293 292 291 293 294 294 296 296 298 299 299 303 306 310 311 312 315 321 318
315 315 317 320 322 319 317 314 311 312 311 310 308 308 298 295 301 302 302 302 302 303 298 301 300 296 295 290 295 293 289 291 293 296 294 301 297 298 307 309 308 310 313 320 321
313 314 316 319 320 317 315 312 311 310 310 310 309 305 295 304 302 301 302 301 302 302 302 303 302 297 294 295 291 288 288 283 290 294 296 298 290 300 307 307 305 308 310 317 322
313 312 314 317 319 316 313 312 310 310 310 309 304 300 291 304 300 302 301 298 301 301 303 303 300 294 293 287 283 286 280 282 285 296 295 296 293 301 308 306 304 305 307 310 319
311 311 313 315 317 314 312 309 308 308 307 307 304 293 294 293 298 300 301 301 298 298 296 295 293 289 288 285 276 279 281 283 283 292 294 294 295 303 305 304 304 304 306 307 309
310 311 312 317 314 312 307 304 297 294 298 292 292 291 294 299 302 299 302 299 298 294 285 291 286 282 284 286 286 286 284 283 287 292 293 292 295 297 300 304 302 304 305 306 306
309 309 311 316 313 311 303 297 298 297 289 297 296 295 298 299 293 298 302 292 291 285 288 286 281 287 289 288 287 285 283 284 290 293 293 294 293 296 299 301 304 305 305 305 306
308 309 310 310 312 306 300 298 303 300 288 291 295 294 295 297 293 293 297 294 288 285 285 281 284 290 288 288 286 286 283 284 288 293 294 293 290 292 297 300 304 306 307 306 305
307 308 308 310 303 302 298 303 303 298 281 287 291 294 297 299 293 300 300 294 290 285 285 284 289 287 287 287 287 284 290 290 290 289 285 292 282 291 295 296 300 303 305 305 305
307 308 308 309 300 298 301 303 302 295 272 287 291 301 298 294 294 295 302 295 288 287 288 283 288 287 287 287 291 288 294 292 290 288 288 287 285 289 294 293 297 301 303 306 305
306 307 307 304 303 303 304 302 296 281 273 286 291 290 290 293 294 297 296 298 295 288 287 287 292 291 290 293 295 295 292 291 290 288 279 285 286 285 290 294 297 301 303 305 306
306 306 305 305 298 304 303 296 281 276 285 285 285 288 288 287 290 292 291 288 286 282 283 287 289 294 295 291 295 293 287 280 279 279 279 287 285 288 290 291 293 299 302 303 305
305 304 304 303 305 304 300 287 277 281 283 289 287 287 285 287 287 289 288 287 289 288 285 280 275 289 293 292 289 289 288 281 276 276 280 286 282 286 291 292 293 295 300 300 299
305 304 301 303 305 303 292 281 279 282 288 286 286 280 279 285 286 286 287 288 291 292 284 283 283 293 293 294 293 288 285 288 282 283 281 282 286 290 292 291 293 293 294 294 295
300 299 298 305 305 299 288 283 284 287 290 288 281 282 279 282 282 284 284 289 288 293 294 288 284 290 292 294 293 289 291 283 283 275 276 281 281 282 286 288 291 292 292 294 295
299 291 300 305 303 293 284 284 286 291 292 287 283 283 280 282 283 282 283 288 291 290 291 286 285 287 290 287 286 287 285 284 284 281 279 278 279 287 287 290 289 290 292 292 293
296 287 302 304 288 289 285 286 292 291 292 291 289 286 282 283 283 281 282 287 292 290 286 287 287 283 284 288 290 289 286 283 280 279 277 278 280 287 289 291 291 291 291 292 293
290 292 302 301 285 286 288 289 292 290 290 290 289 288 287 285 282 284 285 292 292 290 286 288 281 276 279 284 287 286 287 285 283 282 278 277 280 289 289 289 291 290 291 293 293
293 285 292 296 292 287 284 287 289 292 290 291 289 290 287 285 286 283 285 291 292 292 295 291 282 279 275 279 284 285 286 286 283 278 280 279 282 285 287 289 290 290 291 291 290
293 288 291 285 287 285 284 288 288 286 290 290 287 288 287 283 283 283 286 288 290 293 289 287 280 278 281 283 286 285 286 286 282 282 280 282 283 285 287 289 290 291 291 289 288
291 289 290 288 288 282 287 288 289 287 287 286 286 287 287 284 283 282 286 286 284 288 286 286 278 280 278 282 282 284 285 285 286 285 284 283 284 288 289 290 290 288 288 287 287
295 293 291 288 283 283 287 289 290 289 289 288 288 286 286 286 287 287 289 288 287 285 285 283 280 276 275 279 280 278 280 283 285 286 285 283 286 289 289 290 288 285 286 286 287

GFSSW_sfc_thetae_084.txt.gz
Theta_e
325 327 328 328 327 325 323 323 320 318 318 317 315 315 315 316 315 310 302 302 307 313 316 312 310 308 308 307 310 309 297 292 294 295 297 303 303 309 312 310 312 314 315 319 330
324 325 326 327 327 326 323 323 320 317 316 317 315 314 315 314 309 303 309 310 313 313 309 302 299 304 300 302 304 301 295 294 299 300 299 303 303 305 306 307 309 311 319 327 335
322 322 324 324 325 327 323 322 319 316 315 315 313 313 314 311 300 296 313 316 313 314 308 305 303 301 296 299 300 299 294 298 299 301 303 302 304 307 306 304 308 309 313 322 330
317 318 319 321 323 324 324 322 318 316 314 314 313 311 312 306 290 303 315 317 317 311 306 303 300 296 294 292 297 293 296 297 299 302 301 300 305 304 306 307 312 312 316 322 325
314 315 316 317 320 320 323 321 318 315 314 314 311 312 307 298 299 305 311 313 312 306 301 298 295 294 290 293 295 293 294 295 297 299 300 301 300 302 304 310 314 314 316 316 320
315 315 314 316 318 323 322 319 316 313 313 313 311 312 302 293 306 305 304 307 308 303 301 300 296 298 294 293 292 294 295 295 297 296 297 297 298 301 304 309 311 313 315 315 316
313 314 313 314 316 322 320 318 315 312 313 313 311 308 300 297 305 306 306 306 307 303 299 302 301 296 295 291 295 294 290 292 294 295 295 297 293 296 303 308 309 311 313 315 315
312 311 312 312 314 317 318 316 312 312 312 311 310 306 296 307 308 304 305 305 306 305 303 304 304 299 296 296 292 289 289 284 291 294 295 295 287 296 302 305 307 309 311 314 317
311 311 311 313 314 317 315 313 312 311 311 310 306 302 294 305 301 305 305 301 304 303 303 303 301 295 294 288 285 286 281 284 287 294 293 294 289 296 303 304 306 308 310 313 316
309 310 310 311 314 316 313 312 310 310 308 308 305 296 299 295 301 303 305 303 299 299 297 297 295 290 289 285 277 281 281 284 285 290 292 292 291 297 304 306 307 308 310 311 313
308 309 309 311 316 313 309 305 297 296 301 296 296 294 296 301 304 301 303 301 300 295 288 291 286 282 286 287 287 286 284 283 288 292 290 291 292 295 301 305 306 307 308 308 310
307 308 309 309 311 311 305 299 298 299 291 299 297 298 299 301 295 299 304 295 292 287 289 287 283 289 291 290 287 286 284 284 289 292 291 291 291 296 301 301 303 306 308 308 308
306 307 308 309 312 305 301 299 305 302 293 293 298 295 296 299 294 296 300 296 290 287 287 284 287 290 288 287 285 285 283 284 285 290 293 292 289 293 300 301 303 306 308 309 308
306 307 307 309 304 303 299 303 304 303 288 288 292 295 298 299 293 301 302 296 292 286 288 286 292 288 287 286 288 284 290 288 287 287 283 294 283 292 297 298 300 303 305 304 309
306 306 306 306 302 299 302 305 304 300 279 291 292 303 300 295 296 296 302 296 290 289 289 287 288 289 287 287 290 289 293 289 286 289 289 289 287 291 295 295 298 301 304 306 309
306 306 305 303 303 304 305 304 300 285 277 287 293 292 292 295 295 297 296 298 294 289 288 288 293 290 292 294 295 296 294 292 292 290 283 287 287 287 292 293 296 301 305 308 308
305 305 304 304 297 305 304 298 284 281 288 286 287 291 291 291 292 293 291 289 286 283 283 288 289 295 296 292 296 294 291 283 282 283 281 288 288 289 293 295 296 297 305 307 310
306 305 303 302 305 305 301 290 280 284 285 291 290 290 288 291 291 292 290 287 290 289 286 284 282 291 295 293 290 290 290 285 278 280 281 288 284 289 295 296 297 298 306 307 306
305 301 299 304 306 304 293 284 283 285 291 289 290 287 286 289 290 290 288 289 292 292 286 286 284 293 295 296 295 290 287 291 286 286 284 286 289 293 296 296 297 300 301 298 300
301 299 298 306 306 299 289 285 286 290 293 292 285 287 284 287 288 289 288 289 289 293 293 289 284 292 293 295 295 292 294 286 289 280 279 283 285 287 291 292 296 296 297 297 297
299 293 301 306 303 292 286 286 289 293 295 290 288 286 286 287 289 288 288 291 294 293 295 292 290 289 293 290 289 291 289 288 288 286 283 281 284 291 292 294 294 296 297 295 295
297 287 302 304 289 289 288 288 293 293 297 294 293 290 288 289 289 289 288 291 296 295 291 293 292 287 288 293 293 293 290 289 286 283 284 286 284 293 295 295 295 295 296 296 296
292 290 302 302 285 287 290 291 293 293 293 294 291 292 292 290 287 290 291 296 297 295 292 293 289 286 287 290 293 291 291 290 289 289 283 284 284 293 295 295 295 296 296 296 295
295 286 291 295 294 290 288 289 290 296 293 295 293 294 292 290 292 289 290 295 296 296 295 294 289 285 283 285 289 288 290 292 290 287 286 286 286 291 293 294 295 296 295 295 294
296 290 293 287 290 291 291 291 290 289 294 295 293 292 291 288 289 289 291 292 295 295 294 293 286 286 286 287 289 289 290 291 288 288 287 287 288 291 294 295 296 296 295 293 293
294 293 293 291 291 290 291 291 290 290 291 291 291 291 293 289 290 288 291 292 291 295 292 292 287 286 285 287 289 287 289 290 290 289 289 289 289 295 295 296 295 294 293 292 292
299 298 296 290 289 290 290 291 291 293 293 292 293 293 291 291 294 295 296 295 294 293 290 290 288 286 284 285 286 284 286 288 290 291 290 288 290 294 293 295 294 292 292 291 292

GFSSW_sfc_thetae_087.txt.gz
Theta_e
321 324 324 326 326 327 327 325 324 321 318 318 317 315 315 315 316 313 306 307 307 312 317 310 309 307 307 306 309 309 297 292 294 295 297 303 301 307 310 309 311 312 313 316 333
320 321 321 321 323 325 325 327 323 321 317 316 317 314 314 314 311 306 313 312 311 314 308 304 301 304 300 301 303 301 295 294 299 299 298 301 302 303 303 305 307 309 314 318 330
316 316 317 318 319 321 323 326 323 320 317 316 314 313 313 314 304 300 315 317 312 314 310 305 303 300 297 299 300 299 294 298 299 301 303 301 302 306 303 302 306 307 310 315 324
316 316 316 316 316 318 321 322 323 319 316 316 314 312 313 309 292 306 317 317 317 311 306 302 301 297 294 293 298 292 296 297 299 301 300 300 303 301 304 305 310 313 317 316 316
314 314 315 315 314 317 319 321 322 319 316 315 314 313 309 301 301 309 311 317 311 306 301 298 295 295 292 293 295 293 295 296 297 297 298 300 298 299 301 307 311 311 315 315 317
312 313 312 314 313 315 317 323 321 317 315 316 313 313 305 295 308 307 305 311 308 305 301 300 296 297 294 293 292 294 294 295 297 297 297 295 296 298 300 305 306 309 311 314 316
311 311 312 312 313 315 315 321 319 315 315 314 313 310 302 300 308 308 306 304 308 304 299 302 302 297 296 292 295 294 290 292 293 294 294 297 292 293 299 302 303 306 310 314 317
310 310 311 310 311 313 314 320 315 313 314 314 313 307 298 309 311 307 306 304 307 306 303 304 304 299 296 296 294 290 290 284 291 293 294 294 287 295 299 298 300 304 308 312 315
308 308 309 310 310 312 316 315 313 313 312 311 306 303 296 308 303 306 305 301 304 304 304 304 302 296 294 288 285 288 283 284 287 293 292 292 288 295 298 298 298 302 306 310 314
308 307 308 309 312 314 313 313 312 311 309 308 305 297 300 297 302 304 306 304 301 300 299 298 295 289 291 286 279 282 283 285 285 291 292 290 290 294 297 297 300 302 305 309 312
308 307 308 308 309 312 309 306 298 297 301 297 298 296 298 302 305 302 305 301 300 297 290 291 286 284 288 290 288 286 285 284 288 292 290 290 289 292 296 302 302 304 307 308 311
308 307 307 308 309 311 307 300 299 301 294 300 299 299 301 303 296 300 305 296 294 289 290 287 283 290 292 291 288 286 284 285 289 292 290 290 289 293 296 301 304 305 306 308 310
307 307 307 308 310 308 302 301 306 303 294 295 298 297 298 300 295 297 301 297 291 288 287 284 289 292 289 288 286 286 284 284 284 289 292 290 287 290 295 301 304 306 308 310 310
307 307 307 307 304 303 299 304 305 304 289 289 293 297 299 300 294 303 303 297 292 288 288 286 292 290 288 287 288 283 289 288 287 285 281 290 280 288 294 298 302 304 305 308 309
306 306 306 305 302 299 303 306 305 301 279 291 292 303 300 296 297 297 303 297 290 290 290 287 290 288 287 288 290 288 292 289 288 287 286 286 285 288 295 294 298 302 305 307 308
306 305 305 304 304 305 307 306 302 285 279 287 294 293 293 295 295 297 296 298 294 289 290 289 295 292 291 294 296 296 288 288 289 285 281 287 287 287 292 294 298 303 304 307 309
306 303 302 306 300 308 307 299 284 281 290 286 288 292 292 291 292 293 291 289 287 283 284 290 291 295 296 290 296 295 290 283 281 282 281 290 287 288 294 296 297 298 304 307 307
305 305 304 304 306 306 301 289 281 285 287 292 291 292 289 292 292 292 290 287 290 290 288 284 284 292 296 293 291 292 290 284 278 280 281 289 285 287 296 298 299 301 307 305 301
305 303 300 303 307 304 293 284 283 286 291 289 291 288 288 291 291 291 290 289 292 292 286 285 286 295 296 296 295 291 288 291 286 287 285 286 289 295 296 299 301 302 302 299 300
301 298 299 305 306 300 288 285 287 293 294 293 286 289 286 289 288 289 289 290 290 294 294 291 285 292 292 296 296 292 294 285 289 281 279 284 285 285 291 293 297 294 295 297 298
302 294 301 306 303 293 285 288 290 296 296 292 289 288 289 289 290 289 289 292 294 294 296 294 291 290 292 291 290 291 290 290 289 287 282 281 283 292 293 295 293 293 293 294 295
299 287 302 305 289 291 288 289 294 296 298 295 294 292 291 291 290 290 288 293 298 297 292 295 293 288 289 295 296 294 291 291 286 285 288 287 284 296 296 295 295 294 295 296 296
292 292 302 303 288 288 291 292 293 294 295 295 292 294 294 292 288 292 293 297 298 297 294 295 291 287 288 292 294 293 294 294 291 293 286 285 285 296 296 295 296 294 294 294 295
296 287 292 296 296 292 291 289 291 297 296 296 294 296 294 292 294 291 292 296 298 297 296 297 291 288 284 286 291 289 292 293 292 287 287 287 288 292 294 295 296 296 296 296 296
299 291 295 289 292 294 294 292 292 291 296 297 294 294 293 289 291 290 293 294 296 298 296 296 288 288 289 290 291 291 291 291 289 290 287 289 290 293 295 296 297 297 297 296 295
297 295 297 294 294 294 293 292 292 293 294 293 292 294 294 291 292 290 292 293 292 297 295 296 290 289 288 290 291 288 291 292 292 292 291 291 290 297 299 299 297 297 295 295 295
303 302 299 292 293 293 292 293 293 295 295 296 295 295 293 293 297 298 299 298 296 295 293 293 291 289 285 288 288 285 287 289 291 293 292 289 292 296 295 296 296 296 295 294 294

GFSSW_sfc_thetae_090.txt.gz
Theta_e
317 319 320 321 322 323 324 326 327 324 322 319 319 317 315 316 315 313 307 307 309 313 314 309 308 306 306 303 306 306 293 290 292 293 296 301 298 302 304 303 305 306 306 309 333
316 317 318 317 318 319 320 323 325 325 322 318 318 317 314 315 309 306 313 313 313 314 309 304 300 303 298 299 301 298 292 292 297 297 296 299 298 300 300 299 301 304 309 312 331
313 315 316 317 316 316 318 320 323 325 321 318 317 315 313 313 304 303 316 317 313 313 310 305 302 299 295 297 297 296 292 297 297 300 300 299 299 302 300 298 302 302 305 308 311
314 313 314 314 315 315 315 319 320 322 320 318 316 315 313 309 292 309 318 317 317 313 306 302 300 296 293 291 296 290 295 296 297 298 297 296 300 298 299 299 305 307 310 313 312
312 313 313 313 313 314 314 316 318 321 319 318 316 314 308 300 300 314 320 319 311 307 301 298 295 294 290 292 293 291 293 295 296 296 295 296 295 295 297 301 303 305 309 308 311
310 311 311 311 312 312 313 316 317 321 318 317 315 314 305 294 308 310 310 313 308 304 301 300 297 297 292 291 290 292 292 292 294 294 296 294 293 294 296 300 301 303 304 306 309
310 309 309 309 311 311 312 315 316 320 317 317 314 309 303 299 307 306 305 307 308 304 299 302 301 297 295 291 295 293 288 290 291 293 292 294 290 291 296 298 297 299 303 305 307
310 309 308 309 310 311 313 314 319 316 316 315 314 307 298 309 308 306 305 303 307 306 303 304 304 298 295 295 292 288 288 282 289 291 293 291 282 292 297 296 295 296 299 303 308
309 309 309 308 310 313 314 316 315 315 316 314 306 303 296 308 303 305 305 301 303 304 305 303 302 295 295 287 284 285 279 282 285 292 291 289 285 291 295 295 294 295 296 300 305
309 309 308 308 309 311 315 314 314 312 310 308 306 297 299 297 303 304 305 305 301 301 298 297 295 289 289 285 274 279 281 284 284 289 291 289 287 291 294 294 293 294 295 299 303
308 308 308 308 308 309 309 305 298 297 301 296 297 297 298 302 304 302 304 301 300 296 288 292 284 282 285 287 287 286 283 281 285 290 288 287 288 291 294 294 293 294 295 298 302
307 308 307 308 308 311 307 300 299 302 293 300 300 299 301 302 295 299 304 295 293 288 291 287 282 288 290 290 288 286 283 282 286 290 288 288 287 291 293 293 295 300 300 304 307
307 307 307 307 308 307 301 301 306 304 294 295 298 297 298 300 295 296 300 297 291 288 288 284 287 291 289 288 286 285 283 283 283 288 289 287 285 288 292 293 300 302 304 305 305
307 307 307 306 303 303 299 305 306 304 287 288 292 296 298 299 293 303 302 297 292 287 289 287 291 288 288 287 288 282 290 288 286 284 278 288 275 284 288 290 297 299 301 304 306
306 306 305 305 301 299 301 305 305 301 277 290 292 303 300 295 296 297 303 298 290 290 289 286 289 288 286 286 290 288 291 290 288 285 283 284 280 281 289 289 293 298 301 304 307
305 305 304 303 303 304 307 305 302 285 277 287 293 292 292 295 295 297 296 298 295 290 289 287 294 291 289 293 294 295 289 289 288 285 278 284 282 281 285 290 294 300 302 304 307
305 305 302 304 298 307 306 299 284 279 289 285 287 291 291 290 292 293 290 288 287 283 283 289 290 293 293 291 295 293 285 280 276 275 279 286 281 286 291 294 297 299 303 305 306
306 305 304 304 306 307 302 289 280 286 286 292 290 291 288 291 292 292 289 287 289 288 286 283 278 291 295 292 289 290 289 282 275 277 280 286 282 286 295 294 297 304 302 300 299
306 303 302 304 306 306 294 283 283 287 291 289 290 287 287 291 291 291 290 289 292 291 286 283 282 294 295 295 295 289 286 290 285 285 283 285 286 292 296 295 299 299 299 298 298
299 299 299 306 306 300 289 285 287 293 293 292 286 289 285 287 288 289 289 291 290 294 295 290 283 292 294 296 296 291 293 283 285 278 278 282 282 285 290 290 292 292 294 296 297
301 293 301 306 304 293 285 286 291 297 296 292 289 288 289 288 289 289 289 292 294 294 294 292 289 289 292 290 289 290 288 289 288 285 281 278 281 292 291 291 290 292 294 294 295
298 287 301 306 290 290 288 290 295 295 299 295 294 292 290 291 290 289 289 292 297 296 291 294 289 285 288 293 294 292 289 288 279 280 282 280 281 294 293 293 293 292 293 295 296
292 293 302 303 287 288 292 292 294 295 295 294 292 294 294 291 288 291 292 296 297 296 291 293 286 280 282 287 291 289 291 291 289 288 280 278 279 294 293 292 293 292 293 294 295
295 287 294 297 296 292 291 290 292 298 295 296 295 296 293 290 293 290 291 296 296 296 297 294 288 283 277 281 288 285 289 290 288 279 282 282 284 288 290 291 291 291 292 292 293
298 291 295 289 291 294 294 293 292 291 296 296 293 294 292 288 290 289 291 292 295 297 294 292 283 282 286 288 289 288 288 289 286 286 281 285 286 289 291 291 291 292 292 292 292
296 293 296 293 294 294 293 292 292 293 293 292 292 293 293 290 291 288 291 291 289 293 290 293 283 284 280 288 288 284 287 289 289 289 288 288 287 294 296 294 292 291 292 292 292
302 301 297 292 292 291 291 293 293 295 295 295 294 293 291 292 295 295 294 294 291 290 290 289 285 281 279 286 284 279 284 286 288 290 288 285 288 292 292 294 293 291 292 291 291

GFSSW_sfc_thetae_093.txt.gz
Theta_e
315 315 318 318 318 318 319 321 322 325 324 323 322 319 316 315 315 311 305 307 308 312 312 308 306 304 303 298 302 302 290 287 290 291 293 299 296 299 301 297 299 302 303 316 330
315 314 315 316 316 316 317 318 320 323 325 323 320 319 316 314 309 305 313 313 315 314 309 304 298 301 294 295 296 294 288 290 296 295 294 297 296 297 298 298 299 302 306 314 330
313 313 314 315 315 314 316 315 318 321 323 322 319 319 315 313 303 302 316 315 314 312 309 304 301 298 291 293 293 292 289 295 296 298 299 296 295 298 296 295 297 298 301 304 312
312 312 313 313 313 313 313 314 316 318 320 320 319 317 314 309 290 308 320 315 314 313 308 302 298 292 290 288 293 288 292 293 295 296 295 293 295 293 296 296 300 300 302 303 305
312 311 311 311 311 312 312 313 315 317 320 320 317 316 309 299 299 316 319 318 312 309 303 298 293 291 287 289 290 287 290 294 295 295 294 295 293 292 293 296 299 301 302 301 303
311 311 309 309 309 310 311 311 314 316 320 319 317 315 304 293 309 315 315 313 306 304 300 298 295 295 289 289 287 289 290 291 293 292 293 291 292 293 293 296 297 299 298 299 301
311 311 310 310 309 310 311 313 313 315 317 318 316 309 302 297 304 305 309 310 307 304 299 301 300 295 293 289 293 291 286 289 290 291 290 293 288 289 293 296 296 297 298 299 300
310 310 309 309 309 310 312 315 314 314 319 318 316 308 296 307 304 304 303 303 306 305 303 303 302 297 293 293 291 287 285 280 288 291 292 290 281 289 293 293 294 295 296 298 299
309 309 309 309 309 310 315 316 317 319 317 315 307 303 295 309 302 305 303 302 303 303 302 303 300 293 292 283 278 282 275 279 284 291 291 288 284 290 293 293 292 294 294 296 297
308 309 308 308 308 310 313 316 317 314 311 309 306 296 299 297 302 303 302 304 301 300 298 296 292 283 284 278 268 275 276 281 281 287 288 286 286 291 292 291 291 292 292 293 295
307 308 308 307 308 309 308 304 298 293 301 296 296 296 298 302 304 301 303 301 300 296 286 292 279 278 281 284 285 284 281 280 284 289 287 285 285 289 293 293 292 290 291 293 294
306 307 307 307 308 310 306 299 299 300 292 300 300 298 300 302 295 299 303 294 293 287 290 284 279 286 288 288 286 284 281 281 285 289 288 286 285 289 292 292 293 292 292 294 295
307 307 307 307 308 305 301 300 305 303 291 295 299 297 298 301 295 295 299 297 291 288 287 284 285 290 288 285 283 283 280 282 283 287 289 286 283 285 290 293 294 295 300 302 304
307 307 306 306 301 302 299 305 306 303 286 288 292 296 299 299 293 302 301 298 293 287 289 286 289 288 286 285 286 282 289 288 288 286 275 286 273 282 286 289 291 295 301 300 303
306 305 305 305 299 298 300 305 306 299 273 289 292 302 299 295 295 297 303 298 289 289 289 283 287 286 285 285 289 286 292 290 289 285 283 281 279 280 284 285 287 293 299 302 302
305 305 304 302 302 303 307 305 301 283 274 287 292 290 291 295 295 297 296 298 295 289 289 288 292 290 288 290 290 292 288 287 287 285 274 282 277 278 283 287 289 294 299 302 302
304 304 302 304 296 304 305 298 282 273 289 284 287 291 290 290 291 292 290 288 285 281 278 286 288 291 292 287 292 292 286 278 276 275 275 285 280 282 290 294 295 297 302 301 299
306 305 304 304 303 303 298 288 274 286 285 291 289 289 288 291 291 292 289 285 289 286 284 280 275 290 294 290 287 289 287 282 275 277 280 285 281 285 294 299 301 301 300 299 299
305 297 297 301 304 302 290 280 282 286 290 288 290 286 287 290 291 289 288 287 291 288 284 282 280 293 295 294 294 289 286 290 284 285 279 283 285 290 292 292 297 297 297 296 297
295 297 296 303 302 295 287 285 288 291 293 291 284 287 281 285 287 287 287 290 290 294 294 289 282 291 293 295 295 291 293 281 282 277 278 281 282 284 286 286 291 292 294 295 297
297 293 299 304 299 291 284 287 291 296 296 291 286 287 286 286 287 288 287 290 293 294 294 291 288 287 292 288 288 288 286 287 285 282 278 276 280 289 287 289 290 292 293 294 294
295 287 299 301 285 291 286 291 294 294 296 293 292 290 287 289 289 289 288 291 295 296 290 293 288 282 287 292 293 289 288 285 278 279 279 280 281 292 292 293 293 293 294 295 295
292 293 299 297 286 288 292 291 294 293 293 292 291 292 292 288 286 287 289 295 296 293 289 290 283 275 279 284 289 287 289 289 287 283 279 276 280 293 292 292 293 292 294 295 295
289 281 288 292 290 289 287 287 289 295 293 294 292 293 290 288 290 287 289 294 295 294 298 293 286 280 275 281 285 284 287 288 284 277 279 279 281 285 287 289 291 291 291 290 291
290 284 288 281 286 288 289 289 289 289 293 294 291 291 289 286 287 286 289 290 293 297 292 290 281 280 285 287 287 285 285 287 284 284 279 283 283 286 288 288 288 289 290 290 290
289 287 290 288 289 288 290 289 290 290 291 290 289 291 291 287 288 286 289 288 287 291 289 290 280 282 279 286 286 282 284 286 287 287 286 286 285 290 290 289 288 289 290 289 290
295 295 291 288 287 286 287 289 291 292 292 293 291 290 289 290 291 291 291 292 290 288 287 287 282 277 277 284 283 278 281 284 286 287 287 283 286 290 290 292 289 289 290 289 290

GFSSW_sfc_thetae_096.txt.gz
Theta_e
313 315 315 316 316 317 317 318 319 323 326 324 323 321 317 315 314 310 304 309 308 312 311 307 304 303 301 296 300 300 289 285 288 290 292 296 294 297 300 297 299 300 299 303 313
313 313 314 315 315 315 315 316 317 320 322 325 323 322 318 315 308 304 313 315 315 313 307 302 296 298 293 294 295 293 287 289 294 293 292 296 294 294 294 294 296 298 302 304 308
313 312 312 313 314 314 314 314 315 317 319 323 322 321 317 313 303 301 317 316 314 312 308 303 300 297 290 291 291 291 288 293 295 297 297 293 293 294 292 291 295 295 298 301 303
313 312 311 311 311 312 313 313 313 315 317 322 321 319 316 308 290 307 318 316 314 312 306 300 296 291 288 287 291 286 291 292 293 295 294 291 294 291 292 292 297 297 299 300 300
312 312 311 310 310 310 310 312 312 314 317 320 320 317 309 299 299 314 317 317 310 306 300 296 292 290 286 287 289 286 288 291 292 292 292 293 291 291 292 295 296 297 299 298 298
311 311 311 311 310 310 310 310 312 313 316 320 318 315 305 293 309 315 313 309 305 302 299 298 294 294 288 287 286 288 290 290 292 291 292 290 290 291 291 295 296 297 297 296 297
311 310 310 310 310 310 311 312 313 313 315 321 317 309 302 297 310 313 312 308 305 302 298 300 299 294 292 288 292 290 286 288 289 290 289 292 286 287 292 293 293 294 295 297 297
309 309 310 309 309 310 310 311 315 314 314 319 316 308 297 306 302 302 303 303 304 304 302 302 301 295 291 291 289 285 284 279 286 290 291 289 280 288 292 291 290 292 293 295 297
308 309 309 309 308 309 314 315 316 315 317 316 307 304 294 309 300 302 302 301 302 302 301 303 299 291 291 282 276 280 274 278 282 290 290 287 283 289 292 292 290 291 292 294 296
308 308 308 308 308 310 307 317 316 315 311 310 306 297 299 297 302 303 302 304 300 299 298 295 290 281 282 275 267 274 275 279 280 286 288 286 285 289 291 291 288 289 290 291 293
307 308 307 307 308 309 305 305 299 297 302 297 296 296 298 302 303 300 303 301 300 294 284 289 278 276 279 283 283 282 279 278 283 288 286 285 285 288 291 291 291 289 290 290 292
307 307 307 307 308 307 305 297 298 298 292 300 299 298 300 302 295 298 303 294 292 285 288 282 276 284 287 286 284 283 281 281 284 288 287 286 285 289 291 291 292 292 291 290 292
307 307 307 307 308 305 301 300 306 304 291 294 298 296 298 300 295 295 298 296 291 288 288 284 284 289 287 284 282 279 277 280 281 287 289 287 283 284 289 291 293 294 294 293 294
306 306 306 307 301 302 298 304 306 304 286 287 292 296 298 299 294 301 301 297 293 287 289 285 289 287 285 283 284 280 287 287 286 285 279 285 274 281 284 287 290 291 292 294 299
306 305 306 306 299 297 300 305 306 300 274 290 292 302 298 295 295 296 302 298 290 289 289 282 286 285 284 283 287 283 291 288 289 285 282 282 278 279 284 283 287 288 291 297 300
304 305 305 301 300 303 306 305 301 281 275 287 292 291 292 295 294 297 296 298 295 289 289 287 291 288 287 290 290 291 288 288 287 285 272 280 276 277 283 289 291 293 299 301 302
306 306 303 303 295 303 303 295 279 275 290 283 287 290 289 290 290 292 290 288 285 278 279 284 286 290 291 286 291 289 285 277 271 276 274 285 276 277 290 295 295 295 299 300 300
306 305 303 303 302 302 297 285 275 284 284 290 288 289 287 290 290 291 289 286 290 287 283 281 275 288 292 289 287 288 287 281 274 277 278 285 279 285 293 296 298 299 298 299 299
304 296 296 301 303 298 287 281 281 283 288 287 289 285 285 290 289 289 288 288 290 288 283 283 277 291 293 294 292 289 286 291 284 285 276 281 286 290 292 291 295 296 296 296 297
294 294 296 302 301 293 286 286 286 291 291 290 282 286 281 285 287 287 287 289 290 292 293 288 283 289 292 295 294 292 293 283 283 274 277 281 282 282 285 286 292 292 294 296 297
294 289 297 301 298 290 284 285 289 295 294 290 285 284 284 284 286 285 285 289 293 293 294 289 287 285 290 287 286 287 286 286 286 283 278 276 281 288 286 287 289 292 293 294 295
292 282 297 299 287 288 282 290 294 293 295 292 290 289 286 286 286 286 285 289 294 294 288 292 287 282 284 290 292 289 286 284 278 279 279 278 282 292 291 291 292 293 294 294 295
288 288 297 295 281 283 288 289 292 292 291 291 290 291 290 287 284 286 288 293 295 292 288 289 282 274 278 283 287 286 287 287 285 282 277 276 281 293 293 293 294 293 293 294 295
287 281 288 290 288 284 286 287 289 294 292 293 291 292 289 287 288 286 287 293 294 293 298 293 284 280 275 280 284 283 285 287 282 276 278 278 279 284 287 289 291 291 292 291 291
288 284 288 280 286 286 287 288 288 288 292 292 290 290 288 284 285 285 288 289 292 296 291 289 281 279 283 285 285 284 283 285 283 282 278 282 282 285 287 287 287 288 288 289 289
288 287 288 286 287 286 288 288 289 289 289 288 288 290 290 286 287 285 287 286 286 289 287 288 280 281 278 285 284 283 283 284 285 286 284 284 283 288 288 286 286 287 288 288 288
293 293 290 287 285 285 286 289 290 291 291 292 290 288 287 289 291 290 290 290 289 286 286 286 281 276 275 281 282 278 281 282 284 286 285 282 285 288 287 289 288 287 288 288 288

GFSSW_sfc_thetae_099.txt.gz
Theta_e
314 313 313 314 316 316 316 317 318 320 323 326 324 321 317 315 314 308 302 306 310 312 311 307 302 300 299 296 299 299 288 283 287 289 290 294 293 296 297 294 296 298 297 301 303
314 314 313 312 314 315 315 315 316 317 320 321 325 322 318 315 306 302 311 315 315 315 305 299 294 297 292 293 294 293 286 287 293 292 291 294 292 292 291 291 293 297 300 301 303
314 313 313 311 311 312 314 314 314 314 317 320 324 323 318 312 302 300 317 315 315 312 307 301 298 296 290 290 290 291 287 292 294 295 295 292 291 293 290 289 293 292 296 298 300
313 313 312 312 309 310 310 312 313 313 315 318 323 320 316 307 290 305 317 315 315 310 304 299 295 290 287 286 290 285 289 290 292 293 291 289 292 290 291 290 295 295 296 298 298
312 312 311 310 310 309 309 310 311 312 314 318 323 318 309 299 299 312 317 316 307 303 298 295 291 289 286 286 288 285 287 290 291 292 291 291 289 289 290 293 295 295 297 296 297
310 310 310 310 310 310 310 310 311 311 313 317 318 314 305 293 307 313 309 305 303 301 298 297 293 292 288 286 285 287 289 289 291 290 291 289 289 289 289 292 294 294 294 295 296
310 310 310 309 310 310 310 311 312 313 314 316 318 311 301 300 311 311 309 305 303 301 297 299 297 293 290 286 291 289 285 287 288 289 288 290 285 286 291 291 291 292 293 294 296
308 309 309 309 309 309 310 312 313 312 313 315 316 309 296 306 306 308 305 302 304 303 301 301 300 294 290 290 287 284 283 278 285 288 290 288 281 287 291 290 289 291 292 293 294
308 308 308 309 308 309 310 313 316 314 315 317 308 304 293 307 299 301 303 300 301 301 301 303 298 290 289 280 276 279 274 277 281 289 288 286 282 288 291 291 290 291 291 291 292
307 307 308 308 308 310 310 316 316 314 312 310 307 297 298 296 301 301 303 303 299 298 296 294 288 281 281 275 268 273 274 278 279 285 287 285 284 289 292 291 290 290 290 289 290
307 307 307 309 308 309 306 305 300 298 302 298 297 296 298 302 302 299 302 300 298 293 285 287 278 273 279 282 280 279 278 277 282 287 285 284 284 287 291 291 290 290 289 291 291
307 307 307 308 309 308 305 297 298 300 291 300 299 299 301 301 294 297 302 293 290 284 286 281 274 284 286 285 283 281 278 279 283 287 287 286 285 289 291 291 292 291 290 290 291
307 306 306 307 307 305 300 300 305 304 290 294 298 297 298 299 293 294 297 295 289 285 284 280 283 288 286 283 281 279 277 279 280 287 290 286 282 283 287 289 291 293 292 292 292
306 306 308 309 301 302 298 304 306 304 285 286 292 295 298 298 293 300 300 295 291 285 287 283 287 286 284 282 282 278 285 284 284 285 281 287 276 280 283 285 290 289 290 292 292
307 307 308 305 299 297 301 305 306 301 272 289 292 301 298 294 294 296 302 298 290 289 286 281 284 284 283 283 286 282 289 287 287 286 284 282 277 278 287 288 291 292 288 293 299
308 308 306 301 302 304 305 305 301 279 271 287 291 289 291 293 294 297 296 298 296 289 289 285 290 288 286 289 289 290 286 287 287 284 272 279 279 278 285 289 293 296 296 299 300
307 307 304 303 295 304 303 296 279 276 288 283 286 289 289 289 289 292 290 288 285 275 275 283 285 289 290 285 289 287 285 274 272 270 273 284 279 278 290 293 295 296 297 299 300
306 304 302 303 302 300 295 285 274 284 285 289 288 290 287 290 290 290 289 286 289 287 283 274 274 287 290 288 285 285 288 280 274 271 278 284 276 284 292 294 297 298 298 298 299
304 295 296 299 302 296 288 279 281 285 287 286 289 284 285 290 289 287 287 287 290 289 282 281 277 289 291 292 291 287 285 291 284 282 280 281 285 291 291 290 295 295 296 296 297
293 292 294 300 299 293 285 285 285 290 290 289 282 285 281 285 287 287 285 289 289 291 292 288 281 287 291 293 292 289 292 283 282 276 276 281 282 282 285 286 291 292 293 295 296
293 289 295 300 297 290 282 284 288 293 292 288 284 283 283 283 285 284 284 289 291 293 292 291 287 284 288 286 285 286 284 286 284 282 278 276 281 288 286 287 289 292 293 294 294
290 284 297 298 287 284 283 287 294 292 294 292 289 287 285 285 285 284 284 288 293 293 288 290 287 282 283 289 289 288 285 283 276 277 279 279 282 293 291 291 291 291 292 294 294
287 287 295 295 281 280 287 289 291 291 290 290 289 290 289 286 283 286 287 292 294 292 287 288 281 273 277 282 286 284 286 286 284 280 277 276 280 292 293 292 293 291 293 294 294
287 283 289 290 287 284 285 286 288 293 291 291 290 290 288 286 288 285 286 292 293 293 298 293 283 280 274 279 283 282 284 284 281 274 278 278 279 284 287 290 291 292 292 291 291
287 284 286 280 285 285 286 287 287 287 291 291 288 289 287 283 284 283 287 288 291 295 291 288 281 279 282 283 283 283 283 283 281 281 277 281 281 284 286 287 287 288 288 288 288
288 287 287 285 286 286 288 287 288 289 288 288 287 289 288 284 284 283 286 285 284 287 286 287 279 281 277 284 283 282 283 283 284 284 282 282 282 288 287 286 286 286 287 287 288
291 291 289 286 284 284 285 287 289 290 290 290 289 288 286 288 289 290 290 289 287 285 285 284 280 276 275 280 281 278 281 282 284 285 284 281 285 287 287 288 287 286 287 287 288

GFSSW_sfc_thetae_102.txt.gz
Theta_e
315 314 313 312 314 315 316 316 316 318 319 322 326 322 318 316 313 307 301 305 308 312 312 303 300 299 299 296 299 298 288 283 286 288 289 294 293 296 295 292 293 296 296 299 301
314 315 313 312 312 311 314 315 315 315 317 320 322 322 318 315 305 301 311 316 315 315 302 297 294 296 291 292 294 292 285 286 292 292 290 293 291 291 291 290 290 294 299 299 299
312 314 313 312 311 311 310 312 313 314 315 316 320 322 318 311 300 299 317 316 315 312 304 299 297 295 289 289 289 291 286 291 292 294 292 291 289 291 288 287 290 291 294 296 297
311 312 311 312 310 309 309 310 312 312 313 316 322 320 315 308 290 304 317 315 315 308 302 297 294 289 286 285 288 284 288 289 290 291 290 288 290 288 290 289 294 294 294 295 295
311 311 309 310 311 309 309 309 309 311 311 314 320 315 309 300 299 311 318 313 305 302 297 294 290 288 285 285 287 284 286 290 291 291 290 290 288 288 288 292 294 294 295 294 295
310 310 309 308 309 309 309 310 310 310 309 314 318 314 305 295 309 309 306 303 302 300 297 296 291 291 287 286 284 286 288 288 289 289 290 288 287 288 288 291 292 293 293 292 294
309 309 309 309 308 309 309 310 311 311 311 313 315 312 303 300 311 308 307 302 302 301 296 298 296 292 289 285 289 288 284 285 285 287 287 289 284 285 290 290 289 290 292 292 293
308 308 308 309 308 308 309 310 311 311 311 313 316 309 297 308 309 304 303 301 302 302 300 299 298 294 289 288 285 283 281 278 283 287 289 287 280 285 289 288 289 290 291 292 293
307 308 307 308 308 309 310 313 312 312 312 314 308 303 296 307 301 301 303 299 300 301 301 301 296 289 287 279 276 278 273 276 281 288 287 285 281 287 290 290 289 291 292 293 294
308 308 308 309 308 309 312 316 316 313 311 310 306 297 297 295 301 301 303 303 299 297 295 292 287 281 280 275 268 273 273 278 278 284 286 284 284 288 291 290 290 291 292 292 291
308 307 308 308 309 308 306 306 300 298 302 297 298 295 297 301 303 300 303 299 298 292 285 286 279 274 278 279 279 278 276 276 281 286 284 283 284 287 290 291 290 291 292 291 291
307 307 308 308 308 308 305 298 298 300 291 300 299 298 300 301 294 297 302 292 290 284 285 281 275 283 286 284 282 280 277 277 282 286 286 285 286 289 291 290 290 290 291 291 290
307 308 307 307 307 304 301 301 306 304 290 294 298 297 298 299 293 293 297 294 288 284 283 279 283 287 285 282 280 277 275 277 278 286 288 287 283 283 286 288 289 293 292 291 290
308 309 307 307 302 302 299 305 306 304 285 286 292 296 298 298 292 299 299 294 289 284 285 282 286 285 283 282 281 278 283 283 284 283 279 288 276 280 283 288 293 294 291 289 291
309 308 309 306 300 298 301 305 306 300 272 290 292 301 298 293 293 294 302 298 289 288 284 280 283 284 283 281 284 282 287 286 286 284 283 280 278 278 285 288 291 294 295 297 301
309 308 306 302 302 303 305 304 299 281 273 285 291 290 290 292 293 297 296 298 295 288 288 284 289 287 285 288 287 289 286 287 287 284 272 278 278 277 285 289 292 296 297 298 301
307 308 304 303 297 303 301 292 278 274 287 283 285 288 289 288 288 292 288 286 283 273 272 281 284 287 289 284 288 288 285 273 270 268 272 282 278 280 289 290 294 295 297 299 300
306 304 302 302 300 299 293 283 273 283 284 288 287 290 286 289 288 288 285 280 286 287 278 275 275 285 289 287 285 287 288 281 271 269 274 282 274 283 290 292 296 297 297 297 297
303 295 295 298 300 296 287 279 276 282 286 285 287 282 282 288 287 285 284 285 289 288 280 282 276 288 290 290 290 285 284 291 283 282 278 277 285 291 291 290 293 294 295 294 295
293 291 293 299 298 292 285 285 283 289 289 288 281 283 279 282 283 284 282 288 290 291 291 288 282 287 290 292 291 288 289 279 282 271 270 276 279 282 286 286 290 291 291 292 295
292 290 296 298 296 290 283 285 287 292 291 287 283 282 281 281 283 281 282 287 290 292 292 290 286 282 285 285 284 284 282 284 283 280 277 275 277 289 287 289 288 290 291 291 293
289 285 298 297 287 283 285 286 293 291 293 291 288 286 284 284 283 282 283 287 292 292 288 291 288 281 282 287 287 286 283 282 276 276 277 278 278 292 293 292 290 289 291 291 294
287 286 296 296 282 280 286 288 290 290 289 289 288 289 288 285 282 284 286 291 293 291 287 288 281 273 277 280 284 282 284 284 283 279 276 274 279 290 293 292 292 291 293 294 295
288 283 289 289 287 284 284 285 287 292 290 290 289 289 287 284 286 284 285 290 292 292 297 292 282 279 273 278 282 281 282 283 281 273 277 277 279 283 287 290 292 292 292 290 292
287 284 286 281 285 284 284 285 286 287 290 290 288 288 286 282 283 282 286 287 290 294 289 288 280 278 281 283 282 283 283 282 281 280 277 279 280 284 286 287 288 288 287 286 286
287 286 286 284 285 284 287 286 287 288 287 287 286 288 286 283 284 282 284 283 283 286 286 286 279 280 276 283 282 281 282 282 282 284 282 282 282 287 285 285 285 286 286 286 287
290 290 288 285 284 283 285 286 287 288 289 290 288 286 285 287 290 290 290 289 287 283 284 283 280 276 275 279 280 277 280 282 283 284 284 281 284 286 285 287 287 286 286 287 287

GFSSW_sfc_thetae_105.txt.gz
Theta_e
315 315 315 314 312 314 315 316 316 317 318 320 324 323 320 317 314 308 302 307 310 313 312 304 302 301 301 299 302 301 289 286 289 290 292 296 295 298 298 296 297 299 301 304 303
312 315 314 314 312 311 312 314 315 316 317 318 321 322 319 315 305 302 313 317 316 315 302 299 297 298 294 296 297 295 286 287 293 295 294 296 294 294 294 293 294 296 300 303 302
312 313 312 312 313 311 311 310 312 313 314 318 320 321 318 311 300 301 318 317 315 311 304 301 299 296 292 293 292 294 288 292 295 296 292 291 291 294 292 290 293 294 297 299 300
311 311 310 311 311 312 310 309 311 311 313 316 321 319 313 308 291 305 317 316 314 307 303 298 296 291 289 288 291 288 290 291 292 292 291 290 292 290 292 293 297 297 298 297 298
310 310 309 309 309 312 309 309 309 310 311 314 319 315 310 301 300 311 315 310 304 303 298 296 292 291 287 288 289 288 288 290 292 291 291 292 290 290 290 294 296 296 296 296 297
309 309 308 308 309 311 309 309 309 310 309 317 317 315 306 296 310 307 304 303 302 301 298 296 293 293 289 288 287 289 289 289 290 290 290 289 289 290 291 293 293 294 295 295 296
309 309 308 308 308 310 308 308 309 311 312 317 315 311 304 300 309 304 304 302 302 301 297 298 297 293 291 288 291 289 285 286 287 289 288 290 285 286 292 292 291 292 293 295 296
308 308 308 308 308 307 308 308 308 311 311 315 314 308 300 310 310 303 303 301 303 302 300 300 299 294 291 291 285 283 283 281 286 288 289 289 284 288 292 291 292 293 294 295 296
309 308 308 308 308 309 310 311 311 311 314 316 307 305 298 309 300 302 302 299 301 301 301 300 296 290 288 282 280 281 279 280 283 289 288 288 285 289 293 293 292 293 294 295 296
308 309 309 309 309 312 314 315 313 312 311 309 305 298 299 296 300 301 303 303 299 298 296 293 288 284 283 280 274 278 279 280 280 286 287 285 285 290 293 293 292 293 294 295 296
308 308 309 309 309 310 306 306 298 297 302 297 296 295 297 301 302 299 302 299 298 293 286 288 282 279 282 282 281 280 280 279 282 286 285 284 285 288 292 293 293 293 294 295 296
308 308 308 308 310 310 305 299 298 299 292 299 298 298 300 301 293 297 301 292 291 285 287 284 279 284 286 285 284 282 279 279 283 286 287 287 286 290 292 292 293 292 294 295 295
309 309 307 308 307 306 302 301 306 304 290 294 298 297 298 299 293 293 297 294 289 286 285 282 285 287 286 284 282 279 278 279 281 285 289 287 286 286 288 290 293 297 297 297 296
309 309 307 308 302 302 299 305 306 304 284 287 292 296 297 297 292 300 300 295 290 286 287 285 288 285 284 283 282 278 283 284 283 284 280 288 277 283 286 287 293 296 297 299 300
309 309 309 307 300 297 302 305 305 299 272 290 292 301 298 292 293 294 302 297 288 288 285 282 285 285 284 283 285 284 287 286 286 284 284 282 280 283 286 288 290 296 297 300 301
309 309 307 302 302 302 304 302 298 278 273 285 291 290 290 292 293 296 295 297 294 287 286 285 289 288 286 288 287 289 287 288 287 284 276 278 280 282 285 287 290 296 298 298 300
308 308 303 302 294 301 299 291 278 276 286 283 285 289 289 287 288 291 288 286 281 275 273 282 285 288 289 286 288 288 286 278 273 271 275 281 280 282 289 290 292 294 295 296 297
307 304 301 301 299 298 292 284 273 283 284 288 289 290 285 288 287 288 286 281 287 285 277 274 275 286 289 288 287 288 287 281 274 272 276 283 278 283 291 292 293 296 295 295 295
304 295 295 297 300 295 288 279 276 282 286 285 287 282 282 288 286 285 285 284 287 286 279 279 277 288 289 290 291 288 284 291 283 282 278 278 283 291 294 290 291 292 292 292 294
293 291 292 298 297 292 285 283 282 288 288 287 281 282 279 283 283 283 283 287 288 290 290 286 280 286 290 292 291 289 290 280 283 275 273 277 279 283 287 287 290 290 289 290 294
291 290 295 297 295 290 279 282 286 292 290 286 282 282 281 282 283 282 282 287 290 290 290 290 286 282 286 286 285 286 284 285 284 282 276 276 279 290 289 290 289 289 290 290 294
289 285 297 296 287 282 285 286 293 289 292 290 287 285 284 284 283 282 282 286 291 292 289 291 288 281 282 287 288 287 285 283 278 277 279 278 280 292 293 292 291 290 291 293 295
287 287 295 296 282 278 284 287 289 289 288 288 287 289 287 284 282 284 285 291 292 291 287 289 284 277 277 281 285 284 286 285 283 281 278 276 280 291 292 292 292 292 293 294 295
287 282 289 288 285 284 283 284 285 291 289 290 288 289 286 285 285 283 285 290 292 292 297 294 283 280 275 279 282 282 283 284 283 276 278 279 281 284 288 290 292 293 294 294 294
287 283 284 280 285 283 284 285 285 285 289 289 287 287 285 281 282 281 285 287 290 293 290 288 281 279 282 283 283 283 283 282 280 281 279 280 281 285 287 289 291 292 291 289 289
287 286 285 283 284 282 286 284 286 287 287 285 286 287 287 284 285 283 285 285 284 286 286 286 280 281 276 283 283 281 282 282 283 283 282 282 283 288 289 289 288 289 288 287 288
289 288 288 284 283 282 283 284 287 287 289 289 288 286 284 287 290 290 289 288 288 286 284 283 281 277 275 279 279 276 280 281 283 283 284 282 286 288 287 287 288 288 288 288 288

GFSSW_sfc_thetae_108.txt.gz
Theta_e
313 313 314 314 313 314 315 316 316 317 319 321 324 324 320 318 315 311 304 311 311 314 313 308 310 309 311 307 308 307 296 293 294 294 295 300 299 302 302 300 302 304 305 309 310
312 313 313 313 313 312 312 314 314 316 318 320 324 323 320 316 310 308 316 318 316 314 307 305 305 306 303 302 305 300 294 292 297 299 297 299 298 298 297 298 298 300 303 306 307
312 312 312 312 313 312 311 310 311 313 315 318 323 321 316 313 305 306 320 317 316 311 306 305 304 301 298 300 299 299 294 296 298 299 298 296 295 297 295 294 298 297 300 302 303
311 311 310 311 313 312 310 309 311 312 313 317 322 317 313 309 295 310 317 316 314 309 306 303 300 296 296 294 296 293 296 296 296 296 295 294 296 294 295 297 300 300 301 301 301
310 310 310 310 310 311 311 309 309 310 310 319 318 315 311 303 303 313 313 311 307 306 302 301 297 296 293 294 294 292 292 294 295 295 295 295 294 294 294 299 300 300 300 300 301
310 310 309 309 309 310 310 309 310 309 309 318 318 315 307 296 312 309 307 306 305 305 301 301 298 299 295 293 292 293 293 293 293 293 293 291 293 292 297 298 298 298 300 301 302
310 310 308 309 308 309 309 309 310 311 315 318 317 313 303 300 310 308 307 305 305 304 300 302 301 297 296 292 295 293 290 291 292 293 292 294 292 291 297 298 298 301 302 303 303
310 309 308 308 308 310 308 309 309 312 314 316 317 310 296 310 311 306 307 305 306 306 303 304 303 299 295 295 291 289 290 288 290 293 293 293 291 296 297 297 299 300 301 301 303
309 308 309 309 309 309 309 310 311 312 315 314 308 305 294 310 302 305 306 302 303 303 303 302 300 295 293 290 289 289 287 286 289 293 292 292 291 297 299 299 298 299 300 302 303
309 309 309 310 310 313 311 311 313 313 310 310 307 299 300 296 301 304 307 305 300 300 298 297 295 293 292 292 287 285 286 286 287 291 292 292 292 297 300 299 298 299 301 302 302
309 309 309 311 310 313 311 307 301 298 301 297 298 297 298 302 305 302 305 301 300 297 291 292 292 287 287 288 288 287 286 286 290 291 290 292 293 296 299 298 298 300 301 302 303
309 308 309 311 311 311 308 299 299 300 292 300 299 299 301 302 296 300 304 296 295 290 291 291 287 289 290 289 288 287 286 288 291 290 292 293 292 296 296 297 299 300 301 302 303
309 308 309 309 309 308 303 302 307 305 291 295 298 297 299 301 295 296 301 297 293 290 290 289 288 290 289 287 286 287 285 286 286 291 295 292 292 291 293 296 299 301 302 303 302
310 309 308 308 304 304 301 305 308 307 289 288 293 296 299 299 293 301 303 298 293 290 290 290 290 288 287 286 288 284 289 288 288 288 285 292 284 291 292 293 297 299 299 300 301
309 310 309 308 304 301 303 308 308 304 279 290 293 303 301 294 294 295 303 299 290 290 290 286 288 288 287 288 290 289 290 289 289 287 285 287 283 290 291 292 294 297 297 300 299
309 309 307 307 306 304 307 306 303 290 276 287 293 292 292 294 294 297 297 300 297 291 290 289 293 291 290 291 290 292 290 290 289 286 280 285 285 289 290 289 292 295 296 297 297
308 307 306 306 301 306 304 299 288 280 287 285 288 291 291 289 291 293 291 290 288 286 285 288 289 291 292 290 292 291 289 284 282 281 283 285 282 289 292 292 293 293 294 296 296
307 304 304 303 306 305 301 295 280 284 285 291 290 291 288 291 290 291 290 289 291 290 287 285 284 289 293 292 291 291 290 283 277 281 283 286 281 291 294 295 295 295 294 294 295
304 305 304 303 305 304 299 285 283 286 289 289 290 287 287 290 290 290 290 289 291 291 286 286 286 291 292 294 294 291 287 291 284 286 281 287 289 293 296 294 292 292 292 292 294
304 302 301 303 304 303 295 285 288 291 292 291 286 288 285 288 288 289 289 292 291 293 294 290 284 290 293 294 295 293 294 285 287 278 278 284 285 288 290 290 292 291 290 291 295
302 301 303 304 304 299 287 289 291 294 294 291 288 288 288 288 289 288 289 292 294 293 295 293 289 288 291 290 291 290 289 289 288 286 281 280 286 294 291 292 291 291 291 292 294
301 297 303 303 298 296 291 293 295 293 296 294 292 291 290 290 289 289 289 292 296 296 291 294 290 285 288 292 293 292 290 290 284 281 286 284 285 296 294 293 293 292 292 294 295
299 299 305 303 294 292 292 292 294 293 293 293 292 293 293 291 288 290 291 296 297 296 293 294 288 283 284 287 290 289 291 291 288 287 283 282 286 296 295 294 294 293 294 295 296
299 296 301 299 295 294 292 291 291 295 293 294 293 294 292 290 292 290 291 294 296 296 297 297 289 287 283 285 288 286 288 290 288 284 285 285 287 292 294 294 295 295 296 296 297
297 293 293 293 293 293 293 292 290 290 294 294 292 293 292 289 289 289 291 292 294 296 296 294 287 288 289 290 289 288 288 288 286 287 283 287 286 291 294 296 297 298 298 297 296
297 295 293 292 291 292 292 291 290 291 292 291 291 292 292 290 291 289 291 291 291 294 293 292 287 287 283 289 288 285 287 288 288 288 287 288 287 295 297 297 297 297 297 296 295
297 296 296 290 291 291 291 291 291 293 293 294 292 291 290 292 294 296 296 295 293 292 291 290 288 285 282 286 286 282 286 287 287 289 289 285 291 295 293 294 296 297 297 296 295

GFSSW_sfc_thetae_111.txt.gz
Theta_e
313 313 313 313 315 314 316 317 317 318 319 321 325 324 321 319 316 313 306 312 313 314 315 313 313 313 314 311 311 308 297 296 296 296 298 302 300 304 305 302 303 305 306 309 310
313 312 312 314 314 312 313 313 314 316 318 320 324 323 320 318 311 309 319 317 316 313 308 309 307 309 305 306 307 302 297 296 300 301 300 301 299 300 298 299 300 302 305 306 307
312 311 311 314 314 313 313 311 312 313 315 320 324 321 316 315 308 308 319 317 314 312 308 309 309 305 301 303 301 300 297 298 299 301 300 298 297 299 297 296 299 298 301 303 304
312 312 312 313 314 313 312 309 311 312 313 317 319 315 313 311 296 311 319 317 313 310 307 305 304 299 299 296 299 296 298 298 298 298 297 295 298 296 297 298 302 302 302 302 302
311 311 311 312 313 311 310 309 309 310 312 319 316 314 311 304 302 312 311 310 309 308 304 302 299 299 296 297 296 295 295 296 297 296 296 296 295 295 296 300 302 302 302 303 304
311 309 310 310 310 311 310 309 311 309 311 319 316 316 307 296 312 310 308 307 307 306 304 303 300 301 297 296 295 296 295 295 295 294 295 293 295 295 298 300 300 302 304 305 306
309 309 310 309 310 311 310 309 312 311 313 318 317 311 302 300 311 309 308 306 307 306 302 304 303 300 299 294 297 295 292 294 294 294 294 296 294 294 300 300 300 302 304 305 305
310 309 309 308 308 308 309 308 311 314 318 317 314 307 295 309 313 307 308 306 307 307 305 306 305 301 298 297 294 292 292 290 293 294 295 295 291 299 300 300 300 302 304 304 305
310 310 310 309 309 308 308 309 311 314 317 316 308 302 293 309 303 307 307 303 304 304 304 303 302 297 296 293 291 291 290 289 291 295 294 295 293 299 302 302 301 302 303 303 304
310 310 311 310 310 310 310 312 314 313 311 310 307 297 298 296 303 305 307 305 301 301 299 298 297 294 294 294 290 289 288 289 289 294 294 293 293 298 302 302 301 301 303 303 305
310 310 311 312 315 313 311 308 299 296 303 298 299 297 298 303 306 303 306 302 301 299 293 295 295 291 290 290 290 290 289 289 292 294 292 294 295 298 301 300 299 301 302 304 305
309 310 311 312 312 311 308 299 299 300 291 300 300 300 302 303 297 301 306 297 297 292 294 294 290 291 292 291 290 290 289 290 293 293 294 295 294 299 298 298 299 300 302 303 303
309 309 310 310 311 309 305 303 309 307 293 295 298 298 299 302 297 298 303 298 296 293 293 292 291 292 291 290 289 290 288 289 289 294 297 294 294 294 297 297 299 302 303 302 301
310 309 308 308 306 306 302 308 310 309 291 289 294 297 300 300 294 303 304 300 295 292 293 291 292 290 290 288 290 288 292 291 291 290 288 294 286 294 296 295 298 301 300 299 300
310 311 309 309 306 303 305 310 309 306 281 292 294 304 301 296 296 297 304 300 293 292 293 289 290 290 290 290 292 291 293 292 291 287 287 289 287 293 294 294 297 298 298 298 299
309 309 308 309 309 307 310 308 305 290 277 289 295 293 294 296 296 298 298 301 298 293 294 291 295 293 293 293 293 294 293 291 291 289 283 288 287 290 294 294 295 296 296 297 298
308 308 309 309 304 309 308 302 290 282 289 287 289 293 293 291 293 294 294 293 291 286 285 290 291 294 294 293 295 294 292 287 284 284 285 288 285 289 296 296 295 294 294 295 297
308 307 306 307 309 309 305 297 282 285 286 292 292 293 290 292 292 293 292 292 294 292 290 288 284 292 295 294 292 293 291 284 278 282 285 288 283 292 298 299 297 296 294 295 295
305 309 308 308 309 308 301 287 285 288 291 290 291 289 289 292 292 292 292 291 293 294 289 288 287 293 294 296 296 292 288 293 285 287 282 287 291 297 298 297 296 294 294 293 294
309 307 305 308 308 306 297 287 290 294 294 293 287 290 287 290 290 292 291 294 293 295 297 292 287 293 295 296 296 294 295 286 287 279 279 286 288 290 292 291 294 293 292 293 295
307 303 307 309 308 303 291 291 292 296 296 293 290 290 291 290 291 291 291 294 295 294 296 294 291 290 292 292 292 291 290 290 289 287 281 280 287 297 293 294 293 294 293 293 295
308 300 309 310 302 300 295 294 295 295 297 296 295 294 292 292 291 291 291 293 298 297 293 295 292 287 290 295 296 295 293 292 285 283 287 285 284 298 297 296 295 294 294 295 296
303 303 311 307 296 295 295 294 296 295 295 295 294 296 295 293 289 292 293 298 298 296 294 296 291 285 287 290 292 289 292 292 292 290 283 281 285 298 297 296 297 296 296 296 297
303 298 303 304 302 297 295 293 293 297 296 296 295 296 294 292 294 292 292 296 298 297 298 297 292 288 284 287 290 288 289 291 290 285 285 286 288 293 295 296 297 297 298 298 298
303 297 297 297 296 296 296 295 293 292 296 297 294 295 294 291 291 291 293 294 296 298 297 296 288 290 290 291 290 289 289 289 287 288 284 287 287 291 294 296 298 300 299 298 298
301 300 299 297 295 296 293 294 293 293 294 293 293 295 294 292 293 291 293 293 292 296 295 296 288 290 285 289 290 287 289 289 289 289 289 289 289 295 297 298 298 299 299 298 299
303 302 299 293 295 294 295 295 294 295 296 296 295 294 293 294 296 297 298 298 296 293 293 292 289 287 283 289 288 284 288 289 289 290 290 286 291 295 295 296 297 299 300 299 300

GFSSW_sfc_thetae_114.txt.gz
Theta_e
314 313 315 313 315 316 317 317 317 318 319 322 324 324 322 320 317 312 308 312 314 317 318 312 312 314 314 311 310 307 294 292 293 294 296 300 298 301 301 297 298 298 299 301 303
313 314 313 313 313 314 314 314 314 315 317 320 323 323 321 320 311 309 317 319 318 317 309 308 305 309 304 305 304 299 293 294 298 298 297 299 296 296 295 295 295 297 301 301 302
312 311 312 314 313 313 313 312 313 314 316 320 323 322 317 315 308 308 320 319 316 315 309 310 308 306 301 302 300 298 294 297 298 300 299 297 295 297 293 292 294 293 296 299 299
312 313 314 314 313 312 311 311 312 314 314 320 319 316 315 312 296 310 318 317 315 312 309 308 304 299 297 295 299 293 297 297 299 298 297 294 296 293 294 294 298 296 298 298 298
311 312 313 314 312 311 311 311 311 311 314 320 317 314 312 303 300 310 313 310 310 310 306 303 299 299 295 295 295 293 294 296 297 296 294 295 292 292 293 296 298 299 301 299 300
311 311 311 311 311 311 311 311 313 311 318 318 316 317 307 294 310 309 308 308 307 308 304 303 299 300 295 294 293 294 296 295 295 294 294 293 293 294 294 296 298 300 300 301 302
310 311 310 311 311 311 311 311 313 311 318 318 317 310 300 297 309 310 308 306 308 307 302 304 303 300 297 293 296 294 290 292 293 294 294 295 291 292 296 298 297 299 300 302 302
310 310 309 309 309 310 310 312 315 317 317 318 316 306 294 308 311 309 307 305 307 307 305 305 305 300 297 295 292 290 288 285 291 294 294 293 286 295 297 295 296 299 300 302 302
311 310 309 309 310 310 310 313 315 315 315 314 307 302 293 309 303 306 307 302 304 304 304 304 302 296 295 289 285 286 282 285 288 295 294 291 288 295 298 298 297 298 298 299 301
312 311 311 310 310 310 313 314 313 312 310 310 307 297 299 297 303 305 307 306 302 302 301 299 296 290 290 290 282 283 282 286 284 291 292 290 290 295 298 298 296 296 296 298 302
312 313 314 312 312 312 311 307 298 298 303 297 297 296 298 303 306 303 305 304 303 299 291 294 292 287 287 289 289 288 286 285 289 293 290 290 291 294 298 296 295 294 296 298 300
312 312 313 313 312 311 309 299 299 301 291 300 300 300 302 304 297 301 307 299 298 291 293 291 285 290 292 292 290 288 285 286 291 294 292 291 291 295 298 296 295 295 297 297 299
311 311 312 312 312 309 304 303 309 307 291 295 299 298 299 302 297 297 303 299 295 292 292 288 289 293 292 289 288 286 283 286 286 292 294 291 289 291 294 295 298 298 299 298 297
311 310 310 312 307 306 301 308 310 309 288 289 294 297 300 301 294 303 304 300 296 291 292 289 292 291 289 288 289 285 291 291 290 286 280 290 277 289 291 292 295 296 295 295 296
310 311 313 309 305 304 306 310 310 304 277 292 294 304 302 296 295 297 305 301 293 291 291 287 289 289 289 288 292 289 293 291 290 287 284 285 279 287 291 290 293 293 294 295 296
309 310 311 310 310 308 310 308 304 288 275 289 295 294 294 296 296 298 299 301 299 293 293 290 295 293 292 294 293 294 291 292 291 287 279 282 281 283 288 289 292 294 294 295 296
308 308 310 309 304 310 308 302 287 280 290 287 289 293 293 292 293 295 294 292 288 285 283 289 290 293 294 291 294 293 287 277 276 281 276 285 278 283 291 293 292 292 292 294 296
308 307 307 307 309 309 305 294 279 285 287 293 293 293 290 293 292 293 293 288 292 291 286 282 276 291 295 292 289 290 288 275 271 272 276 285 275 285 295 296 296 294 292 293 295
308 308 308 309 310 307 297 284 283 288 291 290 292 289 288 291 292 292 290 290 292 292 285 282 283 293 295 295 294 289 286 289 279 281 276 279 286 293 295 294 293 292 293 293 294
308 306 305 309 309 304 295 287 289 295 294 294 287 289 286 289 290 290 289 293 292 295 295 289 282 292 294 295 294 291 293 281 284 270 272 278 283 282 289 289 293 291 290 292 295
307 302 307 310 308 301 288 288 292 296 296 293 290 289 290 289 290 289 289 292 294 294 294 292 288 287 290 289 289 288 287 287 286 282 274 274 277 293 290 292 292 292 292 293 295
307 299 308 309 300 297 292 294 296 295 298 296 295 294 291 291 290 289 289 292 296 295 291 293 289 282 287 293 294 291 289 288 279 279 281 279 279 296 295 295 294 294 294 293 296
302 301 311 307 294 292 295 295 297 295 295 295 294 296 294 291 287 290 291 296 297 295 291 292 287 277 280 286 289 286 289 290 288 285 279 275 278 295 294 294 295 294 293 294 295
302 293 302 302 300 295 293 293 293 297 296 296 295 295 293 291 292 290 291 296 296 296 299 296 288 283 278 281 286 284 287 288 287 279 280 282 283 287 291 293 294 294 294 294 295
301 295 296 294 294 294 295 294 293 292 296 296 294 294 292 288 289 289 291 292 295 298 294 292 283 285 287 289 288 287 287 287 284 285 281 284 284 288 290 291 293 295 296 295 295
299 297 296 294 295 294 292 293 293 294 294 292 292 294 293 289 290 288 290 290 289 293 291 293 283 285 280 287 287 284 287 287 287 287 287 287 286 292 293 292 291 292 294 295 295
302 301 297 294 293 291 292 293 294 294 295 296 294 292 291 293 294 294 294 293 292 290 290 289 284 281 278 285 284 280 285 286 287 287 287 283 288 291 290 292 292 293 294 295 296

GFSSW_sfc_thetae_117.txt.gz
Theta_e
314 317 316 317 316 317 318 318 318 319 321 323 325 324 322 320 317 312 307 311 313 319 319 311 308 311 311 306 306 301 290 288 290 292 294 297 296 299 298 294 296 295 294 298 299
312 313 314 316 315 316 315 315 315 317 319 323 325 323 322 321 312 309 318 320 318 318 309 305 303 306 300 302 300 295 289 291 296 294 294 296 294 293 292 292 292 294 297 298 299
313 312 314 315 315 313 313 314 315 315 320 321 324 321 318 315 307 306 322 321 318 316 309 305 306 303 297 297 296 294 290 295 296 297 297 295 293 295 291 289 291 291 294 296 297
313 314 315 315 314 313 312 312 313 315 321 322 320 317 317 311 293 306 316 316 317 312 307 304 300 295 294 291 295 291 294 295 297 296 294 292 293 291 292 292 295 294 297 297 297
313 314 314 313 313 313 312 313 313 316 320 319 318 318 313 299 298 310 315 312 309 308 303 300 296 295 291 291 292 290 291 294 295 294 292 293 290 289 291 294 296 297 299 297 298
312 311 311 312 312 312 312 314 313 319 319 319 318 315 305 291 306 310 308 306 306 305 302 300 296 297 293 291 290 291 293 293 293 292 293 292 291 292 292 294 296 297 297 298 299
311 310 311 313 312 312 312 314 313 319 319 319 314 308 300 297 307 308 308 304 305 305 300 302 300 297 294 291 294 291 288 289 290 292 292 293 288 289 293 295 295 296 298 299 301
311 310 310 310 311 311 314 315 316 318 318 318 313 305 295 308 308 307 305 303 304 304 303 302 302 297 293 292 290 287 286 281 289 292 293 290 282 292 295 294 293 295 297 299 301
310 309 310 311 311 312 315 316 317 317 317 315 305 302 293 309 303 304 304 301 302 301 300 303 299 292 292 285 282 284 279 282 286 293 292 289 285 293 295 295 293 295 295 299 301
313 311 311 311 311 313 314 314 314 312 312 309 305 297 299 297 303 304 304 304 300 300 298 296 293 286 286 285 277 279 279 283 283 289 291 288 287 292 295 295 294 294 294 297 299
315 313 313 312 313 312 309 305 299 297 302 296 296 295 299 303 306 303 305 302 300 296 286 292 284 277 282 285 286 285 283 281 287 291 290 287 288 292 295 295 294 293 294 296 297
313 314 313 313 312 311 307 297 298 301 292 300 300 299 302 304 297 301 306 296 294 287 290 285 279 287 291 290 288 286 282 283 288 293 291 289 289 294 296 295 294 294 294 295 295
312 313 313 313 312 306 302 302 309 306 293 296 300 298 299 302 297 297 302 298 292 288 288 283 287 292 291 287 286 284 282 283 284 290 291 289 285 289 293 294 296 297 297 295 294
312 312 312 311 306 305 301 307 310 307 284 289 294 298 301 301 293 302 302 298 293 288 288 286 290 290 288 286 287 282 289 290 289 283 276 288 275 285 289 290 293 293 293 292 293
311 313 314 310 303 302 306 309 308 301 273 292 295 305 302 295 294 296 302 298 290 290 289 284 287 287 288 286 290 287 292 289 289 283 280 282 276 283 288 287 291 290 291 291 292
310 311 311 307 304 305 307 305 302 283 273 288 295 294 294 296 296 298 297 298 296 292 290 288 293 291 290 293 291 293 290 290 291 287 276 279 279 280 285 289 291 292 290 292 294
309 309 307 306 300 305 305 297 280 274 288 286 288 292 291 290 292 294 292 289 284 275 275 287 288 291 293 289 292 291 284 271 276 275 274 283 275 282 289 291 292 291 288 288 292
309 308 308 304 304 304 299 286 274 282 284 291 291 291 288 290 290 291 289 283 289 288 281 274 273 289 293 290 287 288 285 272 268 269 273 280 274 282 292 293 293 293 291 289 292
308 301 301 303 306 302 291 278 276 283 290 289 290 285 285 289 289 289 287 287 289 289 281 276 279 291 293 293 292 288 281 288 276 275 271 274 282 290 293 291 291 291 291 288 289
299 299 299 305 304 298 286 283 284 292 292 292 283 286 282 286 286 286 286 290 290 293 292 287 279 290 292 294 293 290 291 279 279 268 270 273 278 281 287 289 292 290 290 290 292
298 295 301 306 302 292 280 282 290 294 295 290 287 286 286 286 287 286 286 289 292 292 291 289 285 284 289 287 286 286 284 286 284 280 273 273 275 288 289 291 291 292 291 290 291
298 288 303 303 290 288 282 290 295 292 295 294 292 291 287 288 286 286 286 289 294 293 288 290 287 279 284 290 293 290 287 286 277 277 278 277 276 291 294 293 294 292 292 291 293
293 293 303 301 284 281 290 292 294 293 293 293 292 293 291 288 284 287 289 294 295 293 289 290 283 273 279 284 287 285 287 288 286 283 277 274 278 292 292 292 294 293 292 293 293
294 286 295 294 292 289 288 289 290 295 294 294 292 292 290 288 289 286 288 294 294 294 299 295 285 280 275 279 284 282 285 287 286 276 279 281 283 286 288 289 292 293 293 293 294
294 288 291 284 289 289 290 290 290 289 293 293 291 291 289 285 287 286 289 290 293 297 293 290 281 281 285 286 286 286 286 286 284 285 280 283 282 287 287 288 290 292 294 293 293
291 290 291 289 291 289 290 289 290 291 291 289 289 291 290 287 287 286 288 287 287 290 290 291 281 282 277 285 285 282 285 285 286 286 286 286 285 292 293 289 288 290 291 293 294
294 294 292 291 288 286 287 289 291 291 292 294 291 289 288 290 290 291 291 291 290 289 288 287 282 278 276 282 281 277 283 283 284 285 286 282 287 290 288 290 290 291 292 292 294